     2              OBSERVATION DATA                        RINEX VERSION / TYPE
DAT2RIN 1.01d Dan Johnson 14SEP96 6:26:49 GMT               PGM / RUN BY / DATE
Mojave '96 team Central Washington U                        OBSERVER / AGENCY
16329 TRIMBLE 4000SSI Nav 7.09 Sig 3.03                     REC # / TYPE / VERS
66919 TRIMBLE CHOKE                                         ANT # / TYPE
MOND MONDAY                                                 MARKER NAME
 -2439737.0000 -4645851.0000  3615005.0000                  APPROX POSITION XYZ
        0.0614        0.0000        0.0000                  ANTENNA: DELTA H/E/N
     1     1     0                                          WAVELENGTH FACT L1/2
     4    L1    C1    L2    P2                              # / TYPES OF OBSERV
    30                                                      INTERVAL
                                                            COMMENT
PANGA GPS Data Analysis Center                              COMMENT
Department of Geology                                       COMMENT
Central Washington University                               COMMENT
Ellensburg, WA 98926                                        COMMENT
                                                            COMMENT
http://www.panga.cwu.edu                                    COMMENT
ftp://panga.cwu.edu                                         COMMENT
                                                            COMMENT
  1996     9    10     0    58    0.000000                  TIME OF FIRST OBS
  1996     9    10    14     0   30.000000                  TIME OF LAST OBS
    21                                                      # OF SATELLITES
           1    21    21    21    21                        PRN / # OF OBS
           2   857   857   850   850                        PRN / # OF OBS
           3   370   370   366   366                        PRN / # OF OBS
           4   712   712   706   706                        PRN / # OF OBS
           5   418   418   415   415                        PRN / # OF OBS
           6   106   106    99    99                        PRN / # OF OBS
           7   742   742   739   739                        PRN / # OF OBS
           9   534   534   531   531                        PRN / # OF OBS
          10   487   488   473   473                        PRN / # OF OBS
          14   462   476   457   457                        PRN / # OF OBS
          15   488   488   485   485                        PRN / # OF OBS
          16   518   519   512   512                        PRN / # OF OBS
          18   770   770   765   765                        PRN / # OF OBS
          19   859   859   857   857                        PRN / # OF OBS
          22   501   501   501   501                        PRN / # OF OBS
          24   439   439   437   437                        PRN / # OF OBS
          25   221   221   221   221                        PRN / # OF OBS
          26   457   458   453   453                        PRN / # OF OBS
          27   824   824   822   822                        PRN / # OF OBS
          29   615   615   615   615                        PRN / # OF OBS
          31   507   507   504   504                        PRN / # OF OBS
                                                            END OF HEADER
 96  9 10  0 58  0.0000000  0  6  1 14 15 22 25 29
   2056519.12810  24628650.07000   1467324.21050  24628656.03540
   -918054.45510  21392567.76600   -666905.48350  21392572.51240
   1664056.63910  21538928.92200   1237762.35650  21538934.38340
  -1452651.29710  23376854.57800  -1021770.99550  23376860.59040
   1543704.85310  21428975.00800   1142934.14950  21428978.88740
   -445190.90010  21981497.79700   -321045.68250  21981501.84040
 96  9 10  0 58 30.0000000  0  6  1 14 15 22 25 29
   2158873.50100  24648127.19500   1547080.91840  24648132.17640
   -955146.93600  21385509.07800   -695808.70140  21385513.83640
   1753276.03800  21555906.82000   1307283.94240  21555912.30540
  -1516933.68300  23364621.87500  -1071861.12640  23364627.26640
   1626025.37100  21444639.96900   1207079.99540  21444643.77740
   -460863.70700  21978515.64100   -333258.24940  21978519.63740
 96  9 10  0 59  0.0000000  0  6  1 14 15 22 25 29
   2261451.37100  24667647.36700   1627011.67640  24667652.62940
   -991738.55100  21378545.95300   -724321.63440  21378550.73440
   1843206.09400  21573020.00800   1377359.28140  21573025.38740
  -1580866.94500  23352455.81300  -1121679.20140  23352461.71940
   1708912.46600  21460413.00800   1271667.33540  21460416.79340
   -476139.74100  21975608.74200   -345161.64040  21975612.77340
 96  9 10  0 59 30.0000000  0  6  1 14 15 22 25 29
   2364262.14000  24687211.04700   1707123.97740  24687216.32040
  -1027821.65900  21371679.74200   -752438.33140  21371684.46540
   1933845.82500  21590268.25000   1447987.61540  21590273.78140
  -1644439.65200  23340358.64100  -1171216.31940  23340364.64140
   1792374.17000  21476295.30500   1336702.41740  21476299.06640
   -491021.00000  21972776.90600   -356757.41640  21972781.09040
 96  9 10  1  0  0.0000000  0  6  1 14 15 22 25 29
   2467319.26700  24706822.83600   1787428.16840  24706829.55140
  -1063386.70500  21364911.89800   -780151.34340  21364916.59840
   2025201.89200  21607652.64800   1519174.13840  21607657.95740
  -1707634.62000  23328332.97700  -1220459.13440  23328338.56640
   1876419.79300  21492288.71100   1402192.50040  21492292.60240
   -505517.50600  21970018.19500   -368053.38740  21970022.29740
 96  9 10  1  0 30.0000000  0  6  1 14 15 22 25 29
   2570566.00600  24726470.13300   1867880.14140  24726475.09040
  -1098502.90400  21358229.33600   -807514.60640  21358234.08240
   2117219.15800  21625162.96900   1590875.86740  21625168.35940
  -1770506.65200  23316368.82000  -1269450.28440  23316374.31640
   1960998.80700  21508383.16400   1468098.21340  21508387.06640
   -519690.85100  21967321.21100   -379097.54440  21967325.52340
 96  9 10  1  1  0.0000000  0  6  1 14 15 22 25 29
   2674023.94900  24746157.19500   1948496.68640  24746161.97740
  -1133152.90100  21351635.75000   -834514.59140  21351640.69540
   2209923.18000  21642803.88300   1663112.75140  21642809.21540
  -1833036.29100  23304469.25800  -1318174.61840  23304475.07040
   2046152.06700  21524587.71100   1534451.39540  21524591.61340
   -533510.65900  21964691.39800   -389866.21040  21964695.46540
 96  9 10  1  1 30.0000000  0  6  1 14 15 22 25 29
   2777617.09500  24765870.65600   2029218.59640  24765875.89540
  -1167394.24500  21345120.51600   -861196.14740  21345125.20340
   2303253.95600  21660564.35900   1735838.00140  21660570.16040
  -1895286.87500  23292623.94500  -1366681.52740  23292628.75040
   2131834.38500  21540891.95300   1601216.82740  21540895.77340
   -547035.31800  21962117.60900   -400404.89140  21962121.77040
 96  9 10  1  2  0.0000000  0  6  1 14 15 22 25 29
   2881362.06700  24785612.22700   2110058.83540  24785615.89540
  -1201186.13200  21338689.52300   -887527.47740  21338694.15240
   2397236.42700  21678448.61700   1809071.06640  21678454.26640
  -1957234.54400  23280835.42200  -1414952.40540  23280841.65640
   2218053.51700  21557299.44500   1668400.56240  21557303.31340
   -560237.50100  21959605.27300   -410692.30140  21959609.24640
 96  9 10  1  2 30.0000000  0  6  1 14 15 22 25 29
   2985261.54300  24805384.39100   2191019.43640  24805388.96140
  -1234516.80800  21332346.97700   -913499.42140  21332351.72340
   2491875.63800  21696457.87500   1882815.87340  21696463.46540
  -2018872.07800  23269105.92200  -1462981.59840  23269111.48840
   2304818.28600  21573810.20300   1736009.45840  21573813.89540
   -573095.58500  21957158.35200   -420711.57040  21957162.54740
 96  9 10  1  3  0.0000000  0  6  1 14 15 22 25 29
   3089323.25200  24825186.15600   2272106.45640  24825190.42240
  -1267371.06200  21326094.97700   -939100.12940  21326099.73440
   2587165.18700  21714590.87500   1957067.43740  21714596.57040
  -2080195.67700  23257436.29700  -1510766.18540  23257442.64840
   2392125.35900  21590424.23400   1804040.93940  21590428.11340
   -585622.64900  21954774.71100   -430472.90640  21954778.73040
 96  9 10  1  3 30.0000000  0  6  1 14 15 22 25 29
   3193562.77700  24845022.42200   2353332.04340  24845026.65240
  -1299741.34400  21319934.94500   -964323.72340  21319939.63340
   2683095.56800  21732845.92200   2031818.35340  21732851.59440
  -2141196.57700  23245827.90600  -1558299.30640  23245833.61340
   2479966.59800  21607139.72700   1872488.64640  21607143.64140
   -597833.95300  21952451.05500   -439988.19240  21952454.86340
 96  9 10  1  4  0.0000000  0  6  1 14 15 22 25 29
   3297970.95400  24864890.18800   2434689.04540  24864895.98840
  -1331649.99700  21313862.89800   -989187.60440  21313867.71540
   2779645.72800  21751218.57800   2107052.21740  21751224.00440
  -2201881.75900  23234280.25800  -1605586.41140  23234286.10540
   2568331.92400  21623955.00800   1941344.73540  21623958.75840
   -609740.93700  21950185.00800   -449266.35240  21950189.05140
 96  9 10  1  4 30.0000000  0  6  1 14 15 22 25 29
   3402549.69800  24884791.43800   2516178.99640  24884796.80540
  -1363112.65300  21307875.74200  -1013703.95140  21307880.43040
   2876813.41600  21769709.15600   2182767.26440  21769714.48840
  -2262234.48700  23222795.70300  -1652614.46640  23222801.73840
   2657241.08100  21640874.10200   2010624.58740  21640878.19140
   -621344.94600  21947976.80500   -458308.42340  21947980.78940
 96  9 10  1  5  0.0000000  0  6  1 14 15 22 25 29
   3507279.13900  24904719.78100   2597786.30340  24904724.44540
  -1394134.90600  21301972.42200  -1037877.12640  21301977.27340
   2974580.45600  21788313.63300   2258949.34440  21788319.18840
  -2322259.09100  23211373.20300  -1699386.83140  23211378.52340
   2746662.84400  21657890.35200   2080303.87540  21657894.24240
   -632671.65200  21945821.34400   -467134.41340  21945825.29340
 96  9 10  1  5 30.0000000  0  6  1 14 15 22 25 29
   3612132.10800  24924673.24200   2679489.87140  24924677.32040
  -1424727.10300  21296150.97700  -1061715.19740  21296155.79340
   3072942.96300  21807031.38300   2335595.41840  21807037.11340
  -2381945.32400  23200015.41400  -1745895.55540  23200020.88740
   2836588.40800  21675002.82000   2150375.73440  21675006.53540
   -643716.91100  21943719.53900   -475741.09440  21943723.62940
 96  9 10  1  6  0.0000000  0  6  1 14 15 22 25 29
   3717068.95100  24944642.96100   2761258.81440  24944650.38340
  -1454907.02000  21290407.98400  -1085232.00440  21290412.69540
   3171883.94100  21825859.20300   2412692.25840  21825864.81640
  -2441302.32100  23188720.14100  -1792147.71040  23188725.69540
   2926998.31800  21692207.14800   2220825.01240  21692210.99240
   -654494.19500  21941668.82000   -484138.96440  21941672.94540
 96  9 10  1  6 30.0000000  0  6  1 14 15 22 25 29
   3822095.61900  24964628.23400   2843097.76940  24964633.00440
  -1484668.11800  21284744.69500  -1108422.46340  21284749.45340
   3271395.37900  21844795.68800   2490233.61140  21844801.30140
  -2500338.14800  23177485.93800  -1838149.60940  23177491.76240
   3017871.10500  21709499.84400   2291634.97140  21709503.58240
   -665012.72100  21939667.09400   -492335.21240  21939671.04340
 96  9 10  1  7  0.0000000  0  6  1 14 15 22 25 29
   3927233.15600  24984635.19500   2925023.14240  24984639.56640
  -1513996.24300  21279163.59400  -1131275.54640  21279168.34040
   3371478.67900  21863841.01600   2568220.56940  21863846.54740
  -2559061.32000  23166311.36700  -1883907.86440  23166317.49640
   3109210.01100  21726881.02300   2362808.13340  21726884.96140
   -675262.74500  21937716.61700   -500322.23440  21937720.68440
 96  9 10  1  7 30.0000000  0  6  1 14 15 22 25 29
   4032488.55200  25004663.93000   3007040.28440  25004670.49240
  -1542902.60100  21273662.93800  -1153799.97840  21273667.75440
   3472127.56500  21882993.82000   2646648.23940  21882999.43440
  -2617482.52500  23155193.75800  -1929430.84940  23155199.78140
   3201026.94700  21744352.94500   2434353.79740  21744356.66040
   -685246.20400  21935816.93800   -508101.54340  21935821.03940
 96  9 10  1  8  0.0000000  0  6  1 14 15 22 25 29
   4137882.37900  25024719.90600   3089165.37540  25024724.40640
  -1571394.40700  21268241.18000  -1176001.38240  21268245.73840
   3573334.70100  21902253.04700   2725510.90740  21902258.96540
  -2675607.40700  23144133.01600  -1974722.91340  23144138.75840
   3293326.81000  21761916.97700   2506275.75940  21761920.93840
   -694968.63900  21933966.59400   -515677.46040  21933970.54340
 96  9 10  1  8 30.0000000  0  5 14 15 22 25 29
  -1599458.67600  21262900.48400  -1197869.64040  21262905.09040
   3675102.84300  21921618.95300   2804810.71940  21921624.64840
  -2733427.36100  23133130.26600  -2019777.36640  23133135.66840
   3386114.26000  21779574.03100   2578577.66840  21779577.86340
   -704429.45300  21932166.25800   -523049.51340  21932170.10240
 96  9 10  1  9  0.0010000  0  5 14 15 22 25 29
  -1627116.97000  21257637.48900  -1219421.55840  21257642.15340
   3777410.49800  21941087.47400   2884530.92940  21941092.95840
  -2790959.65600  23122182.13800  -2064607.67740  23122188.36040
   3479358.49700  21797317.79400   2651235.50440  21797321.60340
   -713659.24500  21930409.83300   -530241.55140  21930413.97040
 96  9 10  1  9 30.0010000  0  5 14 15 22 25 29
  -1654360.15400  21252453.29400  -1240650.00640  21252457.99340
   3880256.20000  21960658.20800   2964670.40340  21960663.97440
  -2848187.22200  23111292.15300  -2109200.55240  23111298.38840
   3573044.92400  21815145.84100   2724237.91240  21815149.61440
   -722656.03500  21928697.87200   -537252.02940  21928701.84540
 96  9 10  1 10  0.0010000  0  5 14 15 22 25 29
  -1681172.71200  21247350.98900  -1261542.90540  21247355.57140
   3983646.95200  21980332.70000   3045234.58640  21980338.39640
  -2905090.90600  23100463.59100  -2153541.02340  23100469.61440
   3667167.08700  21833056.66900   2797579.85240  21833060.60640
   -731406.22900  21927032.92700   -544070.35240  21927036.97040
 96  9 10  1 10 30.0010000  0  5 14 15 22 25 29
  -1707546.47600  21242332.31000  -1282093.88740  21242336.97440
   4087576.65100  22000110.07500   3126218.72940  22000115.99340
  -2961682.57000  23089694.60600  -2197638.36640  23089699.97440
   3761701.02000  21851045.86400   2871242.65140  21851049.61440
   -739904.75900  21925415.62200   -550692.57740  21925419.48940
 96  9 10  1 11  0.0010000  0  5 14 15 22 25 29
  -1733482.72600  21237396.51300  -1302303.94140  21237401.16540
   4192043.93500  22019989.64600   3207621.76940  22019995.51740
  -3017969.47600  23078983.82500  -2241498.24540  23078989.22840
   3856646.39900  21869113.15300   2945226.05640  21869116.92740
   -748136.61400  21923849.10600   -557106.99840  21923853.16140
 96  9 10  1 11 30.0010000  0  5 14 15 22 25 29
  -1758982.93900  21232544.18500  -1322174.23140  21232548.84940
   4297037.87300  22039969.22400   3289435.19940  22039974.94240
  -3073941.05300  23068332.45000  -2285112.41240  23068338.45040
   3952013.36000  21887261.23900   3019537.97040  21887264.91940
   -756097.91600  21922334.12200   -563310.60240  21922338.20040
 96  9 10  1 12  0.0010000  0  5 14 15 22 25 29
  -1784059.18600  21227772.34900  -1341714.15540  21227777.13040
   4402535.81200  22060044.84900   3371641.34240  22060050.25140
  -3129604.32200  23057739.88000  -2328486.32340  23057745.44640
   4047788.29200  21905486.41100   3094167.78040  21905490.07940
   -763804.01500  21920867.59100   -569315.35140  21920871.59940
 96  9 10  1 12 30.0010000  0  5 14 15 22 25 29
  -1808690.82600  21223085.20000  -1360907.63440  21223089.84140
   4508542.02800  22080217.21600   3454243.55140  22080222.60640
  -3184953.18900  23047207.34900  -2371615.26940  23047212.61040
   4143983.77100  21923792.02100   3169125.28840  21923795.74740
   -771259.87100  21919448.84100   -575125.10240  21919452.96640
 96  9 10  1 13  0.0010000  0  5 14 15 22 25 29
  -1832867.55400  21218484.40300  -1379746.63640  21218489.11440
   4615051.83500  22100485.34100   3537238.17440  22100491.09540
  -3239965.88600  23036738.42700  -2414482.25240  23036744.57940
   4240613.78900  21942180.14600   3244421.39940  21942184.08340
   -778476.26200  21918075.75500   -580748.25140  21918079.83340
 96  9 10  1 13 30.0010000  0  5 14 15 22 25 29
  -1856587.55500  21213970.66900  -1398229.74840  21213975.29840
   4722062.05300  22120848.81700   3620622.71640  22120854.52440
  -3294628.82100  23026336.66100  -2457076.70540  23026342.54440
   4337676.21200  21960650.39600   3320054.44840  21960654.32140
   -785472.17300  21916744.56000   -586199.60440  21916748.57940
 96  9 10  1 14  0.0010000  0  5 14 15 22 25 29
  -1879867.20300  21209540.66900  -1416369.72040  21209545.29840
   4829558.03600  22141304.53600   3704385.78740  22141310.38440
  -3348978.95300  23015994.46600  -2499427.40240  23016000.58340
   4435151.54400  21979199.23900   3396009.25440  21979203.13040
   -792267.51300  21915451.42700   -591494.66240  21915455.36440
 96  9 10  1 14 30.0010000  0  5 14 15 22 25 29
  -1902712.25000  21205193.33300  -1434171.04840  21205198.03240
   4937533.86500  22161851.95000   3788522.75440  22161857.71640
  -3403027.80900  23005709.14600  -2541543.35540  23005714.72440
   4533034.56000  21997825.64600   3472281.71940  21997829.46640
   -798864.05200  21914196.07500   -596634.81440  21914199.90740
 96  9 10  1 15  0.0010000  0  5 14 15 22 25 29
  -1925150.98900  21200923.56000  -1451655.76940  21200928.32940
   5045980.09700  22182488.52100   3873026.27440  22182494.25140
  -3456783.80600  22995480.08300  -2583431.08840  22995485.97840
   4631314.51000  22016527.76300   3548863.48740  22016531.67740
   -805257.91900  21912979.45800   -601617.03540  21912983.40740
 96  9 10  1 15 30.0010000  0  5 14 15 22 25 29
  -1947191.00400  21196729.20800  -1468829.79640  21196733.94240
   5154908.31200  22203216.97400   3957905.37040  22203222.76340
  -3510233.74000  22985308.55200  -2625080.34940  22985314.24740
   4729997.07600  22035306.61400   3625758.98640  22035310.44640
   -811429.10100  21911805.20800   -606425.73440  21911809.11040
 96  9 10  1 16  0.0010000  0  5 14 15 22 25 29
  -1968836.39300  21192610.35600  -1485696.32040  21192615.06740
   5264303.25900  22224034.08300   4043148.14440  22224040.00140
  -3563385.70500  22975194.13000  -2666497.42140  22975200.03640
   4829063.87100  22054158.34100   3702953.88440  22054162.23140
   -817369.47200  21910674.51300   -611054.58740  21910678.42740
 96  9 10  1 16 30.0010000  0  5 14 15 22 25 29
  -1990082.07800  21188567.41900  -1502251.38940  21188572.06040
   5374164.96000  22244939.99700   4128754.62740  22244945.66940
  -3616210.14500  22965141.91100  -2707659.27540  22965148.18140
   4928505.18100  22073081.16900   3780440.61040  22073084.93140
   -823072.60800  21909589.31700   -615498.57440  21909593.23140
 96  9 10  1 17  0.0010000  0  5 14 15 22 25 29
  -2010936.90100  21184599.02800  -1518501.89240  21184603.71640
   5484481.72500  22265932.81000   4214715.70540  22265938.75140
  -3668702.82700  22955152.30200  -2748562.62340  22955157.62240
   5028299.52300  22092071.71600   3858202.42640  22092075.63040
   -828555.55400  21908545.83300   -619770.98840  21908549.71240
 96  9 10  1 17 30.0010000  0  5 14 15 22 25 29
  -2031405.24400  21180703.76300  -1534451.24140  21180708.47440
   5595232.94700  22287007.83300   4301015.31940  22287013.56340
  -3720873.13300  22945224.77800  -2789214.75940  22945230.98940
   5128427.26200  22111125.38000   3936224.03640  22111129.22440
   -833838.85400  21907540.43500   -623887.83240  21907544.36040
 96  9 10  1 18  0.0010000  0  5 14 15 22 25 29
  -2051451.02600  21176889.37200  -1550071.32040  21176894.02440
   5706434.28900  22308169.06700   4387665.67640  22308175.03240
  -3772712.40800  22935360.43500  -2829608.95340  22935365.87240
   5228905.46900  22130245.88000   4014518.73440  22130249.52440
   -838911.86600  21906575.27800   -627840.81340  21906578.92340
 96  9 10  1 18 30.0010000  0  5 14 15 22 25 29
  -2071085.98900  21173152.84100  -1565371.28140  21173157.58740
   5818079.95100  22329414.56700   4474662.25340  22329420.20440
  -3824230.41700  22925556.98100  -2869752.82240  22925562.52440
   5329738.51500  22149433.34100   4093089.92740  22149437.30240
   -843782.29200  21905648.42700   -631635.93940  21905652.34140
 96  9 10  1 19  0.0010000  0  5 14 15 22 25 29
  -2090308.34400  21169495.07500  -1580349.73340  21169499.82140
   5930166.13700  22350743.63000   4562002.10440  22350749.23140
  -3875425.05600  22915814.70000  -2909644.69740  22915819.79840
   5430940.51300  22168691.70800   4171948.62740  22168695.55240
   -848442.22400  21904761.63000   -635267.03740  21904765.50940
 96  9 10  1 19 30.0010000  0  5 14 15 22 25 29
  -2109118.62100  21165915.43500  -1595007.08540  21165920.12240
   6042682.80600  22372154.97400   4649677.38440  22372160.70440
  -3926304.53400  22906132.61400  -2949291.00940  22906137.93540
   5532517.59900  22188021.02800   4251099.59340  22188024.89640
   -852891.30900  21903915.00500   -638733.83640  21903918.95440
 96  9 10  1 20  0.0010000  0  5 14 15 22 25 29
  -2127518.79500  21162414.14600  -1609344.87740  21162418.85640
   6155611.61800  22393644.70800   4737673.82440  22393650.50940
  -3976885.65800  22896507.06000  -2988704.82140  22896512.35640
   5634454.66700  22207419.07500   4330531.06440  22207422.93140
   -857137.36100  21903106.84900   -642042.43640  21903110.64640
 96  9 10  1 20 30.0010000  0  5 14 15 22 25 29
  -2145485.35000  21158995.03600  -1623344.78540  21158999.85340
   6268968.51600  22415215.77100   4826003.82340  22415221.65340
  -4027130.11400  22886945.98900  -3027856.29340  22886951.50940
   5736767.53000  22226888.68500   4410255.36540  22226892.70440
   -861156.76200  21902341.99700   -645174.42340  21902345.94640
 96  9 10  1 21  0.0010000  0  5 14 15 22 25 29
  -2163014.27200  21155659.34100  -1637003.67840  21155664.15740
   6382739.99400  22436865.57500   4914656.88740  22436871.66940
  -4077040.43900  22877448.38800  -3066747.41340  22877454.39940
   5839428.35200  22246424.09100   4490250.79940  22246427.92340
   -864976.98700  21901615.08300   -648151.20940  21901618.86840
 96  9 10  1 21 30.0010000  0  5 14 15 22 25 29
  -2180115.55200  21152405.07500  -1650329.34740  21152409.77440
   6496903.40800  22458590.10600   5003615.35440  22458596.03640
  -4126643.25000  22868009.24700  -3105398.90040  22868014.79040
   5942406.32300  22266020.56000   4570493.36840  22266024.39240
   -868638.23900  21900918.27800   -651004.11840  21900922.16940
 96  9 10  1 22  0.0010000  0  5 14 15 22 25 29
  -2196761.48800  21149237.52800  -1663300.20240  21149242.29840
   6611477.60300  22480392.96600   5092893.90040  22480398.93140
  -4175911.99600  22858633.54400  -3143790.08840  22858639.05240
   6045706.35500  22285677.59900   4650986.89640  22285681.26740
   -872124.17100  21900254.95000   -653720.41640  21900258.60640
 96  9 10  1 22 30.0010000  0  6 14 15 18 22 25 29
  -2212964.92700  21146154.09100  -1675926.25240  21146158.84940
   6726458.41600  22502273.51300   5182489.30440  22502279.27840
    -35853.07210  25131651.15300
  -4224838.60400  22849323.18500  -3181914.67040  22849328.98540
   6149321.25600  22305394.71600   4731725.77340  22305398.51340
   -875447.98200  21899622.53600   -656310.38540  21899626.50940
 96  9 10  1 23  0.0010000  0  6 14 15 18 22 25 29
  -2228736.88600  21143152.77800  -1688216.08940  21143157.38440
   6841837.16200  22524229.20000   5272394.76840  22524234.91940
    -82555.56800  25122763.46600
  -4273432.79600  22840076.11400  -3219780.21840  22840081.64640
   6253250.16000  22325171.98900   4812709.32940  22325175.76340
   -878616.42100  21899019.56000   -658779.28540  21899023.60340
 96  9 10  1 23 30.0010000  0  6 14 15 18 22 25 29
  -2244081.52000  21140232.79400  -1700172.94440  21140237.48140
   6957613.35400  22546260.56700   5362609.94840  22546266.43840
   -129187.06100  25113890.86400     -8473.53150  25113895.17740
  -4321685.21300  22830893.98900  -3257379.46840  22830899.64940
   6357501.72000  22345010.60600   4893944.30340  22345014.29840
   -881606.49100  21898450.46600   -661109.19840  21898454.47440
 96  9 10  1 24  0.0010000  0  6 14 15 18 22 25 29
  -2259001.56100  21137393.77100  -1711798.95340  21137398.47040
   7073784.66200  22568367.43500   5453132.99740  22568373.54040
   -175750.79700  25105029.65300    -44756.89240  25105032.95840
  -4369594.59400  22821776.85600  -3294711.41040  22821782.34140
   6462078.21000  22364910.93500   4975432.47240  22364914.72040
   -884396.28700  21897919.58300   -663283.05640  21897923.42740
 96  9 10  1 24 30.0010000  0  6 14 15 18 22 25 29
  -2273513.05900  21134632.23100  -1723106.61540  21134636.84940
   7190340.71300  22590547.39600   5543955.85740  22590552.82140
   -222243.24500  25096182.66900    -80984.74340  25096189.52840
  -4417170.60700  22812723.51300  -3331783.58140  22812729.16140
   6566980.27100  22384872.95800   5057174.33540  22384876.59140
   -886986.05700  21897426.84900   -665301.04640  21897430.62240
 96  9 10  1 25  0.0010000  0  6 14 15 18 22 25 29
  -2287594.02400  21131952.74700  -1734078.79740  21131957.43540
   7307287.31100  22612801.51300   5635083.03140  22612806.86840
   -268656.54800  25087349.73900   -117150.90240  25087354.57940
  -4464404.81500  22803735.38000  -3368589.42240  22803740.66540
   6672211.40500  22404897.72400   5139172.61840  22404901.60340
   -889360.33800  21896975.01300   -667151.12740  21896978.98540
 96  9 10  1 25 30.0010000  0  6 14 15 18 22 25 29
  -2301256.02500  21129353.02100  -1744724.51140  21129357.60340
   7424602.77500  22635126.05200   5726497.64140  22635131.89940
   -315006.94200  25078528.95800   -153268.03340  25078534.73540
  -4511318.20000  22794807.65300  -3405145.26140  22794813.47840
   6777731.30300  22424977.61400   5221395.91440  22424981.55240
   -891540.02300  21896560.35600   -668849.57840  21896564.07140
 96  9 10  1 26  0.0010000  0  6 14 15 18 22 25 29
  -2314491.71300  21126834.23900  -1755038.03440  21126838.95040
   7542290.62500  22657521.25500   5818202.41540  22657526.89240
   -361288.79500  25069723.34100   -189331.76340  25069729.09540
  -4557909.80800  22785941.66100  -3441450.37640  22785947.39240
   6883544.39800  22445113.17700   5303847.67040  22445117.09140
   -893518.29900  21896183.84100   -670391.08340  21896187.70840
 96  9 10  1 26 30.0010000  0  6 14 15 18 22 25 29
  -2327294.05500  21124398.08300  -1765013.88640  21124402.77140
   7660349.58900  22679987.33300   5910196.38140  22679992.59540
   -407502.68200  25060928.86400
  -4604159.02500  22777140.57500  -3477488.69140  22777146.49340
   6989650.88400  22465304.45000   5386528.04040  22465308.55240
   -895303.38700  21895844.01300   -671782.05440  21895847.91540
 96  9 10  1 27  0.0010000  0  6 14 15 18 22 25 29
  -2339653.79400  21122046.13000  -1774644.84640  21122050.72440
   7778778.32900  22702523.23100   6002478.45740  22702529.06740
   -453645.11400  25052148.54400
  -4650055.50200  22768406.75500  -3513252.12940  22768412.57940
   7096046.84800  22485550.91100   5469433.98440  22485554.81340
   -896900.91300  21895540.02100   -673026.86340  21895543.85340
 96  9 10  1 27 30.0010000  0  6 14 15 18 22 25 29
  -2351592.60900  21119774.38800  -1783947.81840  21119778.93540
   7897566.70600  22725128.41900   6095040.79140  22725134.52440
   -499719.70500  25043378.93500
  -4695598.70300  22759740.14600  -3548740.30040  22759745.97040
   7202737.59200  22505853.64600   5552569.62040  22505857.31340
   -898312.25800  21895271.39600   -674126.61040  21895275.23940
 96  9 10  1 28  0.0010000  0  6 14 15 18 22 25 29
  -2363099.71800  21117584.45000  -1792914.39540  21117589.09140
   8016719.95300  22747802.08300   6187887.43140  22747807.93140
   -545727.64500  25034625.04400    -31068.11250  25034631.50140
  -4740762.13000  22751145.79400  -3583932.54340  22751151.64240
   7309754.14900  22526218.12200   5635959.13940  22526221.82540
   -899524.85800  21895040.89600   -675071.48740  21895044.41140
 96  9 10  1 28 30.0010000  0  6 14 15 18 22 25 29
  -2374158.73500  21115480.05200  -1801531.80440  21115484.70440
   8136238.06000  22770545.84100   6281018.37340  22770551.98140
   -591666.46300  25025882.95800    -66864.56940  25025887.18840
  -4785525.58600  22742627.60600  -3618813.12240  22742633.78240
   7417101.18400  22546645.41100   5719606.17440  22546649.12640
   -900550.18000  21894845.90300   -675870.44140  21894849.64240
 96  9 10  1 29  0.0010000  0  6 14 15 18 22 25 29
  -2384791.88000  21113456.41900  -1809817.36540  21113461.06040
   8256097.42100  22793354.10600   6374415.23540  22793359.80240
   -637549.75300  25017151.48100   -102617.70540  25017161.03640
  -4829907.91000  22734182.07500  -3653396.71540  22734187.48940
   7524747.41200  22567129.89600   5803486.34440  22567133.82140
   -901419.10900  21894680.34900   -676547.53040  21894684.18140
 96  9 10  1 29 30.0010000  0  6 14 15 18 22 25 29
  -2394992.61100  21111515.59900  -1817765.97840  21111520.32140
   8376301.47200  22816228.41100   6468080.68440  22816234.07140
   -683371.51700  25008432.31700   -138322.94640  25008437.01740
  -4873889.51500  22725812.22400  -3687668.06640  22725817.59140
   7632697.86400  22587672.20000   5887603.56740  22587675.79840
   -902118.04300  21894547.47400   -677092.14840  21894551.30640
 96  9 10  1 30  0.0010000  0  6 14 15 18 22 25 29
  -2404740.75900  21109660.41100  -1825361.93140  21109665.14640
   8496844.09100  22839167.03600   6562009.95140  22839172.74340
   -729129.18600  24999724.20800   -173978.21040  24999730.16140
  -4917476.53300  22717517.99700  -3721631.93240  22717523.44640
   7740941.09200  22608270.13800   5971948.93040  22608273.85340
   -902656.43400  21894444.80200   -677511.66940  21894448.59940
 96  9 10  1 30 30.0010000  0  6 14 15 18 22 25 29
  -2414027.82700  21107893.18500  -1832598.59740  21107897.79040
   8617732.58600  22862171.05200   6656208.73340  22862176.89940
   -774801.89400  24991033.05200   -209567.29140  24991037.75140
  -4960666.22800  22709299.47400  -3755286.19940  22709305.00540
   7849467.70700  22628922.31700   6056515.11740  22628926.32540
   -903024.91900  21894374.63800   -677798.79340  21894378.38840
 96  9 10  1 31  0.0010000  0  6 14 15 18 22 25 29
  -2422873.53700  21106209.97400  -1839491.34940  21106214.66140
   8738953.75100  22885239.02800   6750666.73540  22885244.73540
   -820406.03000  24982355.63800   -245102.95240  24982361.56740
  -5003477.10300  22701152.57500  -3788645.26940  22701158.47040
   7958261.83000  22649625.15300   6141289.74440  22649628.75140
   -903216.07400  21894338.32500   -677947.74240  21894342.11040
 96  9 10  1 31 30.0010000  0  6 14 15 18 22 25 29
  -2431271.94600  21104611.76300  -1846035.55540  21104616.35640
   8860502.28500  22908369.02100   6845379.82840  22908374.85640
   -865947.24600  24973688.68500   -280589.53940  24973693.70040
  -5045928.03100  22693074.78600  -3821723.87040  22693080.31740
   8067328.53900  22670379.60600   6226276.77940  22670383.29840
   -903217.46700  21894338.04400   -677948.82040  21894341.85340
 96  9 10  1 32  0.0010000  0  6 14 15 18 22 25 29
  -2439203.79400  21103102.43500  -1852216.21040  21103107.14640
   8982381.46900  22931561.79400   6940350.58540  22931567.84140
   -911425.08100  24965035.64600   -316026.77240  24965041.35340
  -5088022.31600  22685064.29400  -3854524.58140  22685069.75540
   8176666.72200  22691186.21600   6311475.34840  22691189.90740
   -903029.17800  21894373.73100   -677802.09240  21894377.57540
 96  9 10  1 32 30.0010000  0  6 14 15 18 22 25 29
  -2446684.32500  21101678.85600  -1858045.18540  21101683.55640
   9104587.32200  22954816.96600   7035575.86840  22954823.15340
   -956846.93000  24956391.53600   -351420.37940  24956398.79440
  -5129747.03800  22677124.17700  -3887037.31340  22677129.83740
   8286265.50600  22712042.06000   6396876.98740  22712045.83340
   -902652.94200  21894445.34900   -677508.91840  21894449.13440
 96  9 10  1 33  0.0020000  0  6 14 15 18 22 25 29
  -2453722.76800  21100339.36900  -1863529.67740  21100344.02140
   9227106.80600  22978131.65800   7131045.55240  22978137.30740
  -1002226.60800  24947756.49400   -386781.10940  24947760.61940
  -5171114.16500  22669252.13500  -3919271.40640  22669257.53740
   8396121.67000  22732947.02500   6482479.18240  22732950.84640
   -902103.57100  21894550.13500   -677080.83140  21894553.96740
 96  9 10  1 33 30.0020000  0  6 14 15 18 22 25 29
  -2460288.31700  21099089.95500  -1868645.67640  21099094.51440
   9349948.46600  23001507.44700   7226766.28840  23001513.17840
  -1047532.34800  24939134.75200   -422084.23740  24939139.97940
  -5212094.56500  22661453.81400  -3951204.14740  22661459.65040
   8506243.52800  22753902.45500   6568288.40940  22753906.65040
   -901373.01700  21894689.01800   -676511.55840  21894692.77940
 96  9 10  1 34  0.0020000  0  6 14 15 18 22 25 29
  -2466405.72800  21097926.03300  -1873412.48240  21097930.62740
   9473093.97200  23024941.45500   7322723.77540  23024947.30340
  -1092786.90400  24930521.92400   -457347.49640  24930527.30340
  -5252695.52400  22653727.72100  -3982841.22540  22653733.43940
   8616609.69900  22774904.52500   6654288.01140  22774908.10040
   -900481.06000  21894858.53300   -675816.52140  21894862.28340
 96  9 10  1 34 30.0020000  0  6 14 15 18 22 25 29
  -2472079.96300  21096846.15000  -1877833.95440  21096850.79140
   9596546.84100  23048433.51000   7418920.76040  23048439.76840
  -1137973.34000  24921923.19700   -492557.65440  24921928.27140
  -5292912.96600  22646074.68200  -4014179.44740  22646080.20140
   8727238.68300  22795956.44700   6740492.40340  22795960.47940
   -899412.53600  21895061.96300   -674983.89640  21895065.74840
 96  9 10  1 35  0.0020000  0  6 14 15 18 22 25 29
  -2477311.32500  21095850.72100  -1881910.33240  21095855.19740
   9720299.05000  23071983.22900   7515351.01940  23071988.56140
  -1183085.33900  24913339.76800   -527709.77140  24913346.26040
  -5332757.96800  22638492.49400  -4045227.46740  22638497.75640
   8838135.15600  22817059.61100   6826905.23140  22817063.60740
   -898171.36700  21895298.09600   -674016.73840  21895301.97540
 96  9 10  1 35 30.0020000  0  6 14 15 18 22 25 29
  -2482092.60700  21094940.75200  -1885636.00140  21094945.14640
   9844352.21700  23095589.70500   7612015.77940  23095595.56440
  -1228127.08500  24904768.18900   -562807.17040  24904773.88540
  -5372216.29200  22630983.65000  -4075974.17540  22630989.06440
   8949301.33400  22838213.84600   6913528.20940  22838217.64340
   -896746.19300  21895569.33800   -672906.20240  21895573.07640
 96  9 10  1 36  0.0020000  0  6 14 15 18 22 25 29
  -2486437.40600  21094114.08000  -1889021.54940  21094118.65040
   9968690.03600  23119250.63500   7708902.33840  23119256.45940
  -1273111.76700  24896208.01800   -597860.14840  24896214.15840
  -5411298.10000  22623546.81400  -4106427.49440  22623552.24040
   9060733.95400  22859418.75200   7000358.80740  22859422.52540
   -895134.25100  21895876.11100   -671650.13740  21895879.90840
 96  9 10  1 36 30.0020000  0  6 14 15 18 22 25 29
  -2490330.02100  21093373.32200  -1892054.74740  21093377.92840
  10093313.86100  23142965.59600   7806011.76440  23142971.17440
  -1318027.76200  24887660.03300   -632859.54940  24887665.92840
  -5449981.93700  22616185.45500  -4136570.70540  22616190.70540
   9172428.80500  22880673.51000   7087393.74540  22880677.36540
   -893333.99700  21896218.72100   -670247.32640  21896222.45940
 96  9 10  1 37  0.0020000  0  6 14 15 18 22 25 29
  -2493747.99800  21092722.84600  -1894718.09940  21092727.49840
  10218226.77000  23166735.67400   7903346.43440  23166741.28740
  -1362874.23600  24879126.91600   -667804.83540  24879131.68640
  -5488246.56200  22608903.77500  -4166387.26540  22608909.35440
   9284376.22300  22901976.28300   7174625.47840  22901979.99840
   -891348.36100  21896596.56400   -668700.06440  21896600.33840
 96  9 10  1 37 30.0020000  0  6 14 15 18 22 25 29
  -2496677.19000  21092165.47900  -1897000.57940  21092170.11940
  10343424.88600  23190560.28300   8000903.36140  23190566.26040
  -1407659.61000  24870603.98600   -702702.50040  24870608.43940
  -5526088.23400  22601702.91600  -4195874.23940  22601708.27140
   9396559.78700  22923324.43200   7262041.23540  22923328.55740
   -889179.57800  21897009.15000   -667010.08640  21897012.90040
 96  9 10  1 38  0.0020000  0  6 14 15 18 22 25 29
  -2499125.18600  21091699.77500  -1898908.10140  21091704.29940
  10468892.66100  23214436.15800   8098670.40340  23214442.19340
  -1452386.98900  24862092.57200   -737554.95240  24862098.37340
  -5563521.52100  22594579.39300  -4225043.00640  22594584.80740
   9508960.80800  22944713.11900   7349626.43040  22944717.20940
   -886858.25100  21897450.94700   -665201.24740  21897454.89640
 96  9 10  1 38 30.0020000  0  6 14 15 18 22 25 29
  -2501066.39600  21091330.22100  -1900420.72440  21091334.80340
  10594649.52900  23238366.53300   8196662.70740  23238372.48640
  -1497034.22100  24853595.71300   -772344.94340  24853603.10040
  -5600516.26800  22587539.51000  -4253870.03540  22587545.01840
   9621585.61800  22966145.25200   7437386.00140  22966149.10740
   -884389.53100  21897920.59600   -663277.55640  21897924.47540
 96  9 10  1 39  0.0020000  0  6 14 15 18 22 25 29
  -2502528.01000  21091052.22100  -1901559.63640  21091056.75640
  10720674.90900  23262348.72900   8294864.24340  23262354.89340
  -1541623.61000  24845111.19700   -807089.88940  24845116.52940
  -5637097.04200  22580578.61900  -4282374.49440  22580583.97540
   9734427.33700  22987618.29900   7525314.60540  22987622.11940
   -881789.92000  21898415.36900   -661251.86740  21898419.13140
 96  9 10  1 39 30.0020000  0  6 14 15 18 22 25 29
  -2503523.84000  21090862.58000  -1902335.60140  21090867.08040
  10846961.94600  23286380.28300   8393269.66340  23286385.79140
  -1586156.02700  24836636.83000   -841790.47140  24836642.51440
  -5673262.75300  22573696.19700  -4310555.52940  22573701.54140
   9847493.23600  23009134.09600   7613417.88740  23009137.86940
   -879058.56000  21898935.20500   -659123.51640  21898938.94340
 96  9 10  1 40  0.0020000  0  6 14 15 18 22 25 29
  -2504048.04400  21090762.99400  -1902744.06840  21090767.51840
  10973519.30400  23310463.23600   8491885.72840  23310469.28340
  -1630620.48600  24828176.06400   -876438.07740  24828181.30340
  -5708996.44400  22566896.36900  -4338399.92440  22566901.71340
   9960806.86000  23030696.99400   7701714.20540  23030700.97940
   -876170.30700  21899485.00200   -656872.91140  21899488.91640
 96  9 10  1 40 30.0020000  0  6 14 15 18 22 25 29
  -2504118.76700  21090749.42400  -1902799.17740  21090753.92440
  11100331.72900  23334594.96300   8590700.54040  23334600.86940
  -1675036.44200  24819723.29900   -911047.88040  24819729.97940
  -5744298.76700  22560178.40000  -4365908.20440  22560183.56840
  10074355.80500  23052304.45500   7790193.89540  23052308.19340
   -873116.44700  21900066.00200   -654493.26840  21900069.91640
 96  9 10  1 41  0.0020000  0  6 14 15 18 22 25 29
  -2503728.92300  21090823.57200  -1902495.39940  21090828.08440
  11227404.83400  23358776.43900   8689718.49240  23358782.38140
  -1719401.89500  24811280.89300   -945618.28540  24811285.79140
  -5779163.95800  22553544.06400  -4393075.83940  22553549.50240
  10188157.03200  23073960.36900   7878870.15840  23073964.55340
   -869866.18700  21900684.44700   -651960.58240  21900688.22140
 96  9 10  1 41 30.0020000  0  6 14 15 18 22 25 29
  -2502879.44700  21090984.95500  -1901833.46940  21090989.56140
  11354722.93800  23383004.48600   8788927.33240  23383010.60440
  -1763729.22100  24802845.79100   -980159.07740  24802850.63140
  -5813605.08000  22546989.72100  -4419913.04640  22546995.36940
  10302186.92100  23095659.07200   7967724.61240  23095662.88140
   -866427.52600  21901338.72100   -649281.08840  21901342.61140
 96  9 10  1 42  0.0020000  0  6 14 15 18 22 25 29
  -2501561.85700  21091235.71300  -1900806.77440  21091240.35440
  11482291.57300  23407279.87700   8888331.40040  23407285.71340
  -1808007.89900  24794420.76000  -1014661.88740  24794426.91240
  -5847621.04800  22540516.86100  -4446418.95240  22540522.69740
  10416437.12600  23117400.54900   8056750.73540  23117404.48640
   -862788.61200  21902031.13500   -646445.55440  21902034.99040
 96  9 10  1 42 30.0020000  0  6 14 15 18 22 25 29
  -2499781.88700  21091574.45500  -1899419.78640  21091579.03740
  11610102.21500  23431601.49400   8987924.05140  23431607.67040
  -1852242.96500  24786002.72900  -1049130.75840  24786007.05340
  -5881215.99500  22534123.60400  -4472596.80040  22534128.90040
  10530890.50200  23139179.96300   8145935.18240  23139184.25240
   -858976.04700  21902756.68200   -643474.71040  21902760.44340
 96  9 10  1 43  0.0020000  0  6 14 15 18 22 25 29
  -2497527.05300  21092003.67400  -1897662.77140  21092008.17440
  11738151.36000  23455968.52500   9087702.54040  23455974.42040
  -1896440.99900  24777591.80700  -1083570.73540  24777595.86140
  -5914396.70900  22527809.83000  -4498451.86040  22527815.02140
  10645547.42100  23160998.72900   8235278.23540  23161002.58440
   -855005.37500  21903512.33800   -640380.67040  21903516.06440
 96  9 10  1 43 30.0020000  0  6 14 15 18 22 25 29
  -2494799.12600  21092522.68200  -1895537.11440  21092527.31140
  11866430.89700  23480379.34600   9187660.55740  23480385.08840
  -1940605.47000  24769187.82200  -1117984.59740  24769195.01040
  -5947153.61200  22521576.37700  -4523976.68540  22521581.79140
  10760395.83200  23182853.68200   8324770.48040  23182857.94740
   -850890.25900  21904295.32200   -637174.06840  21904299.07240
 96  9 10  1 44  0.0020000  0  6 14 15 18 22 25 29
  -2491603.23700  21093131.02500  -1893046.81340  21093135.61940
  11994924.20900  23504830.58000   9287785.14940  23504836.41640
  -1984743.79000  24760787.65000  -1152378.07540  24760794.66240
  -5979484.82000  22515424.10400  -4549169.79740  22515429.52940
  10875418.11600  23204741.72900   8414398.24140  23204745.81840
   -846653.98800  21905101.36100   -633873.06140  21905105.08840
 96  9 10  1 44 30.0020000  0  6 14 15 18 22 25 29
  -2487921.47300  21093831.58000  -1890177.90740  21093836.17440
  12123633.23100  23529323.32200   9388077.81740  23529329.32240
  -2028852.77900  24752394.61100  -1186748.69740  24752400.02540
  -6011375.88800  22509355.17400  -4574019.94240  22509360.52940
  10990632.06400  23226666.01000   8504175.33640  23226669.59640
   -842291.67700  21905931.58000   -630473.84740  21905935.21340
 96  9 10  1 45  0.0020000  0  6 14 15 18 22 25 29
  -2483744.70600  21094626.40800  -1886923.28840  21094630.86140
  12252566.15900  23553858.39300   9488544.96840  23553864.63940
  -2072913.07800  24744010.72900  -1221081.35840  24744015.26440
  -6042812.62200  22503373.06400  -4598516.05640  22503378.43240
  11106051.62400  23248629.79900   8594112.64740  23248633.94740
   -837770.54500  21906791.75200   -626950.87640  21906795.49040
 96  9 10  1 45 30.0020000  0  6 14 15 18 22 25 29
  -2479085.55100  21095512.88500  -1883292.78440  21095517.42040
  12381714.50000  23578434.64300   9589179.97540  23578440.86540
  -2116900.05500  24735640.22100  -1255356.91640  24735645.64640
  -6073798.74500  22497476.52500  -4622661.05840  22497481.85740
  11221662.33300  23270629.58000   8684198.90040  23270633.84640
   -833079.40000  21907684.44700   -623295.43040  21907688.17440
 96  9 10  1 46  0.0020000  0  6 14 15 18 22 25 29
  -2473932.74200  21096493.55700  -1879277.60840  21096498.04540
  12511082.58500  23603052.54100   9689986.22140  23603058.43640
  -2160809.11800  24727284.15800  -1289571.75740  24727288.95140
  -6104346.91000  22491663.18200  -4646464.77840  22491668.46740
  11337477.07000  23292668.59600   8774444.14340  23292672.65040
   -828205.46600  21908612.05700   -619497.55440  21908615.72540
 96  9 10  1 46 30.0020000  0  6 14 15 18 22 25 29
  -2468309.87200  21097563.64300  -1874896.15840  21097568.24840
  12640657.66300  23627709.99400   9790953.74640  23627716.00640
  -2204659.67100  24718939.27500  -1323740.99840  24718945.32240
  -6134478.29600  22485929.49400  -4669943.74340  22485934.73240
  11453496.41600  23314746.24400   8864848.83140  23314750.01840
   -823154.63600  21909573.19700   -615561.82940  21909576.87740
 96  9 10  1 47  0.0020000  0  6 14 15 18 22 25 29
  -2462215.89300  21098723.12700  -1870147.60940  21098727.72140
  12770446.30200  23652407.88500   9892087.68940  23652413.74440
  -2248443.80600  24710607.76000  -1357858.49140  24710613.37340
  -6164176.49200  22480277.89300  -4693085.15640  22480283.21340
  11569715.26400  23336862.12700   8955408.96140  23336866.25240
   -817917.61700  21910569.92400   -611481.03240  21910573.51040
 96  9 10  1 47 30.0020000  0  6 14 15 18 22 25 29
  -2455655.88800  21099971.44700  -1865035.92540  21099976.11140
  12900425.68700  23677142.43200   9993370.25340  23677148.64340
  -2292197.78000  24702281.75200  -1391952.48140  24702289.10440
  -6193461.07000  22474705.39300  -4715904.27240  22474710.79540
  11686109.91700  23359011.13500   9046106.08240  23359015.40040
   -812533.40500  21911594.43900   -607285.53440  21911598.03740
 96  9 10  1 48  0.0020000  0  6 14 15 18 22 25 29
  -2448617.93300  21101310.83000  -1859551.80640  21101315.44740
  13030600.53300  23701913.80700  10094805.12240  23701919.73640
  -2335929.21700  24693959.85400  -1426028.89640  24693966.53340
  -6222316.63800  22469214.33800  -4738389.09640  22469219.52940
  11802690.05300  23381195.88500   9136947.74240  23381199.77540
   -807011.69700  21912645.07200   -602982.89440  21912648.71740
 96  9 10  1 48 30.0020000  0  6 14 15 18 22 25 29
  -2441106.45600  21102739.90800  -1853698.70640  21102744.56140
  13160967.47500  23726721.63500  10196389.68340  23726727.60040
  -2379619.79100  24685645.31400  -1460073.47340  24685650.95140
  -6250718.48800  22463809.50200  -4760520.36540  22463814.64640
  11919443.54800  23403413.15800   9227924.47140  23403417.36540
   -801350.94200  21913722.09600   -598571.90840  21913725.72940
 96  9 10  1 49  0.0020000  0  6 14 15 18 22 25 29
  -2433112.47000  21104261.43200  -1847469.62740  21104265.89640
  13291519.66100  23751564.93200  10298118.59640  23751571.20140
  -2423273.96400  24677338.63500  -1494089.69240  24677343.46340
  -6278662.66200  22458492.12700  -4782295.00540  22458497.15440
  12036358.77200  23425661.47900   9319027.24340  23425665.80340
   -795553.42900  21914825.58800   -594054.35640  21914829.20940
 96  9 10  1 49 30.0020000  0  6 14 15 18 22 25 29
  -2424617.91400  21105877.86100  -1840850.49040  21105882.47940
  13422258.09700  23776443.68900  10399992.64540  23776449.70140
  -2466878.20800  24669040.67400  -1528067.01740  24669045.23240
  -6306142.17200  22453262.74400  -4803707.57640  22453268.12340
  12153452.82000  23447943.81400   9410269.34140  23447948.39640
   -789608.12000  21915956.81400   -589421.63940  21915960.36540
 96  9 10  1 50  0.0020000  0  6 14 15 18 22 25 29
  -2415634.09200  21107587.61900  -1833850.10840  21107592.22540
  13553177.20500  23801356.97100  10502007.46840  23801363.34640
  -2510429.11100  24660753.61100  -1562002.75340  24660759.33040
  -6333148.47300  22448123.61100  -4824751.42040  22448128.79140
  12270730.67100  23470261.08000   9501654.66240  23470265.07640
   -783487.89500  21917121.51800   -584652.62440  21917125.15040
 96  9 10  1 50 30.0020000  0  6 14 15 18 22 25 29
  -2406155.37600  21109391.20500  -1826464.09640  21109395.78740
  13684273.97300  23826303.92400  10604160.73540  23826309.86540
  -2553943.96500  24652472.80700  -1595910.37340  24652478.11540
  -6359686.55300  22443073.38500  -4845430.40640  22443078.79940
  12388192.01400  23492612.95500   9593182.97840  23492616.69340
   -777173.79700  21918323.06400   -579732.53840  21918326.80340
 96  9 10  1 51  0.0020000  0  6 14 15 18 22 25 29
  -2396172.31400  21111290.90000  -1818685.08340  21111295.40040
  13815541.00900  23851283.14300  10706446.66040  23851289.30740
  -2597443.52700  24644195.70500  -1629806.09840  24644201.85740
  -6385769.93800  22438110.04900  -4865755.09140  22438115.02940
  12505833.91500  23514999.85400   9684851.97440  23515003.35740
   -770670.36100  21919560.43200   -574664.91640  21919564.08840
 96  9 10  1 51 30.0020000  0  6 14 15 18 22 25 29
  -2385689.29800  21113285.76000  -1810516.49340  21113290.37740
  13946971.89000  23876293.88500  10808860.27240  23876300.50640
  -2640912.86700  24635923.67400  -1663678.27140  24635929.07640
  -6411398.13100  22433233.20500  -4885725.07740  22433238.22140
  12623644.12400  23537418.29900   9776652.11940  23537422.45940
   -763972.01000  21920835.20500   -569445.41640  21920838.95540
 96  9 10  1 52  0.0020000  0  6 14 15 18 22 25 29
  -2374724.42400  21115372.31400  -1801972.43340  21115376.92040
  14078550.69800  23901332.47100  10911389.14840  23901338.45940
  -2684369.22000  24627653.54100  -1697540.35040  24627659.58840
  -6436596.40000  22428437.94700  -4905360.06640  22428443.04540
  12741591.55700  23559862.91600   9868559.18940  23559866.68940
   -757102.62800  21922142.50200   -564092.64340  21922146.22940
 96  9 10  1 52 30.0020000  0  6 14 15 18 22 25 29
  -2363251.84700  21117555.27500  -1793032.76240  21117559.85740
  14210296.48000  23926402.74400  11014048.12640  23926409.35440
  -2727775.79000  24619393.17400  -1731363.61640  24619397.82640
  -6461342.51300  22423729.01000  -4924642.72040  22423734.07240
  12859685.66000  23582335.39300   9960580.55240  23582339.15440
   -750068.60200  21923480.90000   -558611.57640  21923484.49840
 96  9 10  1 53  0.0020000  0  6 14 15 18 22 25 29
  -2351265.79800  21119836.40000  -1783692.98040  21119840.94740
  14342218.63300  23951506.93200  11116844.55440  23951513.37740
  -2771093.27000  24611150.31400  -1765117.44140  24611155.81140
  -6485602.22500  22419112.49400  -4943546.34940  22419117.49840
  12977933.27200  23604836.80700  10052721.54240  23604841.24840
   -742866.87600  21924851.36900   -552999.83340  21924855.14340
 96  9 10  1 53 30.0020000  0  6 14 15 18 22 25 29
  -2338780.10700  21122212.33800  -1773963.86740  21122216.90840
  14474304.95500  23976642.08800  11219768.88840  23976648.14640
  -2814334.15000  24602921.76800  -1798811.58940  24602928.40040
  -6509375.84500  22414588.39300  -4962071.21440  22414593.57240
  13096325.61400  23627366.44700  10144975.30840  23627370.66640
   -735510.92800  21926251.07200   -547267.91940  21926254.82240
 96  9 10  1 54  0.0020000  0  6 14 15 18 22 25 29
  -2325807.66300  21124680.90000  -1763855.46540  21124685.50640
  14606536.98800  24001805.11900  11322806.76140  24001811.02540
  -2857528.62600  24594702.69700  -1832469.57840  24594707.99440
  -6532666.27500  22410156.40000  -4980219.56340  22410161.47540
  13214853.70400  23649921.16600  10237334.83940  23649925.24440
   -728030.12200  21927674.80700   -541438.71540  21927678.52140
 96  9 10  1 54 30.0020000  0  6 14 15 18 22 25 29
  -2312338.15400  21127244.00200  -1753359.74440  21127248.57240
  14738919.02700  24026996.54900  11425961.51540  24027002.70140
  -2900672.38300  24586491.86900  -1866088.02040  24586497.83440
  -6555439.90800  22405822.54100  -4997965.21840  22405827.56840
  13333538.42300  23672506.57200  10329816.41740  23672510.79140
   -720413.33600  21929124.07200   -535503.55340  21929127.68240
 96  9 10  1 55  0.0020000  0  6 14 15 18 22 25 29
  -2298377.69300  21129900.55700  -1742481.45940  21129905.16240
  14871436.51100  24052213.87700  11529221.84540  24052220.27540
  -2943796.21800  24578286.33000  -1899690.99740  24578289.92840
  -6577706.74000  22401585.50200  -5015315.95640  22401590.60040
  13452371.26300  23695119.71300  10422413.43840  23695123.63940
   -712661.69100  21930599.38500   -529463.30240  21930602.99440
 96  9 10  1 55 30.0020000  0  6 14 15 18 22 25 29
  -2283914.50600  21132652.90800  -1731211.44140  21132657.45540
  15004091.10700  24077457.33000  11632589.00240  24077463.38940
  -2986913.84800  24570081.46300  -1933289.06740  24570086.22140
  -6599476.51400  22397442.88500  -5032279.38340  22397447.99440
  13571362.41400  23717763.03300  10515133.80540  23717767.38140
   -704780.25000  21932099.01800   -523321.91440  21932102.76840
 96  9 10  1 56  0.0030000  0  6 14 15 18 22 25 29
  -2268943.85300  21135501.81900  -1719545.99540  21135506.30840
  15136885.98400  24102727.37400  11736065.45840  24102733.09340
  -3030018.08400  24561879.17100  -1966876.75440  24561883.40140
  -6620750.08700  22393394.39000  -5048856.15240  22393399.39440
  13690514.87600  23740436.89700  10607979.85940  23740440.97640
   -696764.60900  21933624.26500   -517075.95340  21933627.87440
 96  9 10  1 56 30.0030000  0  6 14 15 18 22 25 29
  -2253481.47500  21138444.00700  -1707497.39240  21138448.57740
  15269809.48700  24128022.13200  11839642.15240  24128028.00340
  -3073106.14200  24553678.75700  -2000451.83540  24553684.30040
  -6641541.50000  22389438.14700  -5065057.21940  22389443.25740
  13809817.00500  23763139.29600  10700942.55640  23763143.06940
   -688616.09600  21935174.82700   -510726.45140  21935178.44840
 96  9 10  1 57  0.0030000  0  6 14 15 18 22 25 29
  -2237534.69600  21141478.71000  -1695071.33540  21141483.19840
  15402851.49800  24153338.80400  11943311.18440  24153345.09740
  -3116190.86700  24545480.61600  -2034024.31240  24545485.93740
  -6661876.51400  22385568.45200  -5080902.64640  22385573.45640
  13929246.44100  23785866.04600  10794004.43040  23785870.31240
   -680337.81900  21936750.24900   -504275.84240  21936753.85840
 96  9 10  1 57 30.0030000  0  6 14 15 18 22 25 29
  -2221082.51700  21144609.41300  -1682251.46040  21144613.99540
  15536022.87000  24178680.74100  12047081.02240  24178687.60140
  -3159247.03800  24537286.99100  -2067574.54340  24537293.06240
  -6681739.94000  22381788.35100  -5096380.60340  22381793.06240
  14048816.36300  23808619.31200  10887175.78740  23808622.73340
   -671912.60800  21938353.54600   -497710.73340  21938357.24940
 96  9 10  1 58  0.0030000  0  6 14 15 18 22 25 29
  -2204120.15900  21147837.10100  -1669034.03640  21147841.69440
  15669319.56100  24204045.99100  12150948.48240  24204052.49540
  -3202259.81400  24529102.18700  -2101090.95740  24529107.90540
  -6701122.12500  22378100.02200  -5111483.57140  22378104.95640
  14168525.10400  23831399.24100  10980455.31740  23831403.71840
   -663322.22600  21939988.10100   -491016.91940  21939991.65140
 96  9 10  1 58 30.0030000  0  6 14 15 18 22 25 29
  -2186655.68500  21151160.56200  -1655425.35740  21151165.19040
  15802722.82800  24229432.10800  12254899.00840  24229438.19040
  -3245233.71000  24520924.46000  -2134577.07240  24520929.07740
  -6720022.67500  22374503.10800  -5126211.23740  22374508.04240
  14288355.40300  23854202.21800  11073829.55440  23854206.03840
   -654570.31600  21941653.64000   -484197.23640  21941657.22640
 96  9 10  1 59  0.0030000  0  6 14 15 18 22 25 29
  -2168640.77700  21154588.60800  -1641387.77040  21154593.07340
  15936242.02700  24254839.99100  12358939.85240  24254846.64740
  -3288148.93300  24512757.92100  -2168017.47240  24512763.28840
  -6738409.73000  22371004.56200  -5140538.77540  22371009.65940
  14408323.21300  23877031.69400  11167310.96340  23877036.14740
   -645631.91900  21943354.40500   -477232.24740  21943358.14440
 96  9 10  1 59 30.0030000  0  6 14 15 18 22 25 29
  -2150075.00000  21158121.72600  -1626920.93540  21158126.28440
  16069879.99100  24280270.89700  12463073.26540  24280277.58940
  -3330996.47800  24504604.02200  -2201405.16040  24504609.30840
  -6756270.93800  22367605.49100  -5154456.55940  22367610.51940
  14528446.48300  23899890.17900  11260913.50640  23899894.25740
   -636504.90100  21945091.35800   -470120.27840  21945094.95640
 96  9 10  2  0  0.0030000  0  6 14 15 18 22 25 29
  -2130971.22300  21161756.92900  -1612034.87740  21161761.48740
  16203634.63600  24305723.59300  12567297.57240  24305730.03840
  -3373767.61400  24496465.13200  -2234733.25940  24496470.62840
  -6773595.86600  22364308.86600  -5167956.46640  22364314.11640
  14648713.35900  23922776.02200  11354627.93640  23922779.78440
   -627189.53300  21946863.99100   -462861.54040  21946867.64740
 96  9 10  2  0 30.0030000  0  6 14 15 18 22 25 29
  -2111365.93500  21165487.68700  -1596758.02940  21165492.28040
  16337473.09100  24331192.09300  12671587.18540  24331198.74940
  -3416501.11400  24488332.95200  -2268032.06240  24488336.73740
  -6790415.85400  22361107.83500  -5181062.91240  22361112.94440
  14769078.83800  23945680.71000  11448419.22140  23945684.55440
   -617725.32100  21948664.82700   -455486.81240  21948668.39040
 96  9 10  2  1  0.0030000  0  6 14 15 18 22 25 29
  -2091263.12300  21169313.29600  -1581093.49840  21169317.83140
  16471397.24500  24356676.69400  12775943.57040  24356683.65940
  -3459205.40400  24480206.44400  -2301308.10440  24480211.46040
  -6806743.07300  22358000.85800  -5193785.38640  22358005.79240
  14889544.47600  23968604.62400  11542288.53340  23968608.60840
   -608120.48200  21950492.79600   -448002.51140  21950496.44040
 96  9 10  2  1 30.0030000  0  6 14 15 18 22 25 29
  -2070675.76300  21173230.72600  -1565051.40240  21173235.29640
  16605414.00800  24382180.01500  12880372.12240  24382186.55440
  -3501862.69200  24472089.79600  -2334547.51840  24472094.69440
  -6822580.12100  22354987.28800  -5206125.90540  22354992.31540
  15010107.63300  23991547.15500  11636233.84440  23991551.66740
   -598369.13300  21952348.09300   -440404.04340  21952351.70240
 96  9 10  2  2  0.0030000  0  6 14 15 18 22 25 29
  -2049581.02300  21177244.94400  -1548613.94240  21177249.53840
  16739532.32000  24407701.55400  12984879.80840  24407708.83540
  -3544451.34000  24463984.87400  -2367733.43340  24463990.66340
  -6837911.32200  22352069.89000  -5218072.25240  22352074.81240
  15130770.12400  24014508.46800  11730256.54840  24014512.75740
   -588466.96800  21954232.69400   -432688.05240  21954236.25740
 96  9 10  2  2 30.0030000  0  6 14 15 18 22 25 29
  -2027969.95000  21181357.55400  -1531774.14940  21181362.00740
  16873753.51400  24433243.05400  13089467.66740  24433248.94840
  -3586980.23800  24455891.55400  -2400872.80840  24455897.20240
  -6852751.15800  22349245.85100  -5229635.72640  22349250.87840
  15251549.28900  24037492.05400  11824370.17640  24037495.72240
   -578401.42700  21956147.91300   -424844.76040  21956151.49940
 96  9 10  2  3  0.0030000  0  6 14 15 18 22 25 29
  -2005863.49800  21185564.09300  -1514548.33840  21185568.60440
  17008045.33600  24458797.96800  13194110.54740  24458804.50740
  -3629478.01600  24447804.81900  -2433987.88940  24447809.60140
  -6867131.12400  22346509.21000  -5240840.84840  22346514.22640
  15372433.34800  24060495.86600  11918565.55140  24060500.58940
   -568197.57000  21958089.92100   -416893.67840  21958093.44840
 96  9 10  2  3 30.0030000  0  6 14 15 18 22 25 29
  -1983248.27400  21189867.80400  -1496926.09040  21189872.31540
  17142414.53200  24484367.53000  13298813.70740  24484374.03440
  -3671934.79500  24439725.28800  -2467071.06540  24439730.14040
  -6881034.85100  22343863.26500  -5251674.87740  22343868.36240
  15493428.92700  24083520.12400  12012847.80340  24083525.11640
   -557843.40400  21960060.06200   -408825.48340  21960063.71840
 96  9 10  2  4  0.0030000  0  6 14 15 18 22 25 29
  -1960118.68100  21194269.15500  -1478903.03440  21194273.69040
  17276857.88500  24509951.03000  13403574.69240  24509957.44040
  -3714370.43600  24431650.49100  -2500137.77040  24431656.12840
  -6894453.86200  22341309.84300  -5262131.21140  22341314.75340
  15614538.80000  24106566.64700  12107219.12640  24106571.28840
   -547338.11300  21962059.11600   -400639.52640  21962062.77240
 96  9 10  2  4 30.0030000  0  6 14 15 18 22 25 29
  -1936509.28500  21198762.06200  -1460506.10240  21198766.76140
  17411342.93200  24535542.92900  13508368.13540  24535549.56240
  -3756825.55000  24423571.91300  -2533219.62240  24423576.98740
  -6907414.99800  22338843.45200  -5272230.75840  22338848.46840
  15735726.77000  24129627.70200  12201651.31040  24129631.46440
   -536700.15800  21964083.52200   -392350.19340  21964087.21440
 96  9 10  2  5  0.0030000  0  6 14 15 18 22 25 29
  -1912395.93700  21203350.45200  -1441716.48140  21203355.06940
  17545878.46900  24561144.52200  13613200.94040  24561150.24140
  -3799279.34300  24415492.58500  -2566300.45540  24415498.25740
  -6919871.38700  22336473.04600  -5281936.99740  22336478.13240
  15856989.22300  24152703.65500  12296141.52440  24152708.17940
   -525920.03600  21966134.74100   -383950.08040  21966138.25740
 96  9 10  2  5 30.0030000  0  6 14 15 18 22 25 29
  -1887787.20100  21208033.48300  -1422540.84840  21208038.11240
  17680466.55000  24586755.62400  13718074.67040  24586761.14440
  -3841715.71100  24407417.25700  -2599367.72040  24407422.87040
  -6931791.04100  22334204.96800  -5291225.00140  22334209.83140
  15978318.81200  24175791.61600  12390684.05340  24175795.27240
   -514988.59400  21968214.98300   -375432.06340  21968218.46440
 96  9 10  2  6  0.0030000  0  6 14 15 18 22 25 29
  -1862663.13300  21212814.28800  -1402963.65040  21212818.94040
  17815118.16200  24612379.16300  13822997.92640  24612385.81940
  -3884104.60400  24399350.88200  -2632398.01040  24399356.12040
  -6943141.11000  22332044.87400  -5300069.17440  22332049.58540
  16099735.88400  24198896.24900  12485294.76440  24198900.39740
   -503889.03300  21970327.20200   -366783.04040  21970330.68340
 96  9 10  2  6 30.0030000  0  6 14 15 18 22 25 29
  -1837004.58900  21217697.28800  -1382969.98140  21217701.88240
  17949840.40800  24638015.99900  13927976.22440  24638023.04640
  -3926425.21200  24391297.71000  -2665375.03740  24391303.18340
  -6953900.56800  22329997.46800  -5308453.13140  22330002.23740
  16221254.48800  24222020.51500  12579984.57040  24222024.42940
   -492610.16600  21972473.57700   -357994.30340  21972477.17540
 96  9 10  2  7  0.0030000  0  6 14 15 18 22 25 29
     14902.41210  21103658.28800
  18084622.98800  24663664.35100  14033001.54340  24663671.36240
  -3968681.63400  24383256.85800  -2698302.09340  24383261.85140
  -6964074.75100  22328061.28800  -5316381.03240  22328065.83540
  16342877.40300  24245164.86600  12674755.66040  24245169.15540
   -481169.30500  21974650.52200   -349079.33640  21974654.10840
 96  9 10  2  7 30.0030000  0  6 14 15 18 22 25 29
      9856.05810  21108561.32700
  18219454.41400  24689321.67100  14138064.90840  24689327.96440
  -4010884.76600  24375225.29600  -2731187.60240  24375230.28840
  -6973703.63000  22326228.94400  -5323884.02440  22326233.73740
  16464613.29300  24268330.39700  12769614.78240  24268334.83940
   -469581.09100  21976855.69400   -340049.54940  21976859.21040
 96  9 10  2  8  0.0030000  0  6 14 15 18 22 25 29
     37109.31900  21113703.80400     14907.60550  21113708.36240
  18354329.30300  24714988.24100  14243162.14340  24714995.12440
  -4053053.95100  24367200.56900  -2764046.65940  24367206.62840
  -6982817.62900  22324494.75700  -5330985.80740  22324499.36240
  16586456.14700  24291516.10800  12864557.27040  24291519.64740
   -457857.44000  21979086.50700   -330914.23040  21979090.12840
 96  9 10  2  8 30.0030000  0  6 14 15 18 22 25 29
     21351.75310  21119034.14000     36562.71140  21119038.79240
  18489242.08800  24740661.10100  14348288.90240  24740667.90940
  -4095215.45200  24359177.20200  -2796899.75440  24359182.05440
  -6991433.62400  22322855.03000  -5337699.53740  22322859.89440
  16708397.37200  24314721.03000  12959576.39240  24314724.88640
   -445995.61000  21981343.80400   -321671.23740  21981347.34340
 96  9 10  2  9  0.0030000  0  6 14 15 18 22 25 29
                  21124631.29600
  18624190.41700  24766340.72600  14453443.39840  24766345.81240
  -4137368.41800  24351155.86600  -2829746.18740  24351160.68340
  -6999566.38100  22321307.51500  -5344036.71740  22321312.24940
  16830436.94500  24337944.61600  13054672.15440  24337948.53040
   -433994.88000  21983627.55400   -312320.00940  21983631.16340
 96  9 10  2  9 30.0030000  0  6 14 15 18 22 25 29
     10642.48210  21193170.95200
  18759172.25700  24792027.25700  14558623.96740  24792032.92940
  -4179508.92800  24343136.73300  -2862582.91140  24343141.96040
  -7007214.74100  22319851.87400  -5349996.44840  22319856.64440
  16952572.18000  24361186.42100  13149842.45840  24361191.26140
   -421850.14200  21985938.41300   -302856.57040  21985941.91740
 96  9 10  2 10  0.0030000  0  6 14 15 18 22 25 29
      4931.78510  21198784.27200
  18894184.07700  24817719.35800  14663827.89740  24817726.05040
  -4221630.66400  24335121.86600  -2895404.99440  24335126.99940
  -7014345.80200  22318495.08500  -5355553.08340  22318499.99540
  17074777.28900  24384441.03000  13245067.21440  24384445.13240
   -409561.81600  21988276.82700   -293281.24340  21988280.27240
 96  9 10  2 10 30.0030000  0  6 14 15 18 22 25 29
      5017.61510  21204431.22600     17895.40450  21204435.73740
  19029218.69100  24843415.41300  14769049.61240  24843423.12840
  -4263718.67100  24327112.51500  -2928200.79040  24327117.43740
  -7020948.74600  22317238.42900  -5360698.20240  22317243.24540
  17197041.42000  24407706.90500  13340337.95140  24407710.36240
   -397128.39800  21990642.89700   -283592.85440  21990646.47240
 96  9 10  2 11  0.0030000  0  6 14 15 18 22 25 29
                  21299006.35800
  19164279.25000  24869116.54600  14874291.54440  24869123.69840
  -4305739.43100  24319116.10100  -2960944.20040  24319119.73340
  -7027003.31800  22316086.32700  -5365416.01440  22316090.87440
  17319368.98700  24430984.96000  13435658.12140  24430989.39040
   -384555.30300  21993035.48300   -273795.63240  21993038.99940
 96  9 10  2 11 30.0030000  0  6 14 15 18 22 25 29
                  21304893.32700
  19299361.34600  24894821.61600  14979550.23640  24894828.65140
  -4347705.72700  24311130.55400  -2993645.15840  24311134.89040
  -7032490.00800  22315042.21000  -5369691.33040  22315046.82740
  17441733.62200  24454270.64700  13531007.18540  24454274.39740
   -371848.83000  21995453.39700   -263894.47040  21995456.92540
 96  9 10  2 12  0.0030000  0  6 14 15 18 22 25 29
                  21310879.06200
  19434466.94300  24620739.32700  15084827.26640  24620745.90140
  -4389624.94100  24003361.18700  -3026309.44240  24003366.35440
  -7037410.47100  22014313.46000  -5373525.42140  22014318.07740
  17564132.16400  24177769.49900  13626382.65640  24177773.72940
   -358988.65000  21698108.34300   -253873.54040  21698111.92940
 96  9 10  2 12 30.0030000  0  6 14 15 18 22 25 29
     11780.04610  21316964.22600     24088.48350  21316968.78440
  19569583.95400  24946243.71800  15190113.14340  24946250.75340
  -4431522.41900  24295180.71000  -3058956.78140  24295185.87840
  -7041792.54200  22313272.05400  -5376939.99640  22313276.65940
  17686580.56300  24500863.41300  13721797.00040  24500867.09340
   -345971.49800  22000377.52200   -243730.29240  22000381.17940
 96  9 10  2 13  0.0030000  0  6 14 15 18 22 25 29
                  21323143.21800
  19704698.26100  24971955.21800  15295396.93240  24971962.86240
  -4473433.53400  24287205.41300  -3091614.75440  24287211.17940
  -7045653.41800  22312537.12400  -5379948.43640  22312541.69440
  17809073.03400  24524173.02200  13817245.66140  24524176.92540
   -332806.12700  22002883.19400   -233471.55140  22002886.72240
 96  9 10  2 13 30.0030000  0  6 14 15 18 22 25 29
                  21329423.02200
  19839823.69200  24997668.66300  15400689.43240  24997674.93340
  -4515358.52800  24279227.03800  -3124283.51840  24279232.30040
  -7048987.32500  22311902.81200  -5382546.25640  22311907.52240
  17931626.19700  24547493.96000  13912741.61040  24547497.97940
   -319451.63700  22005424.29600   -223065.44340  22005427.82340
 96  9 10  2 14  0.0030000  0  6 14 15 18 22 25 29
                  21335798.56200
  19974945.69000  25023381.95200  15505979.20240  25023388.43340
  -4557285.15800  24271248.13200  -3156953.57340  24271253.31240
  -7051807.75900  22311365.85800  -5384743.96740  22311370.54640
  18054253.93600  24570829.17100  14008295.69340  24570833.48340
   -305909.08800  22008001.14000   -212512.79740  22008004.66740
 96  9 10  2 14 30.0030000  0  6 14 15 18 22 25 29
      5709.23910  21342274.56200      2670.08950  21342278.10140
  20110069.86600  25049095.16300  15611270.70440  25049101.93740
  -4599180.36500  24263275.61600  -3189599.13840  24263280.65540
  -7054088.04900  22310932.01500  -5386520.78640  22310936.65540
  18176958.76400  24594179.30400  14103909.83740  24594183.51140
   -292188.71900  22010612.24900   -201821.58540  22010615.81240
 96  9 10  2 15  0.0030000  0  6 14 15 18 22 25 29
      5800.46610  21348856.76500     29610.19040  21348861.46440
  20245189.57900  25074807.37400  15716558.70740  25074814.85440
  -4641024.47200  24255313.05400  -3222204.90040  24255317.78840
  -7055820.65400  22310602.57700  -5387870.83440  22310607.22940
  18299717.04700  24617538.70200  14199565.62740  24617543.08540
   -278307.58900  22013253.78800   -191005.11040  22013257.30440
 96  9 10  2 15 30.0030000  0  6 14 15 18 22 25 29
                  21355542.85100
  20380310.26400  25100520.53000  15821847.48540  25100526.76540
  -4682782.32900  24247366.81900  -3254743.42340  24247371.95240
  -7056975.15900  22310382.60800  -5388770.42140  22310387.37840
  18422530.48500  24640910.30400  14295264.41840  24640914.41740
   -264260.25800  22015926.97600   -180059.12640  22015930.40940
 96  9 10  2 16  0.0030000  0  6 14 15 18 22 25 29
     13144.11910  21362332.24100     84788.85340  21362336.88240
  20515426.00700  25126231.64700  15927132.36940  25126239.44440
  -4724447.59500  24239438.35100  -3287209.83440  24239443.07340
  -7057550.71400  22310272.83500  -5389218.87640  22310277.41740
  18545390.12700  24664289.14700  14390999.17640  24664293.53040
   -250074.02800  22018626.21800   -169004.91140  22018629.82740
 96  9 10  2 16 30.0030000  0  6 14 15 18 22 25 29
     27812.24910  21369223.85800    113010.21840  21369228.52240
  20650526.99900  25151940.96800  16032405.80040  25151948.78840
  -4766036.76400  24231524.13200  -3319616.93440  24231528.99540
  -7057562.30800  22310270.75700  -5389227.88040  22310275.38640
  18668276.06300  24687673.80400  14486754.44540  24687677.99940
   -235759.04200  22021350.42900   -157850.36940  22021353.95640
 96  9 10  2 17  0.0030000  0  6 14 15 18 22 25 29
                  21376217.72600
  20785618.00400  25177647.81900  16137671.42640  25177654.49940
  -4807552.27300  24223623.86600  -3351966.65240  24223628.44840
  -7056998.33300  22310378.21000  -5388788.39440  22310383.01540
  18791215.08700  24711068.25700  14582551.07640  24711072.52240
   -221290.92700  22024103.63200   -146576.51040  22024107.12440
 96  9 10  2 17 30.0030000  0  6 14 15 18 22 25 29
     36041.21000  21383310.60800    170696.11540  21383315.19040
  20920691.11400  25203351.03800  16242923.13240  25203359.79640
  -4849008.51600  24215735.49100  -3384270.18540  24215740.34340
  -7055868.86200  22310593.10800  -5387908.25840  22310597.92540
  18914214.63500  24734473.89700  14678394.86940  24734477.77640
   -206658.67900  22026888.12400   -135174.75340  22026891.69840
 96  9 10  2 18  0.0030000  0  6 14 15 18 22 25 29
     13914.70010  21390501.60100    200136.98440  21390506.18340
  21055733.27600  25229049.30400  16348150.70740  25229056.49140
  -4890435.45500  24207851.73300  -3416550.88040  24207856.76140
  -7054203.28900  22310909.99900  -5386610.37840  22310914.49940
  19037269.58900  24757891.01500  14774281.83340  24757894.84740
   -191868.79000  22029702.43700   -123650.16140  22029705.87040
 96  9 10  2 18 30.0030000  0  6 14 15 18 22 25 29
      6422.66710  21397790.64700    229993.08540  21397795.42940
  21190747.32200  25254741.50700  16453356.36940  25254748.19840
  -4931838.25800  24199973.17100  -3448812.78440  24199978.44440
  -7051983.03300  22311332.15500  -5384880.28040  22311336.73740
  19160394.27200  24781320.92900  14870223.14340  24781325.58140
   -176898.37100  22032551.21800   -111984.89840  22032554.76940
 96  9 10  2 19  0.0040000  0  6 14 15 18 22 25 29
                  21405188.19900
  21325740.05400  25280429.86300  16558545.41940  25280437.32040
  -4973228.10800  24192096.69900  -3481064.59340  24192102.21940
  -7049197.74800  22311862.29300  -5382709.89840  22311866.85240
  19283602.91300  24804766.65200  14966229.84440  24804771.70340
   -161744.91400  22035434.80100   -100177.00340  22035438.38740
 96  9 10  2 19 30.0030000  0  6 14 15 18 22 25 29
                  21412686.84300
  21460697.27800  25306110.78800  16663706.82540  25306118.22240
  -5014606.63000  24184222.65500  -3513307.58840  24184227.74140
  -7045864.38000  22312496.78800  -5380112.43940  22312501.42940
  19406864.30800  24828222.93700  15062277.67140  24828227.03840
   -146421.65200  22038350.81900    -88236.79240  22038354.47640
 96  9 10  2 20  0.0040000  0  6 14 15 18 22 25 29
                  21420288.68400
  21595620.02900  25331786.23000  16768841.34040  25331793.50040
  -5055988.35800  24176348.02700  -3545553.07240  24176352.75040
  -7041987.19200  22313234.28500  -5377091.22140  22313239.02040
  19530174.89500  24851687.96500  15158363.81640  24851692.47740
   -130955.62400  22041293.79300    -76185.33940  22041297.43740
 96  9 10  2 20 30.0040000  0  6 14 15 18 22 25 29
     14901.25910  21427990.31600    353655.68340  21427995.05140
  21730493.97400  25357452.91000  16873937.84140  25357459.53140
  -5097352.45800  24168476.84000  -3577784.82040  24168481.59840
  -7037556.57200  22314077.55900  -5373638.76040  22314082.11740
  19653524.26100  24875160.30900  15254480.18140  24875164.37540
   -115351.60900  22044263.15200    -64026.36240  22044266.78540
 96  9 10  2 21  0.0040000  0  6 14 15 18 22 25 29
                  21435790.19900
  21865315.47900  25383108.37100  16978993.49340  25383115.21540
  -5138691.35600  24160610.32400  -3609996.93340  24160615.03540
  -7032592.09700  22315022.41800  -5369770.31240  22315026.87140
  19776893.65800  24898636.72300  15350612.18340  24898640.89540
    -99623.40200  22047256.16800    -51770.60640  22047259.80140
 96  9 10  2 21 30.0040000  0  6 14 15 18 22 25 29
                  21443689.74600
  22000086.43200  25408753.94100  17084009.72140  25408760.75040
  -5179972.88000  24152754.51200  -3642164.34040  24152759.02340
  -7027073.62300  22316072.57400  -5365470.17240  22316077.29740
  19900279.84500  24922116.31600  15446757.25040  24922120.03140
    -83754.07800  22050275.99600    -39404.88940  22050279.57040
 96  9 10  2 22  0.0040000  0  7  4 14 15 18 22 25 29
      -445.05810  26019398.91800     15490.35910
                  21418874.24600
  22134824.38400  25434394.20700  17189000.29240  25434401.25440
  -5221168.48100  24144915.18400  -3674264.78840  24144920.07040
  -7020960.83700  22317235.54300  -5360706.93240  22317240.11340
  20023704.74600  24945603.21500  15542932.44240  24945607.70340
    -67710.07200  22053328.97300    -26903.05540  22053332.52340
 96  9 10  2 22 30.0040000  0  7  4 14 15 18 22 25 29
      -873.63700  26019316.72300     58113.86600
                  21426985.24600     10007.76450  21426989.71140
  22269519.39200  25460026.27000  17293957.33240  25460032.59840
  -5262297.62000  24137088.54300  -3706313.45040  24137093.45340
  -7014261.77000  22318510.31600  -5355486.85140  22318514.79340
  20147154.25500  24969095.08200  15639126.84240  24969099.30140
    -51480.98700  22056417.28500    -14257.00140  22056420.82440
 96  9 10  2 23  0.0040000  0  7  4 14 15 18 22 25 29
      -844.63600  26019322.01200        55.40050  26019328.01240
    101274.97100  21435198.62900     43639.79740  21435203.23440
  22404161.17800  25485647.22300  17398872.93340  25485653.09440
  -5303378.88800  24129271.16000  -3738324.81740  24129275.42640
  -7006973.11600  22319897.39500  -5349807.35440  22319901.96540
  20270619.77300  24992589.77000  15735333.70840  24992594.30540
    -35063.84800  22059541.39500     -1464.41740  22059544.93440
 96  9 10  2 23 30.0040000  0  7  4 14 15 18 22 25 29
      -337.52100  26019418.18400       450.53840  26019425.92240
    144986.19500  21443516.52000     77700.48640  21443521.11340
  22538760.28000  25511260.27000  17503755.25340  25511267.56240
  -5344411.63600  24121462.63700  -3770298.37440  24121467.73440
  -6999073.78900  22321400.54300  -5343652.00740  22321405.07840
  20394127.69900  25016092.48000  15831573.64640  25016096.88740
    -18444.78400  22062703.96500     11485.52240  22062707.48040
 96  9 10  2 24  0.0040000  0  8  4 14 15 18 19 22 25 29
       667.17000  26019611.09000      1233.45640  26019615.90640
    189245.26600  21451938.77700    112188.06940  21451943.34840
  22673309.00100  25536863.98000  17608598.34440  25536871.14540
  -5385420.47600  24113659.18400  -3802253.27740  24113664.16440
    -21009.82310  25950611.66000
  -6990587.17000  22323015.53500  -5337039.02840  22323020.30540
  20517670.85600  25039602.16000  15927841.00440  25039606.40240
     -1641.94800  22065901.41000     24578.65740  22065904.94940
 96  9 10  2 24 30.0040000  0  8  4 14 15 18 19 22 25 29
      2172.00300  26019896.57400      2406.00940  26019902.21140
    234040.34400  21460462.81600    147093.31940  21460467.46940
  22807800.10500  25562457.91800  17713396.49240  25562463.61340
  -5426412.87900  24105858.57400  -3834195.36740  24105863.64840
    -78238.10500  25939721.74600
  -6981520.51600  22324740.84000  -5329974.07640  22324745.49240
  20641244.34600  25063117.15200  16024132.00740  25063121.12540
     15330.17000  22069130.86300     37803.69840  22069134.26240
 96  9 10  2 25  0.0040000  0  8  4 14 15 18 19 22 25 29
      4165.35600  26020275.53500      3959.29240  26020280.43440
    279376.54600  21469090.09800    182420.22540  21469094.70340
  22942224.15700  25588037.43400  17818142.42240  25588046.32040
  -5467385.25400  24098061.51200  -3866121.86740  24098066.38740
   -135356.93800  25928852.13700    -19277.29750  25928858.87540
  -6971880.64000  22326575.03500  -5322462.45940  22326579.60540
  20764837.70900  25086636.67600  16120438.51240  25086641.69140
     32455.29400  22072389.69100     51147.96440  22072393.25440
 96  9 10  2 25 30.0040000  0  8  4 14 15 18 19 22 25 29
      6622.76600  26020742.85500      5874.15740  26020749.60540
    325252.97900  21477820.03500    218168.09340  21477824.65240
  23076561.47400  25613601.10500  17922820.74840  25613608.99640
  -5508345.21000  24090267.34800  -3898038.67340  24090272.15240
   -192375.73500  25918002.61300    -63707.48540  25918010.46940
  -6961687.61500  22328514.79300  -5314519.81540  22328519.08240
  20888422.25400  25110153.62100  16216738.14040  25110157.99240
     49700.67900  22075671.45700     64585.94140  22075675.00840
 96  9 10  2 26  0.0040000  0  8  4 14 15 18 19 22 25 29
      9560.34000  26021301.24600      8163.18240  26021306.61340
    371705.48500  21486659.80100    254364.84240  21486664.50040
  23210834.33200  25639152.01200  18027448.86140  25639158.32840
  -5549260.17700  24082481.16800  -3929920.42140  24082485.70340
   -249258.30600  25907177.75400   -108031.50940  25907186.21940
  -6950908.51000  22330565.83200  -5306120.49040  22330570.32040
  21012013.47500  25133671.91800  16313042.96740  25133674.95340
     67091.20300  22078980.73000     78137.00840  22078984.19940
 96  9 10  2 26 30.0040000  0  8  4 14 15 18 19 22 25 29
     12943.65200  26021945.62900     10799.53240  26021950.93740
    418702.07600  21495602.79300    290985.55740  21495607.44540
  23345026.70600  25664688.63700  18132014.29440  25664696.12940
  -5590134.96400  24074703.09800  -3961770.87040  24074708.48840
   -306011.15900  25896377.44900   -152254.45240  25896385.10540
  -6939542.65800  22332728.89500  -5297263.95740  22332733.48840
  21135605.62100  25157191.62100  16409348.53340  25157196.64840
     84622.57800  22082316.82400     91797.83040  22082320.43440
 96  9 10  2 27  0.0040000  0  8  4 14 15 18 19 22 25 29
     16793.92000  26022678.77000     13799.72140  26022684.17240
    466244.10200  21504649.85500    328031.28940  21504654.43740
  23479149.43300  25690211.41000  18236525.38740  25690218.07840
  -5630947.10800  24066936.77000  -3993572.50040  24066941.50440
   -362616.70900  25885605.76200   -196362.62040  25885614.07440
  -6927582.71800  22335004.62900  -5287944.50040  22335009.00040
  21259217.02600  25180713.34000  16505669.08340  25180718.07440
    102314.04000  22085683.44100    105583.39640  22085686.82840
 96  9 10  2 27 30.0040000  0  8  4 14 15 18 19 22 25 29
     21126.24600  26023502.26200     17175.63940  26023508.23840
    514325.35000  21513799.42600    365497.19040  21513804.00840
  23613202.59100  25715720.82400  18340982.33940  25715727.94140
  -5671686.21000  24059184.37100  -4025317.20540  24059189.44540
   -419062.69800  25874864.87100   -240346.45640  25874870.94140
  -6915034.77600  22337392.27700  -5278166.85740  22337396.78940
  21382860.87700  25204242.47300  16602014.93840  25204246.39840
    120179.35700  22089083.20700    119504.43440  22089086.59440
 96  9 10  2 28  0.0040000  0  8  4 14 15 18 19 22 25 29
     25940.37700  26024419.60500     20926.90140  26024423.81240
    562927.62100  21523048.19100    403369.08340  21523052.89140
  23747177.35200  25741214.99600  18445378.17140  25741222.21940
  -5712359.58400  24051444.30900  -4057010.69540  24051449.35940
   -475364.09600  25864151.28500   -284217.60940  25864157.75440
  -6901914.56700  22339889.09800  -5267943.29640  22339893.59840
  21506544.16700  25227779.00400  16698391.50940  25227783.72740
    138237.91700  22092519.39500    133576.05340  22092522.81640
 96  9 10  2 28 30.0040000  0  8  4 14 15 18 19 22 25 29
     31251.36500  26025430.37900     25065.31540  26025435.46540
    612046.27400  21532394.96500    441643.35540  21532399.57040
  23881073.73300  25766695.01200  18549712.94240  25766701.64540
  -5752953.38700  24043719.43400  -4088642.18040  24043723.92240
   -531520.03800  25853465.19100   -327975.43140  25853471.63740
  -6888228.84700  22342493.43400  -5257279.07340  22342498.03940
  21630275.17100  25251324.02000  16794805.26740  25251327.94540
    156507.91300  22095996.12100    147812.41840  22095999.67240
 96  9 10  2 29  0.0040000  0  8  4 14 15 18 19 22 25 29
     37078.68900  26026537.56600     29606.07840  26026542.86340
    661710.08300  21541845.82400    480342.42340  21541850.47740
  24014900.09900  25792161.43400  18653993.15340  25792168.09040
  -5793455.85100  24036012.05900  -4120202.52240  24036016.99240
   -587525.03200  25842807.41800   -371615.60440  25842814.60540
  -6873977.32000  22345205.27700  -5246173.96540  22345209.89540
  21754047.73200  25274876.80900  16891251.42640  25274882.14140
    175005.69500  22099516.09800    162226.28440  22099519.60240
 96  9 10  2 29 30.0040000  0  8  4 14 15 18 19 22 25 29
     43414.56200  26027744.36300     34543.13540  26027751.14840
    711932.78100  21551402.69900    519476.98940  21551407.37540
  24148661.25900  25817614.82400  18758222.56740  25817622.08240
  -5833864.28600  24028322.63700  -4151689.57140  24028327.26640
   -643377.25600  25832178.25400   -415136.77940  25832185.37140
  -6859134.07900  22348029.85500  -5234607.78040  22348034.42640
  21877859.65800  25298437.23000  16987728.22440  25298440.24240
    193736.58200  22103080.72300    176821.78940  22103084.20340
 96  9 10  2 30  0.0040000  0  8  4 14 15 18 19 22 25 29
     50221.95100  26029039.95700     39847.58640  26029043.34440
    762682.08700  21561059.98800    559021.89740  21561064.68740
  24282321.06800  25843050.30100  18862373.01540  25843057.65240
  -5874215.97300  24020643.78500  -4183132.42140  24020649.04740
   -699117.70900  25821571.28500   -458570.82940  25821578.12940
  -6843707.96200  22350965.50400  -5222587.41240  22350970.05140
  22001660.22400  25321996.03500  17084196.20140  25322000.77040
    212654.55500  22106680.49600    191563.07140  22106683.98840
 96  9 10  2 30 30.0040000  0  8  4 14 15 18 19 22 25 29
     57519.49500  26030428.44900     45534.04140  26030433.51240
    813982.03000  21570822.27000    598995.87440  21570826.91040
  24415893.25400  25868467.92600  18966455.16040  25868473.86740
  -5914499.41100  24012978.61300  -4214522.08440  24012983.35940
   -754725.56100  25810989.70700   -501901.51540  25810997.07040
  -6827673.20500  22354016.70700  -5210092.78140  22354021.05540
  22125450.51600  25345552.65200  17180656.14840  25345556.41440
    231754.78900  22110315.25400    206446.37840  22110318.72340
 96  9 10  2 31  0.0040000  0  8  4 14 15 18 19 22 25 29
     65280.92700  26031905.98800     51581.87540  26031912.45740
    865825.58700  21580687.56600    639393.44640  21580692.18440
  24549358.19700  25893865.19100  19070453.74440  25893871.78940
  -5954741.96300  24005320.52000  -4245879.89040  24005325.20740
   -810220.72400  25800429.43400   -545144.44740  25800437.37140
  -6811031.68000  22357183.37100  -5197125.33840  22357187.84840
  22249210.89100  25369103.09800  17277092.79940  25369108.69940
    251008.71100  22113979.17600    221449.43740  22113982.64540
 96  9 10  2 31 30.0040000  0  8  4 14 15 18 19 22 25 29
     73557.18100  26033478.81600     58030.93740  26033484.62940
    918257.44800  21590665.08200    680249.44240  21590669.72340
  24682757.44200  25919250.65200  19174401.12540  25919258.42640
  -5994903.26800  23997678.00400  -4277174.40140  23997682.37540
   -865561.68200  25789897.71500   -588267.18740  25789904.73840
  -6793728.67500  22360475.96500  -5183642.45740  22360480.48840
  22373002.72100  25392659.85500  17373553.94540  25392664.03940
    270454.13800  22117679.41000    236601.72540  22117682.91440
 96  9 10  2 32  0.0040000  0  8  4 14 15 18 19 22 25 29
     82336.00300  26035150.69900     64871.54540  26035154.52040
    971257.31900  21600750.67600    721548.04340  21600755.27040
  24816055.77300  25944616.51200  19278269.90240  25944624.64840
  -6035015.60300  23990044.85500  -4308430.73740  23990048.82840
   -920776.69900  25779390.79300   -631291.76540  25779396.74640
  -6775813.97300  22363885.20700  -5169682.93740  22363889.70740
  22496803.36400  25416218.62100  17470021.97240  25416222.45340
    290057.00800  22121409.72300    251876.69440  22121413.23840
 96  9 10  2 32 30.0040000  0  8  4 14 15 18 19 22 25 29
     91602.84500  26036914.96500     72092.45040  26036919.03140
   1024813.69800  21610942.08200    763280.28140  21610946.65240
  24949231.18800  25969958.72300  19382042.87640  25969967.18740
  -6075106.01400  23982415.78500  -4339670.00940  23982420.09840
   -975879.00600  25768905.34800   -674228.58940  25768912.65240
  -6757321.06300  22367404.30900  -5155272.86340  22367408.87940
  22620618.19700  25439780.17600  17566501.05040  25439784.26640
    309799.49300  22125166.56600    267260.45340  22125170.04740
 96  9 10  2 33  0.0040000  0  8  4 14 15 18 19 22 25 29
    101381.69600  26038774.70700     79712.37840  26038780.85940
   1078936.51200  21621241.35500    805453.90240  21621246.04340
  25082301.00500  25995281.48000  19485733.56740  25995287.12940
  -6115150.39000  23974795.80100  -4370873.40540  23974800.84040
  -1030839.92100  25758446.49600   -717055.16040  25758453.17640
  -6738231.24900  22371036.86300  -5140397.66640  22371041.30540
  22744475.51000  25463348.92600  17663013.22440  25463353.59040
    329706.75700  22128954.80900    282772.61140  22128958.28940
 96  9 10  2 33 30.0040000  0  8  4 14 15 18 19 22 25 29
    111704.68900  26040739.08200     87756.25240  26040744.46140
   1133632.77500  21631649.71500    848074.36340  21631654.42640
  25215284.27100  26020587.27000  19589356.80140  26020596.02740
  -6155120.87900  23967189.64500  -4402019.22740  23967194.00440
  -1085636.40600  25748018.94100   -759753.65840  25748026.52740
  -6718534.67200  22374785.02700  -5125049.66540  22374789.53940
  22868392.43800  25486930.02000  17759571.85140  25486935.42240
    349794.15200  22132777.47300    298425.13140  22132780.89540
 96  9 10  2 34  0.0040000  0  8  4 14 15 18 19 22 25 29
    122555.40800  26042803.86300     96211.40340  26042808.87940
   1188901.85800  21642166.96500    891141.17940  21642171.54740
  25348175.82000  26045875.69100  19692908.63940  26045882.82040
  -6195013.05000  23959598.29300  -4433104.01540  23959603.15640
  -1140259.53700  25737624.34800   -802317.10240  25737631.07440
  -6698238.20100  22378647.29300  -5109234.23240  22378651.86340
  22992348.15700  25510517.53500  17856160.71040  25510522.57440
    370066.18200  22136635.00400    314221.52240  22136638.48440
 96  9 10  2 34 30.0040000  0  8  4 14 15 18 19 22 25 29
    133874.13100  26044956.31600    105031.16240  26044961.97740
   1244691.09900  21652783.48000    934613.31340  21652788.13340
  25480940.04400  26071139.30100  19796361.19040  26071146.20740
  -6234856.61500  23952015.96500  -4464150.92840  23952020.95740
  -1194740.02900  25727256.98800   -844769.36340  25727264.49240
  -6677367.59200  22382618.78500  -5092971.39340  22382623.44940
  23116298.33900  25534104.36300  17952745.27040  25534108.61740
    390508.00900  22140524.80100    330150.21940  22140528.23440
 96  9 10  2 35  0.0040000  0  8  4 14 15 18 19 22 25 29
    145673.65100  26047203.93400    114225.58440  26047209.82840
   1301017.17300  21663501.78500    978503.75840  21663506.40240
  25613600.91200  26096384.94900  19899733.25440  26096392.72340
  -6274611.45400  23944451.16800  -4495128.69340  23944455.87940
  -1249051.28700  25716922.43400   -887089.70740  25716930.62940
  -6655893.12900  22386705.21500  -5076238.03040  22386709.64540
  23240237.99800  25557689.81600  18049321.63240  25557693.21540
    411169.08600  22144456.50400    346249.76340  22144459.93740
 96  9 10  2 35 30.0040000  0  8  4 14 15 18 19 22 25 29
    157929.29200  26049534.47300    123775.44440  26049539.37140
   1357891.78300  21674324.69100   1022821.63540  21674329.32040
  25746152.63000  26121608.19900  20003020.26040  26121616.92240
  -6314279.15300  23936902.92600  -4526038.56340  23936907.27340
  -1303200.55000  25706617.77000   -929283.85940  25706625.71940
  -6633808.07000  22390907.84000  -5059028.87840  22390912.25840
  23364155.20800  25581270.37100  18145880.47540  25581274.47340
    432058.99100  22148431.62100    362527.61640  22148435.02040
 96  9 10  2 36  0.0040000  0  8  4 14 15 18 19 22 25 29
    170625.06200  26051952.01200    133668.22540  26051956.93440
   1415317.15800  21685252.39500   1067568.67640  21685256.94140
  25878592.33500  26146811.21500  20106219.95440  26146818.49640
  -6353864.57900  23929369.57400  -4556884.31340  23929374.22740
  -1357184.64200  25696344.57400   -971349.31740  25696351.43440
  -6611098.10800  22395229.34800  -5041332.79240  22395233.80140
  23488054.35200  25604847.48800  18242425.22340  25604851.02740
    453189.43300  22152452.59000    378992.89640  22152456.08240
 96  9 10  2 36 30.0040000  0  8  4 14 15 18 19 22 25 29
    183776.70100  26054454.42600    143916.27840  26054460.80140
   1473285.39200  21696283.51200   1112738.72340  21696288.12940
  26010918.60500  26171992.09800  20209331.32740  26171999.74240
  -6393370.54400  23921852.09000  -4587668.14540  23921856.90640
  -1411007.40900  25686102.48800  -1013289.06340  25686110.39140
  -6587766.45400  22399669.37100  -5023152.27040  22399673.80140
  23611949.27100  25628424.65200  18338966.73540  25628428.32040
    474553.13500  22156518.09800    395639.93940  22156521.56640
 96  9 10  2 37  0.0040000  0  7  4 14 18 19 22 25 29
    197403.52400  26057046.54300    154534.60440  26057052.61340
   1531808.94800  21707419.92600   1158341.48840  21707424.64840
  -6432796.62500  23914349.13700  -4618389.72240  23914353.41440
  -1464670.35100  25675891.27000  -1055104.25940  25675898.06640
  -6563821.64100  22404225.95700  -5004493.96240  22404230.36340
  23735833.59100  25651997.69900  18435499.96640  25652001.90640
    496125.66200  22160623.16000    412449.70040  22160626.54740
 96  9 10  2 37 30.0040000  0  7  4 14 18 19 22 25 29
    211519.99100  26059733.29300    165534.44340  26059737.88740
   1590891.43700  21718662.84800   1204379.78640  21718667.52340
  -6472154.07900  23906859.73000  -4649057.82540  23906865.06240
  -1518179.10600  25665708.80900  -1096799.31540  25665715.98440
  -6539265.22900  22408898.94100  -4985359.08240  22408903.33640
  23859728.49700  25675574.45700  18532041.44240  25675579.73040
    517884.32100  22164763.80100    429404.50540  22164767.27040
 96  9 10  2 38  0.0040000  0  7  4 14 18 19 22 25 29
    226165.58500  26062520.12900    176946.62940  26062525.13340
   1650531.05200  21730012.35500   1250852.20240  21730017.06640
  -6511434.03800  23899385.19100  -4679665.55540  23899389.44540
  -1571517.01300  25655558.56600  -1138361.23540  25655565.46140
  -6514100.32000  22413687.46500  -4965750.04840  22413692.03540
  23983648.01500  25699155.40200  18628602.11140  25699159.97340
    539830.79300  22168939.84000    446505.65240  22168943.22740
 96  9 10  2 38 30.0040000  0  7  4 14 18 19 22 25 29
    241365.50200  26065413.53500    188790.69140  26065419.77040
   1710745.21600  21741470.68400   1297772.32440  21741475.26640
  -6550636.02400  23891924.96500  -4710212.50740  23891929.96940
  -1624669.23600  25645443.91000  -1179778.49040  25645450.64840
  -6488331.79800  22418591.06600  -4945670.66240  22418595.55540
  24107586.69800  25722740.37100  18725177.71840  25722744.18040
    561977.20600  22173154.34000    463762.60140  22173157.80940
 96  9 10  2 39  0.0040000  0  7  4 14 18 19 22 25 29
    257100.06500  26068406.96500    201051.37240  26068412.63740
   1771523.49800  21753036.30100   1345132.01540  21753040.96540
  -6589769.46700  23884478.16000  -4740706.06740  23884483.05940
  -1677653.92200  25635360.83200  -1221065.17640  25635366.94940
  -6461956.55600  22423610.04300  -4925118.51240  22423614.46140
  24231516.71800  25746323.61300  18821746.54540  25746327.59840
    584327.37900  22177407.53500    481178.32340  22177410.92240
 96  9 10  2 39 30.0040000  0  7  4 14 18 19 22 25 29
    273369.72400  26071502.67600    213729.04640  26071507.75040
   1832864.92600  21764709.06600   1392930.52340  21764713.68440
  -6628832.47100  23877045.09800  -4771144.72940  23877050.03140
  -1730467.40900  25625311.73000  -1262218.47240  25625320.20740
  -6434958.53100  22428747.57400  -4904081.07640  22428752.08640
  24355458.33500  25769908.52000  18918324.40840  25769914.29740
    606899.38800  22181702.74600    498766.90640  22181706.28540
 96  9 10  2 40  0.0040000  0  7  4 14 18 19 22 25 29
    290145.85400  26074696.28500    226801.35640  26074701.74640
   1894748.39400  21776485.34800   1441151.40040  21776490.01240
  -6667840.32700  23869622.05900  -4801540.42740  23869626.86340
  -1783132.11500  25615289.18400  -1303255.83040  25615296.07840
  -6407365.21300  22433998.48000  -4882579.77340  22434002.79340
  24479370.40700  25793488.87900  19014879.30040  25793491.84440
    629674.63000  22186036.53500    516513.85140  22186039.95740
 96  9 10  2 40 30.0040000  0  7  4 14 18 19 22 25 29
    307414.24700  26077980.59000    240257.25540  26077986.06240
   1957185.04600  21788366.62900   1489803.33040  21788371.27040
  -6706768.35600  23862214.12900  -4831873.92840  23862218.94540
  -1835655.49100  25605293.52000  -1344183.04240  25605300.39140
  -6379164.76200  22439364.90200  -4860605.38040  22439369.35540
  24603256.35300  25817063.77000  19111413.76440  25817066.64140
    652662.28700  22190411.19900    534426.31840  22190414.60940
 96  9 10  2 41  0.0040000  0  7  4 14 18 19 22 25 29
    325155.20100  26081358.17600    254081.35740  26081363.16840
   2020160.22200  21800350.30100   1538874.88640  21800354.94140
  -6745615.00400  23854821.62900  -4862144.00640  23854826.42240
  -1888055.45200  25595322.47300  -1385014.09840  25595329.44940
  -6350361.58200  22444845.84000  -4838161.32440  22444850.17640
  24727116.32400  25840633.06600  19207928.00640  25840638.65640
    675846.43500  22194822.90200    552491.89340  22194826.46540
 96  9 10  2 41 30.0040000  0  7  4 14 18 19 22 25 29
    343365.46400  26084822.02000    268271.16240  26084828.00840
   2083672.52200  21812436.25400   1588364.98340  21812440.95340
  -6784385.23100  23847444.15200  -4892354.55040  23847448.88740
  -1940316.23300  25585378.10500  -1425736.66640  25585385.55140
  -6320965.37900  22450439.84000  -4815255.17740  22450444.30540
  24850961.54200  25864200.59800  19304430.81140  25864204.19540
    699203.29200  22199267.62100    570692.04740  22199271.17240
 96  9 10  2 42  0.0040000  0  7  4 14 18 19 22 25 29
    362069.73300  26088382.87100    282845.95140  26088387.69940
   2147749.78700  21824629.73000   1638295.31540  21824634.39540
  -6823051.08700  23840086.37900  -4922483.76140  23840091.02040
  -1992404.27800  25575465.64500  -1466324.60740  25575471.68040
  -6290954.22400  22456150.69100  -4791869.84240  22456155.28540
  24974808.05200  25887767.65200  19400934.59040  25887773.51240
    722747.77500  22203747.84000    589038.40340  22203751.30940
 96  9 10  2 42 30.0050000  0  7  4 14 18 19 22 25 29
    381262.70500  26092034.49300    297801.48440  26092038.80640
   2212378.39600  21836928.07100   1688655.26440  21836932.75940
  -6861626.30700  23832745.51700  -4952542.34840  23832750.32140
  -2044323.58300  25565586.72800  -1506781.10940  25565593.48940
  -6260323.34900  22461979.54000  -4768001.60840  22461983.91140
  25098653.54000  25911334.41500  19497437.56240  25911338.81040
    746467.65800  22208261.54000    607521.43640  22208265.00940
 96  9 10  2 43  0.0050000  0  7  4 14 18 19 22 25 29
    400958.39400  26095782.73500    313148.75840  26095788.29040
   2277560.82400  21849331.94600   1739446.76040  21849336.62240
  -6900112.64200  23825421.78200  -4982531.67840  23825426.30640
  -2096046.58000  25555742.87600  -1547084.59740  25555749.82940
  -6229061.73400  22467928.39200  -4743641.89440  22467932.55240
  25222500.89400  25934901.43800  19593942.01740  25934907.19240
    770363.95500  22212808.88400    626141.92940  22212812.43540
 96  9 10  2 43 30.0050000  0  7  4 14 18 19 22 25 29
    421147.74100  26099624.57900    328880.74640  26099629.47840
   2343288.39400  21861839.77400   1790663.04040  21861844.47440
  -6938514.13700  23818114.31300  -5012454.89640  23818119.03640
  -2147584.56100  25545935.50900  -1587243.92240  25545941.45040
  -6197183.19200  22473994.50900  -4718801.45440  22473998.71640
  25346339.16800  25958467.38400  19690439.32940  25958470.44240
    794431.88300  22217388.93100    644896.16440  22217392.47040
 96  9 10  2 44  0.0050000  0  7  4 14 18 19 22 25 29
    441825.64300  26103559.04000    344993.39640  26103565.81340
   2409558.51100  21874450.29000   1842302.08240  21874454.95440
  -6976824.40700  23810823.97000  -5042307.03040  23810828.69240
  -2198957.74700  25536159.21200  -1627274.82640  25536166.37640
  -6164698.61800  22480176.25100  -4693488.78440  22480180.59940
  25470145.43100  25982026.89200  19786911.70740  25982030.86440
    818689.84400  22222005.05600    663798.47540  22222008.65340
 96  9 10  2 44 30.0050000  0  7  4 14 18 19 22 25 29
    462975.30800  26107583.79000    361473.62640  26107587.32940
   2476360.55400  21887162.34500   1894355.61740  21887167.06740
  -7015056.56000  23803549.04000  -5072098.28340  23803553.86840
  -2250184.19100  25526411.18100  -1667191.39740  25526417.48540
  -6131609.20200  22486473.03200  -4667704.80940  22486477.52040
  25593906.30000  26005577.82100  19883348.70340  26005582.39240
    843148.37500  22226659.39200    682857.07540  22226662.91940
 96  9 10  2 45  0.0050000  0  7  4 14 18 19 22 25 29
    484597.32600  26111697.47000    378321.92940  26111703.16540
   2543710.66600  21899978.71200   1946836.21840  21899983.41140
  -7053204.78500  23796289.24300  -5101824.13940  23796294.21240
  -2301251.81400  25516693.59500  -1706984.20840  25516700.22840
  -6097917.23000  22492884.16500  -4641451.30840  22492888.63040
  25717643.12900  26029123.78200  19979767.04340  26029127.89540
    867829.10900  22231356.14200    702088.82240  22231359.68140
 96  9 10  2 45 30.0050000  0  7  4 14 18 19 22 25 29
    506668.75000  26115898.47800    395520.48940  26115904.06740
   2611588.62600  21912895.30600   1999728.12940  21912899.98140
  -7091297.82300  23789040.10300  -5131506.99640  23789044.76740
  -2352189.36300  25507000.50100  -1746675.65240  25507007.98140
  -6063635.31400  22499407.97800  -4614738.11140  22499412.38440
  25841331.37800  26052661.41500  20076147.46540  26052666.71240
    892728.14400  22236094.02400    721490.67140  22236097.57540
 96  9 10  2 46  0.0050000  0  7  4 14 18 19 22 25 29
    529211.90100  26120188.95400    413086.53440  26120195.62240
   2680006.48200  21925914.97000   2053040.74340  21925919.72840
  -7129332.15600  23781802.35300  -5161144.09540  23781806.65340
  -2402981.62900  25497335.18100  -1786253.93140  25497341.48540
  -6028735.70800  22506049.24300  -4587543.60140  22506053.59140
  25964992.36700  26076192.12600  20172506.67040  26076195.03240
    917859.65000  22240876.59500    741073.66640  22240880.05240
 96  9 10  2 46 30.0050000  0  7  4 14 18 19 22 25 29
    552241.29100  26124570.70400    431031.51540  26124576.72840
   2748957.79400  21939035.88400   2106769.04240  21939040.52440
  -7167309.42700  23774575.69600  -5190736.72540  23774580.16140
  -2453620.16800  25487698.02400  -1825712.39540  25487704.34140
  -5993212.56000  22512809.06300  -4559863.21040  22512813.37640
  26088640.97300  26099722.15700  20268856.20540  26099726.50540
    943217.58000  22245701.77400    760833.10140  22245705.33740
 96  9 10  2 47  0.0050000  0  7  4 14 18 19 22 25 29
    575778.56700  26129049.51700    449372.26440  26129054.25140
   2818444.99500  21952258.95400   2160914.90740  21952263.59540
  -7205213.62400  23767362.88400  -5220272.42940  23767367.45440
  -2504092.45600  25478093.57100  -1865041.31540  25478100.27440
  -5957068.80600  22519686.89200  -4531699.23640  22519691.38040
  26212284.39600  26123251.57900  20365201.71840  26123254.91940
    968806.10800  22250571.24300    780772.21640  22250574.67740
 96  9 10  2 47 30.0050000  0  7  4 14 18 19 22 25 29
    599834.55800  26133627.51700    468117.21440  26133633.49340
   2888453.02400  21965581.01700   2215466.61640  21965585.70440
  -7243040.85000  23760164.59500  -5249748.15140  23760169.13040
  -2554415.15100  25468517.44600  -1904253.71340  25468524.62240
  -5920313.57400  22526681.18100  -4503058.78340  22526685.32940
  26335899.29100  26146774.56300  20461525.01240  26146779.48540
    994616.15200  22255482.67300    800883.94740  22255486.10640
 96  9 10  2 48  0.0050000  0  7  4 14 18 19 22 25 29
    624420.33100  26138305.68100    487274.96940  26138309.84140
   2958971.96700  21979000.32900   2270416.43740  21979005.01740
  -7280779.33100  23752983.15700  -5279154.71640  23752988.02040
  -2604584.54600  25458970.79000  -1943346.63740  25458977.45840
  -5882962.09100  22533788.96200  -4473953.72140  22533793.48540
  26459489.56100  26170292.34500  20557829.25140  26170298.15740
   1020632.86200  22260433.39900    821156.71540  22260436.92740
 96  9 10  2 48 30.0050000  0  6  4 14 18 19 22 29
    649531.81300  26143084.80600    506842.30340  26143089.45840
   3030005.64300  21992517.56300   2325767.34940  21992522.26340
  -7318423.50100  23745819.49300  -5308487.79740  23745824.21640
  -2654592.74900  25449454.26700  -1982313.95940  25449460.80640
  -5845014.55700  22541009.93100  -4444384.20340  22541014.23140
   1046864.19800  22265425.14200    841596.72440  22265428.66940
 96  9 10  2 49  0.0050000  0  6  4 14 18 19 22 29
    675135.10100  26147957.29800    526792.92440  26147962.68840
   3101547.17600  22006131.56300   2381513.99540  22006136.20440
  -7355980.31600  23738672.42300  -5337752.80540  23738676.66540
  -2704451.44000  25439967.05600  -2021164.80040  25439973.81740
  -5806476.10200  22548343.75100  -4414354.22240  22548348.16940
   1073291.41300  22270453.93100    862189.36840  22270457.49340
 96  9 10  2 49 30.0050000  0  6  4 14 18 19 22 29
    701217.62400  26152919.29000    547117.01040  26152923.73140
   3173599.98700  22019842.81300   2437659.03140  22019847.54840
  -7393446.12700  23731543.18100  -5366946.90340  23731547.51740
  -2754158.18700  25430507.64900  -2059897.22040  25430512.84140
  -5767331.71300  22555792.69600  -4383852.09340  22555797.03240
   1099904.38700  22275518.39200    882926.75540  22275521.91940
 96  9 10  2 50  0.0050000  0  6  4 14 18 19 22 29
    727771.46500  26157972.92300    567808.32540  26157974.48140
   3246186.85600  22033655.41500   2494220.22440  22033660.11440
  -7430815.55400  23724431.71200  -5396065.89940  23724436.10640
  -2803691.98700  25421081.29000  -2098494.89940  25421087.85340
  -5727556.80900  22563361.54000  -4352858.64840  22563366.01740
   1126706.11300  22280618.42300    903811.22640  22280621.90340
 96  9 10  2 50 30.0050000  0  6  4 14 18 19 22 29
    754783.81400  26163113.50100
   3319321.83800  22047572.65700   2551208.51340  22047577.26340
  -7468082.93700  23717339.97000  -5425105.37840  23717344.64540
  -2853048.34600  25411689.39200  -2136954.30640  25411695.69640
  -5687146.10300  22571051.32100  -4321369.77940  22571055.63440
   1153708.51100  22285756.86800    924852.06840  22285760.39540
 96  9 10  2 51  0.0050000  0  6  4 14 18 19 22 29
    782258.74700  26168341.85300
   3393005.84300  22061594.18800   2608624.61440  22061598.86440
  -7505254.81300  23710266.51700  -5454070.45840  23710270.97040
  -2902220.36000  25402332.07900  -2175270.07140  25402338.19640
  -5646113.12400  22578859.79800  -4289396.02040  22578864.08740
   1180906.56600  22290932.51700    946045.36640  22290936.04440
 96  9 10  2 51 30.0050000  0  6  4 14 18 19 22 29
    810217.34700  26173662.32900      7304.81550  26173668.35340
   3467247.55100  22075721.80600   2666475.29040  22075726.43540
  -7542331.52800  23703211.17300  -5482961.37140  23703215.61440
  -2951205.08100  25393010.68100  -2213439.88940  25393016.66940
  -5604462.60800  22586785.61000  -4256941.05940  22586789.95840
   1208324.76700  22296150.06300    967410.20840  22296153.46240
 96  9 10  2 52  0.0050000  0  6  4 14 18 19 22 29
    838664.77100  26179075.53200     29471.61640  26179077.58340
   3542046.13800  22089955.54800   2724759.89240  22089960.11840
  -7579319.31100  23696172.83700  -5511782.99440  23696177.40740
  -2999996.26100  25383725.47800  -2251458.87440  25383731.61840
  -5562211.59100  22594825.61800  -4224018.17940  22594830.06040
   1235980.97200  22301412.95400    988960.50540  22301416.41140
 96  9 10  2 52 30.0050000  0  6  4 14 18 19 22 29
    867594.97800  26184580.70400     52014.63440  26184585.79040
   3617385.94600  22104292.39900   2783466.22740  22104297.13440
  -7616221.28400  23689150.56300  -5540537.75640  23689154.66540
  -3048606.90000  25374475.66500  -2289337.18340  25374482.07540
  -5519385.27800  22602974.97000  -4190647.01640  22602979.14240
   1263875.46400  22306720.92300   1010696.47840  22306724.52040
 96  9 10  2 53  0.0050000  0  6  4 14 18 19 22 29
    896997.11200  26190175.97000     74925.39840  26190179.31040
   3693248.21100  22118728.43800   2842579.67240  22118733.10340
  -7653042.18200  23682143.65700  -5569229.32740  23682148.12240
  -3097061.13500  25365254.83700  -2327093.63940  25365260.95440
  -5475994.43900  22611232.24300  -4156835.95940  22611236.31040
   1291996.29200  22312072.22800   1032608.82040  22312075.67340
 96  9 10  2 53 30.0050000  0  6  4 14 18 19 22 29
    926861.80600  26195859.31300     98196.59740  26195864.11840
   3769621.50400  22133261.70400   2902091.32240  22133266.33340
  -7689777.60600  23675153.13400  -5597854.30640  23675157.56340
  -3145378.60900  25356060.10300  -2364743.49340  25356065.16540
  -5432028.36300  22619598.68800  -4122576.66940  22619603.15340
   1320328.80400  22317463.61800   1054686.11140  22317467.11040
 96  9 10  2 54  0.0050000  0  6  4 14 18 19 22 29
    957211.25700  26201633.25900    121845.49240  26201636.61040
   3846519.10900  22147894.82100   2962011.52940  22147899.52040
  -7726406.15900  23668182.95400  -5626396.00240  23668187.31340
  -3193531.82500  25346896.68800  -2402265.39340  25346902.87640
  -5387461.21600  22628079.49300  -4087849.00940  22628083.73540
   1348874.59400  22322895.69600   1076929.59440  22322899.24740
 96  9 10  2 54 30.0050000  0  6  4 14 18 19 22 29
    988053.21200  26207503.60300    145878.17640  26207507.75140
   3923940.01200  22162627.61800   3022339.49940  22162632.36440
  -7762906.89200  23661236.92300  -5654838.10840  23661241.28240
  -3241519.76300  25337764.68800  -2439658.49440  25337770.05640
  -5342271.76500  22636678.92300  -4052636.44140  22636683.32940
   1377633.06000  22328368.36000   1099338.79840  22328371.80640
 96  9 10  2 55  0.0050000  0  6  4 14 18 19 22 29
   1019389.85100  26213466.18100    170296.33640  26213472.88440
   4001873.55700  22177457.93100   3083066.92940  22177462.67740
  -7799291.03600  23654313.35300  -5683189.35240  23654317.60640
  -3289342.24800  25328664.64200  -2476922.65340  25328671.15740
  -5296448.28400  22645398.72800  -4016929.82440  22645402.93540
   1406603.59600  22333881.12600   1121913.24440  22333884.50140
 96  9 10  2 55 30.0050000  0  6  4 14 18 19 22 29
   1051202.85100  26219520.24300    195085.66440  26219526.50140
   4080309.84300  22192383.72000   3144186.10640  22192388.40740
  -7835589.54800  23647405.75900  -5711473.88440  23647410.07140
  -3336999.17300  25319595.65700  -2514057.82040  25319602.14940
  -5250004.07300  22654236.59500  -3980739.51940  22654240.86040
   1435772.78700  22339431.93100   1144642.49540  22339435.39940
 96  9 10  2 56  0.0050000  0  6  4 14 18 19 22 29
   1083475.54300  26225661.29800    220233.19940  26225665.64540
   4159253.25200  22207406.32900   3205700.44740  22207411.08740
  -7871796.26600  23640516.00900  -5739686.88540  23640520.34540
  -3384477.50700  25310560.38400  -2551053.84140  25310566.93540
  -5202954.23000  22663189.88400  -3944077.29640  22663194.13840
   1465160.38200  22345024.07900   1167541.93040  22345027.47840
 96  9 10  2 56 30.0050000  0  6  4 14 18 19 22 29
   1116178.11800  26231884.76700    245715.71340  26231887.81340
   4238700.85700  22222524.54800   3267607.66340  22222529.27040
  -7907914.50400  23633642.67300  -5767830.94640  23633646.96240
  -3431795.08900  25301556.27400  -2587924.58340  25301563.15740
  -5155310.96700  22672256.10300  -3906952.66540  22672260.46240
   1494762.36300  22350657.27400   1190608.41340  22350660.68540
 96  9 10  2 57  0.0050000  0  6  4 14 18 19 22 29
   1149298.33600  26238186.47800    271523.67240  26238192.37240
   4318664.76200  22237741.48500   3329917.19340  22237746.22040
  -7943968.55200  23626781.99300  -5795924.97940  23626786.41140
  -3478961.89800  25292580.91500  -2624677.84840  25292587.72440
  -5107086.31300  22681433.14200  -3869374.99940  22681437.38440
   1524568.75300  22356329.31300   1213834.18140  22356332.77040
 96  9 10  2 57 30.0050000  0  6  4 14 18 19 22 29
   1182864.37600  26244575.42300    297679.03140  26244580.63840
   4399169.30900  22253060.84500   3392648.00240  22253065.56740
  -7979923.95800  23619939.64900  -5823942.14440  23619944.02040
  -3525955.72300  25283637.72800  -2661296.33540  25283644.13840
  -5058266.36300  22690723.11000  -3831333.47340  22690727.51740
   1554597.45900  22362043.51700   1237233.18140  22362046.98540
 96  9 10  2 58  0.0050000  0  6  4 14 18 19 22 29
   1216909.44400  26251053.69600    324207.60140  26251058.97040
   4480220.86600  22268484.44600   3455805.05140  22268489.09940
  -8015753.31100  23613121.59500  -5851861.09940  23613126.21240
  -3572774.96100  25274728.63400  -2697778.78140  25274734.78640
  -5008840.79400  22700128.41500  -3792820.03240  22700132.65740
   1584855.84100  22367801.30600   1260811.15040  22367804.81040
 96  9 10  2 58 30.0050000  0  6  4 14 18 19 22 29
   1251445.41900  26257625.06300    351118.78340  26257629.56340
   4561801.09200  22284008.64200   3519374.05440  22284013.37640
  -8051486.16700  23606322.11000  -5879704.85440  23606326.64540
  -3619450.62900  25265846.82900  -2734149.35340  25265854.04040
  -4958821.37800  22709646.96200  -3753843.85340  22709651.32140
   1615318.47200  22373598.33700   1284548.26840  22373601.77040
 96  9 10  2 59  0.0050000  0  6  4 14 18 19 22 29
   1286506.26200  26264296.59500    378438.92940  26264301.84540
   4643924.62000  22299636.25100   3583366.40940  22299640.89240
  -8087110.21800  23599542.83700  -5907463.82140  23599547.50140
  -3665960.42500  25256995.83700  -2770390.67840  25257002.13040
  -4908194.89300  22719280.70400  -3714394.63140  22719284.78240
   1646018.63800  22379440.41500   1308470.48040  22379443.83740
 96  9 10  2 59 30.0050000  0  6  4 14 18 19 22 29
   1322088.78900  26271068.04800    406165.55140  26271073.23940
   4726576.35600  22315364.24300   3647770.34740  22315369.02440
  -8122615.76200  23592786.26700  -5935130.45940  23592790.61440
  -3712295.12900  25248178.23500  -2806495.55840  25248184.22440
  -4856972.53700  22729028.11800  -3674481.09840  22729032.33740
   1676963.42800  22385328.79000   1332583.30940  22385332.13040
 96  9 10  3  0  0.0050000  0  6  4 14 18 19 22 29
   1358170.71000  26277933.48500    434281.28640  26277936.70840
   4809760.58000  22331193.90700   3712589.21840  22331198.60640
  -8158010.17700  23586050.94600  -5962710.49140  23586055.21240
  -3758451.11800  25239395.31300  -2842461.18740  25239400.90340
  -4805154.34300  22738888.81300  -3634103.27740  22738893.00940
   1708154.42400  22391264.28200   1356887.98840  22391267.78640
 96  9 10  3  0 30.0050000  0  6  4 14 18 19 22 29
   1394730.95400  26284890.68100    462769.83540  26284896.78640
   4893468.26700  22347122.97800   3777815.97640  22347127.63040
  -8193301.82000  23579335.21200  -5990210.44540  23579339.38440
  -3804416.25400  25230648.09500  -2878278.11440  25230654.25940
  -4752743.41700  22748862.29000  -3593263.58140  22748866.59140
   1739606.16700  22397249.34500   1381395.84240  22397252.82540
 96  9 10  3  1  0.0050000  0  6  4 14 18 19 22 29
   1431731.87800  26291932.64900    491601.71240  26291937.10340
   4977676.11000  22363146.97800   3843432.46640  22363151.60640
  -8228496.35900  23572637.64900  -6017634.73240  23572641.93840
  -3850194.62900  25221936.97000  -2913949.50740  25221942.58340
  -4699755.05100  22758945.50100  -3551973.93740  22758949.70840
   1771298.38900  22403280.34500   1406091.08340  22403283.81340
 96  9 10  3  1 30.0050000  0  6  4 14 18 19 22 29
   1469178.09700  26299057.95400    520780.58940  26299063.07540
   5062374.58800  22379264.46200   3909431.27640  22379269.07940
  -8263573.79300  23565963.14200  -6044967.76840  23565967.65340
  -3895784.63900  25213261.76700  -2949474.11940  25213267.56740
  -4646171.76700  22769142.05600  -3510220.71340  22769146.33340
   1803217.65100  22409354.26700   1430963.24340  22409357.73540
 96  9 10  3  2  0.0050000  0  6  4 14 18 19 22 29
   1507071.38300  26306269.04800    550307.81540  26306273.41940
   5147550.32700  22395473.16500   3975801.97640  22395477.80640
  -8298539.69800  23559309.06300  -6072213.90040  23559313.62240
  -3941199.41100  25204619.10300  -2984862.17340  25204626.32540
  -4591987.08900  22779453.12600  -3467998.87540  22779457.43840
   1835359.50200  22415470.61000   1456008.84940  22415474.17340
 96  9 10  3  2 30.0050000  0  6  4 14 18 19 22 29
   1545417.67000  26313567.11800    580188.04840  26313572.79040
   5233195.17300  22411770.63400   4042538.21040  22411775.32140
  -8333389.36300  23552677.52400  -6099369.45640  23552681.94240
  -3986449.23900  25196008.75100  -3020121.72140  25196015.16140
  -4537197.41800  22789878.92300  -3425305.61540  22789883.28240
   1867725.02400  22421629.61800   1481228.73640  22421632.95840
 96  9 10  3  3  0.0050000  0  6  4 14 18 19 22 29
   1584203.22800  26320946.25900    610410.52440  26320950.94640
   5319297.02400  22428155.34500   4109630.55440  22428159.98540
  -8368122.47200  23546067.89200  -6126434.18840  23546072.11040
  -4031558.87600  25187424.01700  -3055272.00840  25187428.93840
  -4481817.61900  22800417.59500  -3382152.51640  22800421.93140
   1900291.64700  22427826.82100   1506605.33040  22427830.20840
 96  9 10  3  3 30.0050000  0  6  4 14 18 19 22 29
   1623450.41800  26328415.84500    640992.70240  26328420.50940
   5405870.81200  22444629.86000   4177090.64140  22444634.54840
  -8402733.71800  23539481.39200  -6153403.96940  23539485.62240
  -4076517.13900  25178869.51700  -3090304.36940  25178875.35340
  -4425839.05500  22811069.81300  -3338532.84140  22811074.09140
   1933081.88400  22434066.74300   1532156.16740  22434070.21240
 96  9 10  3  4  0.0050000  0  6  4 14 18 19 22 29
   1663164.37300  26335973.07900    671938.67440  26335977.83740
   5492943.23900  22461199.08700   4244939.27640  22461203.84540
  -8437218.85200  23532919.53200  -6180275.47840  23532923.50540
  -4121300.38300  25170347.63400  -3125200.33540  25170352.88440
  -4369261.19600  22821836.22800  -3294446.19340  22821840.61040
   1966119.59400  22440353.50100   1557899.83840  22440356.87640
 96  9 10  3  4 30.0050000  0  6  4 14 18 19 22 29
   1703355.85200  26343619.19600    703256.69740  26343624.34140
   5580532.89800  22477866.93100   4313190.95240  22477871.71240
  -8471566.63700  23526383.19600  -6207039.96840  23526387.31040
  -4165898.69700  25161860.26700  -3159952.16640  25161866.70040
  -4312095.69900  22832714.51700  -3249901.63840  22832718.79440
   1999405.69400  22446687.64900   1583837.05940  22446691.13040
 96  9 10  3  5  0.0050000  0  6  4 14 18 19 22 29
   1744020.59200  26351358.76700    734943.44740  26351362.78640
   5668627.35900  22494630.72000   4381835.98140  22494635.36040
  -8505804.56000  23519867.57100  -6233718.84240  23519871.83740
  -4210317.76100  25153407.41500  -3194564.36640  25153414.46240
  -4254373.56500  22843698.64200  -3204923.34340  22843703.06040
   2032909.59000  22453063.26700   1609943.99240  22453066.61840
 96  9 10  3  5 30.0050000  0  6  4 14 18 19 22 29
   1785150.75500  26359186.57900    766992.94040  26359190.88040
   5757214.63900  22511488.40700   4450865.02240  22511493.10640
  -8539963.58200  23513367.84500  -6260336.24840  23513372.12240
  -4254563.18400  25144988.04000  -3229041.26040  25144994.28640
  -4196110.86300  22854785.68800  -3159523.82740  22854790.02440
   2066617.05900  22459477.54800   1636209.55040  22459481.02840
 96  9 10  3  6  0.0050000  0  6  4 14 18 19 22 29
   1826753.19500  26367102.86800    799410.43140  26367107.19240
   5846304.96000  22528441.83700   4520286.04840  22528446.63040
  -8574028.02300  23506885.18800  -6286879.94540  23506889.52440
  -4298621.94900  25136603.79000  -3263372.67840  25136609.77840
  -4137305.67100  22865975.82100  -3113701.58640  22865980.13440
   2100533.03000  22465931.37600   1662637.58140  22465934.79840
 96  9 10  3  6 30.0060000  0  6  4 14 18 19 22 29
   1868818.09200  26375106.59200    832188.23340  26375114.84640
   5935890.21100  22545489.20900   4590092.73140  22545493.94340
  -8607994.81500  23500421.31100  -6313347.54640  23500425.44740
  -4342506.76200  25128252.55300  -3297568.55640  25128258.62340
  -4077960.97200  22877268.81800  -3067458.95840  22877273.03740
   2134650.64300  22472423.82600   1689222.73440  22472427.23640
 96  9 10  3  7  0.0060000  0  6  4 14 18 19 22 29
   1911338.35800  26383198.88900    865320.90940  26383205.48640
   6025963.90900  22562629.77900   4660280.01740  22562634.47840
  -8641856.85800  23493977.78700  -6339733.53340  23493981.83040
  -4386206.98100  25119936.55300  -3331620.58940  25119942.61140
  -4018053.09400  22888668.88100  -3020777.48740  22888673.04140
   2168993.08200  22478958.97500   1715983.07340  22478962.42040
 96  9 10  3  7 30.0060000  0  6  4 14 18 19 22 29
   1954294.36400  26391373.41200    898793.11840  26391375.41640
   6116520.72200  22579861.92800   4730843.75540  22579866.79140
  -8675590.66100  23487558.51400  -6366019.58640  23487562.96740
  -4429730.99300  25111653.75600  -3365535.33940  25111659.53340
  -3957563.76500  22900179.85700  -2973642.94340  22900184.21740
   2203594.50100  22485543.38900   1742945.21540  22485546.96340
 96  9 10  3  8  0.0060000  0  6  4 14 18 19 22 29
   1997698.44500  26399631.67000    932614.42640  26399634.90440
   6207578.98000  22597189.89600   4801798.23740  22597194.58440
  -8709162.29900  23481170.20100  -6392179.27740  23481174.49040
  -4473071.79900  25103406.85700  -3399307.31640  25103412.47140
  -3896463.24600  22911806.70900  -2926032.14240  22911810.85740
   2238480.21400  22492182.02100   1770128.88840  22492185.44340
 96  9 10  3  8 30.0060000  0  6  4 14 18 19 22 29
   2041531.34100  26407973.67000    966769.86740  26407979.61140
   6299124.25600  22614610.36500   4873132.21040  22614615.07640
  -8742590.48500  23474808.84200  -6418227.19040  23474813.14340
  -4516253.16000  25095189.58400  -3432955.04540  25095194.88140
  -3834747.75000  22923550.84200  -2877942.14040  22923555.17840
   2273644.62000  22498873.56100   1797529.72040  22498877.00640
 96  9 10  3  9  0.0060000  0  6  4 14 18 19 22 29
   2085786.37000  26416394.95100   1001254.29340  26416399.32240
   6391144.62100  22632121.38900   4944836.37940  22632126.11140
  -8775899.12000  23468470.41200  -6444181.94440  23468474.45540
  -4559287.61000  25087000.39600  -3466488.31840  25087006.90040
  -3772415.27300  22935412.10000  -2829371.37240  22935416.34240
   2309073.21100  22505615.39600   1825136.41340  22505618.94740
 96  9 10  3  9 30.0060000  0  6  4 14 18 19 22 29
   2130467.36300  26424896.18600   1036070.69940  26424902.61940
   6483655.07000  22649725.53700   5016922.43140  22649730.38940
  -8809081.58600  23462155.81100  -6470038.38540  23462160.01840
  -4602167.02300  25078840.69300  -3499900.78240  25078845.94340
  -3709468.89900  22947390.60700  -2780322.24340  22947394.87340
   2344752.27800  22512404.77100   1852938.28140  22512408.26440
 96  9 10  3 10  0.0060000  0  6  4 14 18 19 22 29
   2175597.78100  26433485.50600   1071237.18440  26433489.86540
   6576679.35800  22667427.30300   5089408.87340  22667432.04940
  -8842134.85500  23455866.13100  -6495794.16040  23455870.24440
  -4644869.85700  25070714.76400  -3533175.65440  25070720.68240
  -3645913.47400  22959484.64600  -2730798.53440  22959488.93640
   2380670.37100  22519239.99800   1880926.39840  22519243.52540
 96  9 10  3 10 30.0060000  0  6  4 14 18 19 22 29
   2221179.31800  26442159.75600   1106755.23940  26442164.58440
   6670211.40100  22685225.92800   5162290.98240  22685230.62740
  -8875061.88400  23449600.38100  -6521451.55740  23449604.78740
  -4687373.02500  25062626.29500  -3566294.94740  25062632.49440
  -3581763.54600  22971692.07600  -2680811.57640  22971696.31840
   2416823.26300  22526119.56100   1909097.47440  22526123.12340
 96  9 10  3 11  0.0060000  0  6  4 14 18 19 22 29
   2267206.44900  26450918.24000   1142620.50140  26450923.17440
   6764241.37600  22703119.10000   5235561.08440  22703124.03340
  -8907862.06200  23443358.39600  -6547010.11340  23443362.80340
  -4729663.79600  25054578.77900  -3599248.71740  25054584.43940
  -3517048.03900  22984007.13900  -2630383.90740  22984011.47540
   2453211.14900  22533043.82600   1937451.66340  22533047.43640
 96  9 10  3 11 30.0060000  0  6  4 14 18 19 22 29
   2313700.64400  26459766.20100   1178849.73140  26459771.88540
   6858768.31700  22721107.20900   5309218.42140  22721112.10740
  -8940502.82400  23437147.06100  -6572444.44640  23437151.38540
  -4771719.41700  25046575.49000  -3632019.26740  25046580.52940
  -3451778.86400  22996427.35000  -2579524.80840  22996431.86140
   2489864.34800  22540018.71700   1966012.59940  22540022.13940
 96  9 10  3 12  0.0060000  0  6  4 14 18 19 22 29
   2360651.66600  26468700.80300   1215434.90040  26468704.64640
   6953755.77000  22739182.46700   5383234.60640  22739187.28340
  -8972990.55100  23430965.10000  -6597759.54040  23430969.17840
  -4813552.97400  25038614.63100  -3664616.78240  25038619.93940
  -3385976.14600  23008949.07600  -2528249.96340  23008953.45940
   2526779.43400  22547043.44300   1994777.59440  22547046.94740
 96  9 10  3 12 30.0060000  0  6  4 14 18 19 22 29
   2408051.27000  26477719.51400   1252369.62440  26477724.04940
   7049184.27900  22757341.81100   5457594.47540  22757346.60340
  -9005335.09000  23424810.00600  -6622963.05240  23424814.48240
  -4855170.56000  25030695.13900  -3697046.00240  25030700.51840
  -3319632.18400  23021574.08400  -2476553.36840  23021578.46740
   2563964.00800  22554119.51400   2023752.58340  22554122.92440
 96  9 10  3 13  0.0060000  0  6  4 14 18 19 22 29
   2455916.86100  26486829.03700   1289667.47640  26486832.65840
   7145063.91700  22775587.54500   5532305.87540  22775592.42040
  -9037511.24300  23418686.92800  -6648035.35940  23418690.94740
  -4896576.03200  25022816.24800  -3729309.95340  25022821.88540
  -3252727.00100  23034305.56800  -2424419.45940  23034309.85740
   2601435.73800  22561250.03700   2052951.33440  22561253.49440
 96  9 10  3 13 30.0060000  0  6  4 14 18 19 22 29
   2504246.98800  26496025.99800   1327327.25440  26496028.41240
   7241388.72400  22793917.60700   5607364.15440  22793922.35340
  -9069514.94800  23412597.01400  -6672973.28840  23412601.38540
  -4937799.26200  25014971.42800  -3761431.88740  25014977.04140
  -3185245.34000  23047146.88900  -2371836.34540  23047151.17840
   2639165.50300  22568429.71700   2082351.14440  22568433.22140
 96  9 10  3 14  0.0060000  0  6  4 14 18 19 22 29
   2553028.20700  26505309.27900   1365338.58040  26505313.28740
   7338174.43500  22812335.13100   5682781.58040  22812339.86540
  -9101362.48000  23406536.53700  -6697789.52240  23406540.88540
  -4978852.13700  25007158.60000  -3793421.07940  25007164.44740
  -3117171.78100  23060101.06100  -2318792.01740  23060105.36140
   2677138.26300  22575655.74800   2111940.30440  22575659.31140
 96  9 10  3 14 30.0060000  0  6  4 14 18 19 22 29
   2602258.82500  26514676.44300   1403700.09840  26514681.97540
   7435433.06900  22830842.86500   5758567.52140  22830847.56440
  -9133066.42200  23400503.44300  -6722493.87740  23400507.75640
  -5019746.01800  24999377.62300  -3825286.39140  24999382.81440
  -3048499.42000  23073168.98200  -2265281.08840  23073173.47140
   2715346.52600  22582926.66200   2141712.97340  22582930.15440
 96  9 10  3 15  0.0060000  0  6  4 14 18 19 22 29
   2651939.56300  26524130.24000   1442412.29440  26524136.97840
   7533176.73200  22849442.94300   5834731.39840  22849447.79540
  -9164611.24100  23394500.77900  -6747074.23240  23394504.85740
  -5060481.39800  24991625.48200  -3857028.18040  24991631.34240
  -2979230.61600  23086350.30300  -2211305.39840  23086354.51040
   2753790.63300  22590242.29500   2171669.41640  22590245.82240
 96  9 10  3 15 30.0060000  0  6  4 14 18 19 22 29
   2702024.78100  26533662.72500   1481439.71640  26533666.97840
   7631391.97000  22868132.59200   5911262.74340  22868137.43240
  -9196043.74800  23388519.06100  -6771567.07240  23388523.37340
  -5101074.04700  24983900.92800  -3888658.77540  24983906.30740
  -2909397.22200  23099639.25600  -2156889.76240  23099643.60340
   2792451.51700  22597599.29500   2201794.77940  22597602.85740
 96  9 10  3 16  0.0060000  0  6  4 14 18 19 22 29
   2752514.27600  26543269.28700   1520782.14840  26543275.41640
   7730091.59600  22886914.60000   5988171.52840  22886919.32240
  -9227367.53900  23382558.60000  -6795975.20840  23382562.77140
  -5141489.86400  24976210.40400  -3920151.57340  24976216.15840
  -2839001.39500  23113034.91200  -2102035.87840  23113039.31840
   2831365.82700  22605004.33400   2232117.61540  22605007.86140
 96  9 10  3 16 30.0060000  0  6  4 14 18 19 22 29
   2803424.85300  26552957.25600   1560452.71140  26552962.43640
   7829283.47900  22905790.10000   6065463.88840  22905795.13940
  -9258550.53700  23376624.47500  -6820273.63140  23376628.75240
  -5181695.95500  24968559.25600  -3951480.94040  24968565.61940
  -2768036.39400  23126539.03700  -2046738.47340  23126543.51440
   2870561.32800  22612463.11500   2262659.56140  22612466.63140
 96  9 10  3 17  0.0060000  0  6  4 14 18 19 22 29
   2854748.74700  26562723.63100   1600445.33540  26562728.96340
   7928946.07700  22924755.28700   6143123.04240  22924760.12740
  -9289593.55400  23370717.24000  -6844462.97940  23370721.30740
  -5221685.95500  24960949.23200  -3982641.95840  24960954.60040
  -2696524.72100  23140147.20900  -1991015.09140  23140151.56840
   2910038.48600  22619975.47500   2293420.97940  22619978.92040
 96  9 10  3 17 30.0060000  0  6  4 14 18 19 22 29
   2906481.20800  26572567.24800   1640756.25640  26572572.33440
   8029059.70000  22943806.35700   6221133.64340  22943811.12740
  -9320510.00000  23364834.13100  -6868553.69740  23364838.56140
  -5261476.72000  24953377.23200  -4013647.69140  24953382.82240
  -2624479.23000  23153857.17000  -1934875.74740  23153861.54140
   2949790.09500  22627539.81100   2324396.25440  22627543.24440
 96  9 10  3 18  0.0060000  0  6  4 14 18 19 22 29
   2958638.32800  26582493.48200   1681398.19040  26582496.38940
   8129607.39000  22962939.82600   6299482.47440  22962944.58440
  -9351281.02800  23358978.53700  -6892531.10440  23358982.72140
  -5301086.07900  24945840.13100  -4044512.09740  24945845.20540
  -2551910.53600  23167666.65400  -1878328.71440  23167670.99040
   2989797.99600  22635153.07600   2355571.24240  22635156.54540
 96  9 10  3 18 30.0060000  0  6  4 14 18 19 22 29
   3011248.51600  26592504.95100   1722393.06540  26592510.07240
   8230597.54100  22982157.61500   6378176.08540  22982162.44340
  -9381878.02600  23353156.10700  -6916372.91040  23353160.30340
  -5340513.03800  24938337.20900  -4075234.35340  24938342.77540
  -2478808.90000  23181577.31100  -1821366.40340  23181581.63540
   3030066.46000  22642815.87300   2386949.25940  22642819.36540
 96  9 10  3 19  0.0060000  0  6  4 14 18 19 22 29
   3064316.97600  26602602.74800   1763745.09040  26602609.19340
   8332037.51500  23001461.04500   6457220.20740  23001465.86140
  -9412286.24100  23347369.58400  -6940067.60740  23347373.77940
  -5379762.65100  24930868.38900  -4105818.42640  24930874.71740
  -2405163.92400  23195591.35700  -1763980.70840  23195595.79940
   3070615.07000  22650531.94300   2418545.57640  22650535.42440
 96  9 10  3 19 30.0060000  0  6  4 14 18 19 22 29
   3117802.72200  26612781.93600   1805422.21840  26612786.11940
   8433903.02300  23020845.44300   6536595.91240  23020850.33040
  -9442533.30200  23341613.60000  -6963636.73640  23341617.72540
  -5418869.07400  24923426.74800  -4136290.92140  24923432.81840
  -2331003.89700  23209703.68600  -1706193.67540  23209708.13940
   3111415.12700  22658296.06100   2450337.82440  22658299.49440
 96  9 10  3 20  0.0060000  0  6  4 14 18 19 22 29
   3171706.69700  26623040.70900   1847425.30840  26623044.48240
   8536203.81100  23040312.60000   6616310.80140  23040317.56840
  -9472601.00400  23335892.06800  -6987066.09440  23335896.00640
  -5457804.89500  24916017.28700  -4166630.49040  24916023.12340
  -2256315.46100  23223916.48200  -1647994.89640  23223920.70140
   3152475.69800  22666109.60000   2482333.07040  22666113.11540
 96  9 10  3 20 30.0060000  0  6  4 14 18 19 22 29
   3226024.77500  26633375.61500   1889751.03840  26633378.96740
   8638938.85300  23059862.42800   6696364.06640  23059867.37340
  -9502485.56600  23330205.21700  -7010352.75040  23330209.16640
  -5496544.84800  24908645.35700  -4196817.43540  24908650.23240
  -2181074.76000  23238234.26400  -1589365.78040  23238238.38940
   3193824.02300  22673977.89600   2514552.53840  22673981.40040
 96  9 10  3 21  0.0060000  0  6  4 14 18 19 22 29
   3280731.57200  26643785.54500   1932379.69340  26643791.60340
   8742095.98200  23079492.59200   6776746.22840  23079497.49040
  -9532204.81900  23324549.75600  -7033510.59440  23324553.99840
  -5535094.26000  24901309.16200  -4226855.89740  24901314.54140
  -2105278.94600  23252657.58400  -1530304.11140  23252661.80340
   3235448.79900  22681898.80300   2546987.42440  22681902.24840
 96  9 10  3 21 30.0060000  0  6  4 14 18 19 22 29
   3335828.34200  26654270.44300   1975312.14440  26654274.73240
   8845678.23700  23099203.56800   6857459.65940  23099208.40840
  -9561777.79000  23318922.42000  -7056554.45540  23318926.54540
  -5573455.39800  24894009.56800  -4256747.64340  24894014.83040
  -2028931.54800  23267186.20900  -1470812.63640  23267190.63940
   3277321.70400  22689866.88900   2579615.65840  22689870.38140
 96  9 10  3 22  0.0060000  0  6  4 14 18 19 22 29
   3391330.26800  26664832.20100   2018560.32340  26664837.60340
   8949692.43600  23118996.99800   6938509.66740  23119001.85040
  -9591191.16500  23313325.32600  -7079473.96040  23313329.39340
  -5611623.23200  24886746.57600  -4286488.78440  24886751.74440
  -1952019.43600  23281822.16200  -1410881.12740  23281826.46340
   3319447.64500  22697883.38100   2612441.05840  22697886.80340
 96  9 10  3 22 30.0060000  0  6  4 14 18 19 22 29
   3447241.28600  26675472.14600   2062127.38240  26675475.00640
   9054147.62400  23138874.02900   7019903.30540  23138878.89340
  -9620454.02700  23307756.59200  -7102276.18340  23307760.55340
  -5649609.18500  24879517.79500  -4316088.18740  24879523.76040
  -1874542.59500  23296565.59200  -1350509.56540  23296569.77540
   3361837.61900  22705949.85000   2645472.20540  22705953.34240
 96  9 10  3 23  0.0060000  0  6  4 14 18 19 22 29
   3503572.61600  26686190.74000   2106021.86440  26686195.69740
   9159071.36600  23158840.38900   7101662.04640  23158845.27540
  -9649563.56000  23302217.24000  -7124958.93040  23302221.45940
  -5687413.31600  24872324.07600  -4345545.92440  24872328.88140
  -1796504.66500  23311415.61500  -1289700.79740  23311419.83440
   3404498.86700  22714067.94300   2678714.73040  22714071.44740
 96  9 10  3 23 30.0060000  0  6  4 14 18 19 22 29
   3560314.75300  26696990.07600   2150236.50040  26696995.95940
   9264441.90800  23178891.86500   7183768.94440  23178896.72840
  -9678526.64300  23296705.50600  -7147527.56040  23296709.74840
  -5725063.77000  24865159.55300  -4374883.90640  24865164.86140
  -1717928.70200  23326368.06100  -1228472.78040  23326372.22140
   3447421.66300  22722235.96700   2712161.05940  22722239.35340
 96  9 10  3 24  0.0060000  0  6  4 14 18 19 22 29
   3617481.50900  26707868.88100   2194781.94940  26707873.20540
   9370267.38700  23199029.66200   7266230.33240  23199034.50240
  -9707301.99200  23291229.88100  -7169949.90740  23291233.93640
  -5762528.35500  24858030.27900  -4404077.05440  24858035.44740
  -1638791.97100  23341427.29500  -1166807.80140  23341431.45540
   3490647.73900  22730461.66200   2745843.70940  22730465.17840
 96  9 10  3 24 30.0060000  0  6  4 14 18 19 22 29
   3675055.07100  26718823.57600   2239644.42740  26718828.69740
   9476537.21200  23219252.04500   7349037.97240  23219257.15440
  -9735904.44100  23285787.04500  -7192237.52040  23285791.13540
  -5799805.57600  24850936.35700  -4433124.21040  24850941.36140
  -1559115.02900  23356589.20100  -1104721.87540  23356593.61940
   3534161.26300  22738741.99800   2779750.34840  22738745.42040
 96  9 10  3 25  0.0060000  0  6  4 14 18 19 22 29
   3733033.17300  26729856.60000   2284822.09440  26729862.67040
   9583235.35700  23239556.38100   7432179.36040  23239561.36140
  -9764318.40200  23280379.92800  -7214378.26140  23280384.10040
  -5836893.16300  24843879.01400  -4462023.58540  24843884.20540
  -1478902.31000  23371853.28700  -1042218.47040  23371857.63540
   3577955.02200  22747075.53700   2813875.34440  22747079.01840
 96  9 10  3 25 30.0060000  0  6  4 14 18 19 22 29
   3791392.75800  26740961.10000   2330297.07640  26740966.13940
   9690338.19900  23259937.24000   7515636.10440  23259942.17440
  -9792543.20200  23275008.98200  -7236371.60540  23275013.13140
  -5873795.45500  24836856.59200  -4490778.58240  24836861.49040
  -1398173.57700  23387215.37300   -979312.97340  23387219.63940
   3622007.61700  22755458.49000   2848202.03640  22755461.91240
 96  9 10  3 26  0.0060000  0  6  4 14 18 19 22 29
   3850131.09500  26752139.57600   2376067.15740  26752144.24040
   9797858.20700  23280397.60000   7599417.91040  23280402.69740
  -9820580.79200  23269673.79500  -7258219.07240  23269677.82640
  -5910486.18600  24829874.47500  -4519368.72740  24829880.02940
  -1316933.04800  23402674.69300   -916008.67140  23402679.05340
   3666320.61800  22763891.12300   2882731.63840  22763894.62740
 96  9 10  3 26 30.0060000  0  6  4 14 18 19 22 29
   3909256.67100  26763391.12300   2422138.94240  26763396.85340
   9905786.99600  23300935.88100   7683518.24940  23300940.94340
  -9848443.70100  23264371.60700  -7279930.41340  23264375.66240
  -5946985.09600  24822929.16200  -4547809.39140  24822934.38940
  -1235186.57800  23418230.73200   -852310.12140  23418235.12740
   3710888.64200  22772372.22500   2917459.96240  22772375.74040
 96  9 10  3 27  0.0060000  0  6  4 14 18 19 22 29
   3968781.42100  26774717.02900   2468521.89040  26774722.52540
  10014134.24300  23321553.50600   7767944.65540  23321558.55740
  -9876119.08700  23259105.16200  -7301495.64640  23259109.25240
  -5983293.83000  24816019.87300  -4576101.86940  24816025.55740
  -1152917.35500  23433886.14600   -788204.23940  23433890.36540
   3755735.76300  22780906.31100   2952405.76540  22780909.90840
 96  9 10  3 27 30.0060000  0  6  4 14 18 19 22 29
   4028708.46100  26786121.88900   2515218.20540  26786128.22840
  10122908.58700  23342252.62300   7852703.87040  23342257.86140
  -9903609.51900  23253873.70900  -7322916.75040  23253877.74040
  -6019394.32300  24809149.97500  -4604232.07940  24809155.18940
  -1070127.99800  23449640.53700   -723693.06040  23449645.04940
   3800863.48200  22789493.85700   2987570.21540  22789497.32640
 96  9 10  3 28  0.0060000  0  6  4 14 18 19 22 29
   4089017.98000  26797598.90400   2562212.57240  26797603.43940
  10232064.26600  23363024.16200   7937760.22140  23363029.20140
  -9930955.88400  23248670.01400  -7344225.59940  23248674.09240
  -6055322.59500  24802313.38100  -4632228.10640  24802319.42840
   -986850.06700  23465487.63900   -658801.18140  23465491.83440
   3846246.57500  22798129.72500   3022933.65340  22798133.18240
 96  9 10  3 28 30.0060000  0  6  4 14 18 19 22 29
   4149725.73700  26809150.64600   2609517.22640  26809156.64640
  10341619.84300  23383871.92000   8023128.18640  23383876.77140
  -9958127.09200  23243499.49000  -7365397.95740  23243503.55740
  -6091070.12700  24795510.51400  -4660083.28140  24795516.01040
   -903066.87700  23481430.94300   -593515.58240  23481435.15040
   3891912.12100  22806819.76400   3058517.19040  22806823.27940
 96  9 10  3 29  0.0060000  0  6  4 14 18 19 22 29
   4210817.49300  26820776.85700   2657121.13740  26820782.23640
  10451581.45300  23404796.88100   8108812.54240  23404801.77940
  -9985119.46100  23238362.92000  -7386430.95640  23238367.09240
  -6126622.45300  24788744.74800  -4687786.35640  24788749.86940
   -818784.09600  23497469.61500   -527840.69940  23497474.06840
   3937859.07700  22815563.16200   3094320.00840  22815566.66640
 96  9 10  3 29 30.0060000  0  6  4 14 18 19 22 29
   4272271.00400  26832470.83400   2705006.92140  26832477.25640
  10561912.93500  23425792.50600   8194785.10640  23425797.62740
 -10011952.11600  23233256.68600  -7407339.50740  23233260.76440
  -6161989.84200  24782014.69300  -4715345.31840  24782019.87340
   -734032.54100  23513597.27100   -461800.53140  23513601.70140
   3984067.83300  22824356.47500   3130326.82040  22824359.97840
 96  9 10  3 30  0.0060000  0  6  4 14 18 19 22 29
   4334098.10500  26844235.65400   2753183.87640  26844240.61140
  10672640.41200  23446863.08400   8281066.24040  23446867.99440
 -10038603.29200  23228185.45100  -7428106.64240  23228189.62340
  -6197174.52100  24775319.21700  -4742761.90340  24775324.78340
   -648789.64400  23529818.52100   -395377.50340  23529822.70540
   4030563.34000  22833204.13100   3166557.07740  22833207.60040
 96  9 10  3 30 30.0060000  0  6  4 14 18 19 22 29
   4396281.40800  26856069.19300   2801638.33540  26856075.26440
  10783774.84400  23468011.27100   8367664.47840  23468016.20540
 -10065064.95100  23223149.79500  -7448726.10440  23223153.90840
  -6232180.23700  24768657.81800  -4770039.05240  24768663.05740
   -563051.79700  23546133.82600   -328568.79740  23546138.25640
   4077347.73300  22842107.10000   3203012.44240  22842110.65040
 96  9 10  3 31  0.0070000  0  6  4 14 18 19 22 29
   4458820.10100  26867969.15900   2850369.73640  26867975.13640
  10895295.19200  23489232.97200   8454563.43140  23489237.84740
 -10091348.17800  23218148.17500  -7469206.52640  23218152.19440
  -6267004.10300  24762031.23700  -4797174.49540  24762036.89740
   -476821.17900  23562542.83100   -261376.11740  23562547.16740
   4124413.01000  22851063.08900   3239686.67740  22851066.51140
 96  9 10  3 31 30.0070000  0  6  4 14 18 19 22 29
   4521729.07600  26879940.17500   2899389.65740  26879945.19040
  11007206.16700  23510528.87800   8541766.77340  23510533.99940
 -10117432.41700  23213184.75300  -7489531.89640  23213188.89040
  -6301643.08200  24755439.55000  -4824165.86640  24755444.67140
   -390089.88800  23579047.26100   -193793.30040  23579051.69040
   4171763.30300  22860073.74500   3276583.00240  22860077.31940
 96  9 10  3 32  0.0070000  0  7  3  4 14 18 19 22 29
    -21646.62110  26863963.08900
   4585020.87200  26891984.42500   2948707.90540  26891988.81940
  11119532.44200  23531903.90900   8629293.72240  23531908.93640
 -10143304.83900  23208261.05000  -7509692.21240  23208265.12840
  -6336098.74800  24748882.96400  -4851014.39840  24748888.33140
   -302842.04800  23595650.04200   -125807.97340  23595654.41340
   4219404.24800  22869139.49500   3313705.80940  22869143.11640
 96  9 10  3 32 30.0070000  0  7  3  4 14 18 19 22 29
    -59805.85200  26856700.80000
   4648680.11400  26904099.55800   2998312.45140  26904104.66740
  11232242.82500  23553352.12000   8717119.97640  23553357.20640
 -10168993.24000  23203372.69000  -7529709.13640  23203376.96840
  -6370374.95900  24742360.29200  -4877723.10240  24742365.22640
   -215100.62300  23612346.80000    -57438.03840  23612350.93640
   4267310.48800  22878255.71400   3351035.33940  22878259.25340
 96  9 10  3 33  0.0070000  0  6  3 14 18 19 22 29
    -97883.06800  26849455.49500      -987.14250  26849461.53040
  11345354.99200  23574876.67500   8805259.31340  23574881.70240
 -10194482.52300  23198522.39400  -7549570.90640  23198526.42540
  -6404453.22000  24735874.95600  -4904277.56440  24735879.97240
   -126846.62000  23629140.82300     11331.30540  23629145.21840
   4315492.54700  22887424.56500   3388579.78940  22887428.21040
 96  9 10  3 33 30.0070000  0  6  3 14 18 19 22 29
   -135876.63500  26842224.81500    -30592.50840  26842230.42940
  11458871.28300  23596478.20600   8893713.54740  23596483.31540
 -10219783.32000  23193707.87000  -7569285.80640  23193711.97240
  -6438347.32700  24729425.21400  -4930688.50440  24729430.66340
    -38079.87200  23646032.88600     80500.19240  23646037.25740
   4363954.43400  22896646.45600   3426342.29540  22896650.11240
 96  9 10  3 34  0.0070000  0  6  3 14 18 19 22 29
   -173801.56100  26835008.59700    -60144.40440  26835013.85840
  11572780.10500  23618154.26100   8982473.65040  23618159.39440
 -10244910.24200  23188926.41700  -7588865.21140  23188930.54240
  -6472051.54000  24723011.54200  -4956951.50140  24723016.71040
     51186.47700  23663019.53400    150058.38540  23663023.58940
   4412702.20100  22905922.95600   3464327.55540  22905926.49540
 96  9 10  3 34 30.0070000  0  6  3 14 18 19 22 29
   -211649.82700  26827806.22900    -89636.60640  26827811.19840
  11687063.93700  23639901.68300   9071525.97340  23639906.73340
 -10269851.72000  23184179.99500  -7608300.11540  23184184.17940
  -6505567.19900  24716633.69800  -4983067.56640  24716638.36240
    140950.19400  23680101.07300    220004.12840  23680105.23340
   4461742.75400  22915254.87800   3502540.96940  22915258.48740
 96  9 10  3 35  0.0070000  0  6  3 14 18 19 22 29
   -249413.28900  26820620.12000   -119062.63540  26820625.60440
  11801708.36200  23661717.87000   9160859.27640  23661722.92140
 -10294593.93000  23179471.83900  -7627579.74940  23179476.02240
  -6538897.54800  24710291.32300  -5009039.24040  24710296.91340
    231202.92700  23697275.68300    290330.92440  23697280.08940
   4511090.55100  22924645.68300   3540993.79140  22924649.24540
 96  9 10  3 35 30.0070000  0  6  3 14 18 19 22 29
   -287075.80200  26813453.31500   -148410.07440  26813458.42540
  11916717.02000  23683603.32300   9250476.39540  23683608.21040
 -10319118.08400  23174805.06500  -7646689.47040  23174809.08540
  -6572023.83200  24703987.60400  -5034851.89840  24703992.92540
    321941.27700  23714542.53400    361036.12640  23714546.82340
   4560763.84100  22934098.15900   3579700.24440  22934101.68640
 96  9 10  3 36  0.0070000  0  6  3 14 18 19 22 29
   -324614.24400  26806310.16700   -177660.83840  26806315.74540
  12032111.26300  23705562.02600   9340393.96840  23705567.08940
 -10343384.55900  23170187.24500  -7665598.39440  23170191.25340
  -6604923.45500  24697727.40100  -5060487.93040  24697732.47640
    413181.16600  23731904.91700    432132.13540  23731909.28840
   4610770.80600  22943614.01100   3618666.70440  22943617.57340
 96  9 10  3 36 30.0070000  0  6  3 14 18 19 22 29
   -362033.75100  26799188.68300   -206818.93140  26799195.49140
  12147857.76200  23727588.01900   9430586.03640  23727592.98740
 -10367421.91900  23165613.05000  -7684328.79440  23165617.17540
  -6637627.69100  24691503.42500  -5085971.72240  24691508.44040
    504901.94300  23749358.83900    503602.86240  23749363.05840
   4661068.30200  22953185.33100   3657859.55440  22953188.88240
 96  9 10  3 37  0.0070000  0  6  3 14 18 19 22 29
   -399345.03700  26792088.72900   -235892.64940  26792094.60140
  12263968.49000  23749683.00300   9521061.90640  23749687.96040
 -10391252.27200  23161078.43300  -7702897.88740  23161082.49940
  -6670131.94700  24685318.10400  -5111299.67340  24685323.03840
    597108.79000  23766905.29200    575452.34840  23766909.85140
   4711645.65100  22962809.89400   3697270.47340  22962813.32740
 96  9 10  3 37 30.0070000  0  6  3 14 18 19 22 29
   -436545.07100  26785010.53400   -264879.69340  26785015.50340
  12380456.29100  23771849.97900   9611831.61040  23771855.03040
 -10414874.55900  23156583.01900  -7721304.85040  23156587.01540
  -6702446.53500  24679169.06500  -5136479.83540  24679174.39740
    689811.09600  23784545.81500    647687.90640  23784550.11640
   4762491.08700  22972485.57300   3736890.29240  22972489.12440
 96  9 10  3 38  0.0070000  0  6  3 14 18 19 22 29
   -473630.35200  26777952.98700   -293777.35140  26777958.43640
  12497321.94900  23794088.77600   9702895.74140  23794093.83940
 -10438288.52500  23152127.51900  -7739549.48840  23152131.46840
  -6734579.94900  24673054.30800  -5161518.82740  24673059.65140
    783015.46100  23802282.12000    720314.67340  23802286.46840
   4813610.25000  22982213.21400   3776723.40040  22982216.77640
 96  9 10  3 38 30.0070000  0  6  3 14 18 19 22 29
   -510606.42700  26770917.65900   -322589.86640  26770922.78040
  12614568.44000  23816400.22900   9794256.62240  23816404.96440
 -10461501.71500  23147710.08100  -7757637.68040  23147714.03040
  -6766535.42200  24666972.90100  -5186419.16440  24666978.04640
    876703.04200  23820110.12800    793317.97540  23820114.56940
   4865015.46800  22991995.25300   3816779.41240  22991998.67540
 96  9 10  3 39  0.0070000  0  6  3 14 18 19 22 29
   -547504.72800  26763895.44000   -351341.79340  26763900.70240
  12732173.74200  23838779.46400   9885897.10540  23838784.46840
 -10484514.05700  23143331.08900  -7775569.36340  23143335.20240
  -6798333.30500  24660921.87800  -5211196.69340  24660927.22240
    970833.51800  23838022.80800    866666.38540  23838027.06140
   4916701.62700  23001830.89400   3857054.34340  23001834.55040
 96  9 10  3 39 30.0070000  0  6  3 14 18 19 22 29
   -584295.87600  26756894.36200   -380010.23540  26756899.53040
  12850150.22700  23861229.75300   9977826.81440  23861234.65140
 -10507289.64900  23138997.15900  -7793316.57040  23139001.22640
  -6829954.37400  24654904.74500  -5235836.45540  24654909.78440
   1065403.84300  23856018.73700    940357.54440  23856023.05040
   4968691.77900  23011724.21400   3897566.14940  23011727.72940
 96  9 10  3 40  0.0070000  0  6  3 14 18 19 22 29
   -620972.08600  26749915.00300   -408589.09340  26749921.46040
  12968496.98800  23883750.33100  10070045.05640  23883755.38240
 -10529822.83500  23134708.98700  -7810874.88640  23134712.96040
  -6861375.81800  24648925.31500  -5260320.66240  24648930.27240
   1160407.76500  23874097.37800   1014386.57040  23874101.64440
   5020993.61400  23021676.84700   3938320.82440  23021680.39740
 96  9 10  3 40 30.0070000  0  6  3 14 18 19 22 29
   -657546.40500  26742954.90100   -437088.57840  26742960.96040
  13087185.77000  23906336.47200  10162529.79740  23906341.42940
 -10552133.05400  23130463.58100  -7828259.46740  23130467.56540
  -6892612.37400  24642980.90100  -5284660.80540  24642985.28440
   1255823.73800  23892254.93300   1088736.66840  23892259.64440
   5073579.46400  23031683.64400   3979296.81140  23031687.32340
 96  9 10  3 41  0.0070000  0  6  3 14 18 19 22 29
   -693991.07300  26736019.85400   -465487.02640  26736025.79640
  13206223.66700  23928988.49500  10255286.58440  23928993.61640
 -10574212.86700  23126262.05000  -7845464.50940  23126266.11640
  -6923648.68500  24637075.19000  -5308844.91440  24637080.30040
   1351685.23000  23910496.22200   1163433.92240  23910500.61640
   5126452.02000  23041744.90900   4020496.20240  23041748.35440
 96  9 10  3 41 30.0070000  0  6  3 14 18 19 22 29
   -730311.70700  26729108.93300   -493788.81640  26729114.37040
  13325595.61100  23951704.10400  10348303.66440  23951709.31940
 -10596087.17900  23122099.62000  -7862509.41940  23122103.53440
  -6954507.22700  24631203.29200  -5332890.50240  24631208.29640
   1447992.08400  23928822.91700   1238478.22040  23928827.19440
   5179604.25400  23051859.57300   4061913.52540  23051863.05440
 96  9 10  3 42  0.0070000  0  6  3 14 18 19 22 29
   -766495.08300  26722223.38600   -521983.64940  26722228.34340
  13445299.48400  23974482.99500  10441579.39140  23974488.12840
 -10617755.60600  23117976.22200  -7879393.90140  23117980.21840
  -6985189.33000  24625364.39400  -5356798.60340  24625369.45640
   1544765.42100  23947238.27600   1313886.00540  23947242.92940
   5233053.19100  23062030.55800   4103562.04540  23062034.03840
 96  9 10  3 42 30.0070000  0  6  3 14 18 19 22 29
   -802518.72700  26715367.73700   -550054.01440  26715373.08140
  13565357.68800  23997329.24500  10535131.22540  23997334.49540
 -10639198.97600  23113895.71400  -7896103.00540  23113899.72240
  -7015687.82400  24619560.71400  -5380563.62440  24619565.91740
   1642021.15900  23965745.25300   1389669.69040  23965749.74140
   5286826.10500  23072263.18300   4145463.01540  23072266.71040
 96  9 10  3 43  0.0070000  0  6  3 14 18 19 22 29
   -838388.06300  26708542.09700   -578004.16740  26708546.66740
  13685769.23500  24020242.88600  10628958.38440  24020247.93640
 -10660404.07200  23109860.44000  -7912626.44540  23109864.40140
  -7045999.34600  24613792.59700  -5404182.95440  24613797.61240
   1739756.63900  23984343.84700   1465827.20540  23984348.38240
   5340934.97700  23082559.74500   4187625.77140  23082563.28440
 96  9 10  3 43 30.0070000  0  6  3 14 18 19 22 29
   -874116.76800  26701743.22200   -605844.69940  26701748.77640
  13806506.71600  24043218.35400  10723039.52640  24043223.47640
 -10681367.13900  23105871.26900  -7928961.29840  23105875.24140
  -7076126.79800  24608059.37800  -5427658.86540  24608064.44040
   1837951.28200  24003029.43300   1542342.50040  24003033.90940
   5395371.22800  23092918.58900   4230043.62540  23092922.08140
 96  9 10  3 44  0.0070000  0  6  3 14 18 19 22 29
   -909713.19900  26694969.81500   -633582.16940  26694975.62840
  13927577.50600  24066257.36200  10817380.38640  24066262.41340
 -10702088.43000  23101928.06500  -7945107.74940  23101931.99140
  -7106060.49200  24602363.15900  -5450983.78940  24602368.42140
   1936599.00700  24021801.81500   1619210.85640  24021806.05840
   5450113.52800  23103335.71400   4272699.95740  23103339.25340
 96  9 10  3 44 30.0070000  0  6  3 14 18 19 22 29
   -945188.11500  26688218.90100   -661224.95140  26688223.47240
  14048993.60000  24089362.43300  10911990.31240  24089367.64740
 -10722553.72700  23098033.65900  -7961054.72240  23098037.52640
  -7135783.55900  24596707.08100  -5474144.59340  24596712.09740
   2035691.32700  24040658.42500   1696425.64440  24040663.00740
   5505156.00400  23113810.20600   4315590.19640  23113813.90940
 96  9 10  3 45  0.0070000  0  6  3 14 18 19 22 29
   -980555.83500  26681488.38600   -688784.21740  26681493.60140
  14170733.90100  24112528.85400  11006852.86340  24112533.87040
 -10742771.49100  23094186.26900  -7976808.81940  23094190.27640
  -7165309.72500  24591088.56500  -5497151.95540  24591094.19040
   2135232.57000  24059600.51900   1773990.24640  24059604.83140
   5560485.24000  23124338.89400   4358703.88040  23124342.52640
 96  9 10  3 45 30.0070000  0  6  3 14 18 19 22 29
  -1015814.16600  26674779.16700   -716258.21840  26674783.70240
  14292788.38200  24135754.62000  11101960.24440  24135759.64740
 -10762774.85000  23090379.76100  -7992395.85040  23090383.78040
  -7194657.17200  24585503.77600  -5520020.06940  24585508.78040
   2235198.48000  24078623.67500   1851885.75740  24078628.08140
   5616083.99800  23134918.72900   4402027.58240  23134922.23340
 96  9 10  3 46  0.0070000  0  6  3 14 18 19 22 29
  -1050943.30200  26668094.23700   -743631.55540  26668098.96040
  14415180.84200  24159045.42500  11197330.98140  24159050.45240
 -10782555.55700  23086615.73700  -8007809.37740  23086619.65140
  -7223829.45300  24579952.63600  -5542751.67940  24579957.67540
   2335588.96600  24097727.05800   1930112.10740  24097731.40540
   5671973.07100  23145554.15100   4445577.50540  23145557.69040
 96  9 10  3 46 30.0070000  0  6  3 14 18 19 22 29
  -1085906.45600  26661440.62800   -770875.53040  26661445.24540
  14537893.15600  24182396.86200  11292950.95040  24182401.83140
 -10802101.55200  23082895.97200  -8023040.01740  23082900.01540
  -7252812.20500  24574437.19800  -5565335.61340  24574442.55440
   2436409.71800  24116912.53400   2008673.73340  24116917.11640
   5728181.47400  23156250.37000   4489376.25940  23156253.95640
 96  9 10  3 47  0.0070000  0  6  3 14 18 19 22 29
  -1120676.05200  26654824.33100   -797968.69740  26654828.98340
  14660913.09500  24205806.62000  11388810.63340  24205811.47240
 -10821421.39500  23079219.64400  -8038094.43340  23079223.66340
  -7281607.93900  24568957.73700  -5587773.81640  24568963.35140
   2537659.23100  24136179.82300   2087569.45640  24136184.07740
   5784710.70700  23167007.47900   4533425.00640  23167010.92540
 96  9 10  3 47 30.0070000  0  6  3 14 18 19 22 29
  -1155220.85000  26648250.56500   -824886.68540  26648256.50740
  14784266.59400  24229280.24500  11484930.23440  24229285.24940
 -10840493.08300  23075590.51900  -8052955.48240  23075594.56140
  -7310185.41800  24563519.54200  -5610041.95140  24563524.10140
   2639333.53700  24155527.75300   2166796.18440  24155532.40540
   5841583.34200  23177829.91700   4577741.34440  23177833.47940
 96  9 10  3 48  0.0070000  0  6  3 14 18 19 22 29
  -1189559.49800  26641716.15100   -851644.03240  26641721.97640
  14907926.19100  24252811.86200  11581288.35040  24252816.57340
 -10859318.87400  23072008.02600  -8067624.92140  23072012.02240
  -7338560.25200  24558119.75300  -5632152.17440  24558125.03840
   2741418.09200  24174953.73700   2246342.59440  24174957.82740
   5898786.81500  23188715.44800   4622315.47540  23188719.03440
 96  9 10  3 48 30.0070000  0  6  3 14 18 19 22 29
  -1223694.63500  26635220.83900   -878242.82340  26635226.11240
  15031885.78200  24276400.56500  11677880.23240  24276405.82740
 -10877895.20700  23068473.12800  -8082099.97840  23068477.15940
  -7366723.41200  24552760.58100  -5654097.45740  24552765.64440
   2843923.76000  24194460.05000   2326217.14240  24194464.51540
   5956319.97300  23199663.62800   4667146.50540  23199667.13240
 96  9 10  3 49  0.0070000  0  6  3 14 18 19 22 29
  -1257639.46700  26628761.35400   -904693.27840  26628766.86240
  15156174.66200  24300051.80000  11774728.69640  24300056.85140
 -10896209.53500  23064988.01900  -8096370.87740  23064992.14440
  -7394684.50300  24547439.83900  -5675885.28440  24547444.59740
   2946850.70200  24214046.22900   2406419.95640  24214050.80040
   6014175.34800  23210673.19000   4712228.60940  23210676.72940
 96  9 10  3 49 30.0070000  0  6  3 14 18 19 22 29
  -1291416.49900  26622333.51900   -931013.02340  26622338.42940
  15280776.88800  24323762.84700  11871821.33640  24323768.14440
 -10914265.53900  23061551.94800  -8110440.48540  23061555.95640
  -7422468.44000  24542152.52600  -5697535.06140  24542157.60140
   3050194.64000  24233712.15100   2486947.70540  24233716.74540
   6072345.82900  23221742.47200   4757556.25440  23221745.96440
 96  9 10  3 50  0.0070000  0  6  3 14 18 19 22 29
  -1325026.07900  26615937.71400   -957202.25240  26615943.70240
  15405676.43200  24347530.31500  11969145.64640  24347535.43640
 -10932062.29400  23058165.33900  -8124308.08040  23058169.47640
  -7450085.74300  24536897.13600  -5719055.00840  24536902.40940
   3153971.87600  24253460.11200   2567813.08640  24253464.37840
   6130824.81600  23232870.83100   4803124.29640  23232874.52240
 96  9 10  3 50 30.0070000  0  6  3 14 18 19 22 29
  -1358468.19400  26609573.79200   -983260.97440  26609579.22940
  15530884.02800  24371356.70600  12066709.99640  24371361.68640
 -10949588.79000  23054830.32300  -8137965.07840  23054834.26140
  -7477518.69600  24531676.94800  -5740431.29440  24531681.89440
   3258199.04300  24273294.05800   2649029.06540  24273298.58140
   6189616.70300  23244058.54200   4848936.15740  23244062.24540
 96  9 10  3 51  0.0070000  0  6  3 14 18 19 22 29
  -1391734.85500  26603243.49500  -1009183.03340  26603248.86240
  15656402.38100  24395241.84700  12164516.50040  24395246.61640
 -10966840.77700  23051547.32300  -8151408.17940  23051551.36640
  -7504765.59800  24526491.97900  -5761662.61840  24526497.18340
   3362868.94400  24293211.82300   2730590.03540  24293216.15940
   6248719.39000  23255305.26100   4894990.19840  23255308.81140
 96  9 10  3 51 30.0070000  0  6  3 14 18 19 22 29
  -1424830.46800  26596946.13600  -1034971.78240  26596951.85440
  15782205.29200  24419181.77600  12262544.73840  24419186.76940
 -10983839.06500  23048312.64400  -8164653.59240  23048316.76940
  -7531828.71000  24521341.92500  -5782750.71040  24521346.80040
   3467963.88800  24313210.84700   2812482.19440  24313215.07740
   6308128.70800  23266610.67500   4941283.17340  23266614.27240
 96  9 10  3 52  0.0070000  0  6  3 14 18 19 22 29
  -1457753.74700  26590680.33900  -1060626.27340  26590685.89440
  15908304.18300  24443177.49500  12360803.60740  24443182.78040
 -11000575.18000  23045127.78400  -8177694.71340  23045131.72240
  -7558682.84200  24516231.67500  -5803675.97140  24516236.57340
   3573469.05100  24333287.79200   2894694.01640  24333292.03440
   6367847.53400  23277974.73700   4987817.32240  23277978.21840
 96  9 10  3 52 30.0070000  0  6  3 14 18 19 22 29
  -1490511.93700  26584446.56500  -1086152.08240  26584452.00340
  16034690.78400  24467228.21400  12459286.66140  24467233.51140
 -11017048.63000  23041993.06500  -8190531.16540  23041997.02640
  -7585339.56200  24511159.06500  -5824447.41140  24511164.22240
   3679351.22200  24353436.57300   2977199.60540  24353440.81540
   6427861.58300  23289394.95600   5034581.51740  23289398.46040
 96  9 10  3 53  0.0070000  0  6  3 14 18 19 22 29
  -1523062.72300  26578252.11200  -1111516.29940  26578257.11640
  16161384.52400  24491337.05800  12558009.05040  24491342.20240
 -11033243.76900  23038911.12000  -8203150.74840  23038915.01140
  -7611799.14500  24506124.10400  -5845065.23640  24506128.68640
   3785614.16300  24373657.75300   3060001.89940  24373662.24140
   6488187.79100  23300874.80800   5081588.95240  23300878.38240
 96  9 10  3 53 30.0070000  0  6  3 14 18 19 22 29
  -1555425.24400  26572094.26100  -1136733.81440  26572098.84340
  16288354.36900  24515498.54200  12656946.59240  24515503.88640
 -11049184.18200  23035877.84700  -8215571.83840  23035881.89040
  -7638077.68400  24501123.46400  -5865541.97840  24501128.40940
   3892235.45000  24393947.03400   3143083.42440  24393951.28840
   6548813.03400  23312411.22900   5128829.40540  23312414.83940
 96  9 10  3 54  0.0070000  0  6  3 14 18 19 22 29
  -1587572.63500  26565976.56500  -1161783.69040  26565980.43340
  16415605.48100  24539713.76100  12756103.29540  24539719.14040
 -11064848.24100  23032897.05800  -8227777.59540  23032900.93640
  -7664161.35000  24496159.80800  -5885866.88940  24496164.88240
   3999235.39100  24414308.37000   3226460.00340  24414312.58940
   6609753.85800  23324008.03400   5176315.75940  23324011.66740
 96  9 10  3 54 30.0070000  0  6  3 14 18 19 22 29
  -1619492.96600  26559902.29200  -1186656.61240  26559908.39740
  16543128.79200  24563980.45600  12855472.10140  24563985.33140
 -11080248.41300  23029966.52600  -8239777.72240  23029970.56940
  -7690070.57400  24491229.37800  -5906055.85840  24491234.00740
   4106626.10200  24434744.12800   3310141.08140  24434748.33540
   6671004.68300  23335663.48700   5224043.67740  23335667.03840
 96  9 10  3 55  0.0070000  0  6  3 14 18 19 22 29
  -1651176.21200  26553873.00300  -1211344.80240  26553877.89040
  16670929.23900  24588299.96400  12955056.86840  24588304.83940
 -11095389.93300  23027085.18300  -8251576.29640  23027089.15540
  -7715787.05700  24486336.11200  -5926094.64940  24486341.15140
   4214426.80800  24455258.01900   3394141.63540  24455262.30840
   6732587.82400  23347382.37000   5272030.53840  23347385.79240
 96  9 10  3 55 30.0070000  0  6  3 14 18 19 22 29
  -1682630.20200  26547887.83100  -1235854.36340  26547892.64740
  16798989.86300  24612669.26900  13054844.35540  24612674.50740
 -11110258.03900  23024255.67500  -8263161.82440  23024259.50740
  -7741293.65900  24481481.99500  -5945969.89440  24481486.96440
   4322652.33700  24475852.94800   3478473.21240  24475857.03840
   6794514.42700  23359166.90100   5320285.02940  23359170.61640
 96  9 10  3 56  0.0080000  0  6  3 14 18 19 22 29
  -1713858.39800  26541944.79700  -1260187.98340  26541949.21540
  16927317.32100  24637089.03100  13154839.77440  24637094.32840
 -11124835.03000  23021481.84400  -8274520.50440  23021485.79340
  -7766592.35100  24476667.82800  -5965683.12340  24476672.84440
   4431302.12600  24496527.84400   3563135.39140  24496532.22740
   6856779.61400  23371015.45300   5368803.35640  23371018.98040
 96  9 10  3 56 30.0080000  0  6  3 14 18 19 22 29
  -1744852.87500  26536047.09400  -1284339.47340  26536052.44940
  17055924.42600  24661562.35900  13255053.09540  24661567.48040
 -11139097.30100  23018767.97700  -8285633.95540  23018771.92640
  -7791673.56500  24471894.93000  -5985226.89540  24471899.66440
   4540372.17300  24517283.28900   3648125.03640  24517287.39140
   6919392.63500  23382930.43700   5417592.71640  23382933.88340
 96  9 10  3 57  0.0080000  0  6  3 14 18 19 22 29
  -1775643.43200  26530187.85900  -1308332.06240  26530193.95340
  17184789.05600  24686084.74200  13355467.09540  24686090.29740
 -11153053.57100  23016112.03900  -8296508.95940  23016115.97740
  -7816557.14800  24467159.71100  -6004616.66740  24467164.52740
   4649829.95700  24538112.42200   3733416.81540  24538116.71140
   6982342.66100  23394909.36700   5466644.68840  23394912.90640
 96  9 10  3 57 30.0080000  0  6  3 14 18 19 22 29
  -1806217.79900  26524369.26600  -1332156.19140  26524374.99640
  17313928.41600  24710658.78900  13456095.15340  24710664.03940
 -11166682.84700  23013518.64100  -8307129.16740  23013522.51940
  -7841244.63000  24462461.70300  -6023853.63240  24462466.97740
   4759668.61400  24559014.10200   3819005.38640  24559018.75440
   7045631.43200  23406952.77300   5515960.61140  23406956.35940
 96  9 10  3 58  0.0080000  0  6  3 14 18 19 22 29
  -1836553.77700  26518597.29700  -1355794.57440  26518602.21940
  17443368.06000  24735290.31200  13556957.20840  24735295.72740
 -11179989.38800  23010986.50000  -8317497.88940  23010990.47340
  -7865738.74800  24457800.63300  -6042939.92940  24457805.44940
   4869878.84600  24579986.36700   3904883.48440  24579990.59840
   7109266.31100  23419062.23400   5565546.22740  23419065.86740
 96  9 10  3 58 30.0080000  0  6  3 14 18 19 22 29
  -1866650.44100  26512869.56200  -1379246.46640  26512875.43440
  17573089.69900  24759975.47700  13658038.99840  24759980.48040
 -11193007.92600  23008508.99200  -8327642.19240  23008512.93040
  -7890065.15300  24453171.38300  -6061895.54040  24453176.43440
   4980451.85800  24601027.46900   3991044.27140  24601031.94540
   7173234.97400  23431234.91400   5615391.94140  23431238.46540
 96  9 10  3 59  0.0080000  0  6  3 14 18 19 22 29
  -1896489.19600  26507191.46900  -1402497.37540  26507196.16840
  17703097.06700  24784715.25000  13759343.44440  24784720.34840
 -11205742.34500  23006085.69500  -8337565.10240  23006089.77340
  -7914213.35700  24448576.23400  -6080712.28540  24448581.41440
   5091396.28400  24622139.53900   4077494.48940  24622144.29740
   7237540.86100  23443471.82800   5665500.42140  23443475.42640
 96  9 10  3 59 30.0080000  0  6  3 14 18 19 22 29
  -1926068.18100  26501562.34400  -1425545.89340  26501566.70340
  17833378.94300  24809507.07800  13860861.77540  24809512.30540
 -11218208.56200  23003713.39800  -8347279.02840  23003717.31240
  -7938177.80400  24444016.00800  -6099385.85740  24444020.68440
   5202698.57900  24643319.69500   4164223.54740  24643323.90240
   7302165.03000  23455769.45300   5715856.91440  23455773.03940
 96  9 10  4  0  0.0080000  0  7  3 14 18 19 22 27 29
  -1955401.50500  26495979.93000  -1448402.98440  26495986.09440
  17963902.47500  24834344.73400  13962568.42740  24834349.94940
 -11230419.82100  23001389.68700  -8356794.28740  23001393.63740
  -7961957.81500  24439490.61700  -6117915.70340  24439495.30540
   5314356.25300  24664567.64100   4251229.52540  24664572.00040
    -36752.47610  27457356.38300
   7367096.63100  23468125.46100   5766452.97040  23468128.97740
 96  9 10  4  0 30.0080000  0  7  3 14 18 19 22 27 29
  -1984502.51500  26490442.75000  -1471079.04640  26490447.84840
  18094659.64000  24859227.01600  14064457.12040  24859232.24240
 -11242381.12400  22999113.46900  -8366114.77340  22999117.43040
  -7985549.51800  24435001.21100  -6136298.81940  24435006.03940
   5426368.77000  24685882.75000   4338512.01140  24685887.12140
    -84655.93300  27448240.30500
   7432323.91600  23480537.87500   5817279.42840  23480541.37940
 96  9 10  4  1  0.0080000  0  8  3 14 18 19 22 27 29 31
  -2013358.56900  26484952.18700  -1493564.21540  26484956.43040
  18225677.80300  24884158.99200  14166549.18540  24884164.07840
 -11254058.15500  22996891.37500  -8375213.75040  22996895.32440
  -8008921.35700  24430553.71900  -6154510.62140  24430558.71140
   5538745.75700  24707267.43700   4426078.50040  24707271.98440
   -132492.16200  27439137.39800    -31056.85650  27439144.55140
   7497877.68500  23493012.11700   5868360.28740  23493015.66840
    -44291.42410  27084962.76600
 96  9 10  4  1 30.0080000  0  8  3 14 18 19 22 27 29 31
  -2041977.85700  26479505.47700  -1515864.90840  26479510.09440
  18356937.59800  24909137.10200  14268829.54740  24909142.42240
 -11265449.21800  22994723.86700  -8384089.89340  22994727.93440
  -8032083.04000  24426146.22700  -6172558.64940  24426151.30140
   5651482.50300  24728720.42200   4513925.31540  24728724.72340
   -180258.98800  27430047.67200    -68277.61940  27430053.13340
   7563754.98400  23505548.25000   5919693.25340  23505551.84840
   -102098.96900  27073962.10200
 96  9 10  4  2  0.0080000  0  8  3 14 18 19 22 27 29 31
  -2070368.50300  26474102.96100  -1537987.43840  26474108.03540
  18488438.68200  24934161.03900  14371297.91240  24934166.33640
 -11276550.38400  22992611.35200  -8392740.14240  22992615.19540
  -8055050.09800  24421775.88300  -6190455.03140  24421780.94540
   5764591.12000  24750244.37500   4602061.90240  24750248.91040
   -227943.88200  27420973.49200   -105434.57240  27420978.09840
   7629972.21400  23518149.02300   5971291.10140  23518152.49240
   -159935.71100  27062956.07000    -37555.49550  27062961.75440
 96  9 10  4  2 30.0080000  0  8  3 14 18 19 22 27 29 31
  -2098512.90500  26468747.14800  -1559918.11240  26468752.23440
  18620202.26600  24959234.52300  14473970.82640  24959239.09440
 -11287346.73400  22990556.96100  -8401152.87940  22990560.88740
  -8077827.27700  24417441.42200  -6208203.45340  24417446.59040
   5878079.32600  24771840.62500   4690494.27440  24771845.12540
   -275536.10300  27411916.20300   -142519.32440  27411923.81240
   7696540.34800  23530816.69500   6023162.37940  23530820.22340
   -217799.19800  27051945.41400    -82643.84340  27051950.25440
 96  9 10  4  3  0.0080000  0  8  3 14 18 19 22 27 29 31
  -2126401.71200  26463440.17200  -1581649.56640  26463445.66840
  18752207.81700  24984354.59400  14576832.29240  24984359.55140
 -11297819.62600  22988564.06200  -8409313.56640  22988568.04740
  -8100415.35300  24413143.05500  -6225804.52340  24413148.30540
   5991942.22500  24793507.88300   4779218.61640  24793512.19540
   -323040.62400  27402876.83600   -179535.76740  27402884.91440
   7763467.28800  23543552.33600   6075313.24340  23543555.73440
   -275703.28700  27040925.04700   -127763.87040  27040930.40240
 96  9 10  4  3 30.0080000  0  8  3 14 18 19 22 27 29 31
  -2154031.96900  26458182.50800  -1603179.60440  26458187.46540
  18884439.96100  25009516.82000  14679870.32240  25009521.87140
 -11307967.63000  22986632.88300  -8417221.09340  22986636.77340
  -8122814.99000  24408880.68000  -6243258.75240  24408885.63740
   6106172.85900  24815245.08600   4868229.49640  24815249.51640
   -370463.30000  27393853.35900   -216488.38440  27393860.16840
   7830740.72200  23556353.90600   6127734.10540  23556357.50440
   -333667.88200  27029894.81200   -172931.04040  27029900.07440
 96  9 10  4  4  0.0080000  0  8  3 14 18 19 22 27 29 31
  -2181385.88300  26452977.01600  -1624494.30240  26452982.10240
  19016915.51600  25034726.45300  14783098.01940  25034731.76240
 -11317783.39400  22984764.93000  -8424869.73240  22984768.91440
  -8145013.64800  24404656.07800  -6260556.37840  24404660.97740
   6220761.84000  24837050.74200   4957519.63340  24837055.62940
   -417813.62200  27384842.41400   -253384.61740  27384848.73040
   7898361.55800  23569221.85900   6180425.67440  23569225.45740
   -391687.03900  27018855.33600   -218140.75640  27018859.15640
 96  9 10  4  4 30.0080000  0  8  3 14 18 19 22 27 29 31
  -2208429.25000  26447830.62500  -1645567.00340  26447835.16040
  19149637.80500  25059982.52300  14886517.97940  25059987.90240
 -11327246.12400  22982964.25800  -8432243.27640  22982968.14840
  -8167000.29200  24400472.22700  -6277688.80140  24400477.03140
   6335701.52600  24858923.15600   5047083.02440  24858927.51640
   -465105.16600  27375842.53900   -290235.05940  27375849.04340
   7966322.33800  23582154.16400   6233382.12740  23582157.87940
   -449772.69900  27007802.31200   -263402.23240  27007806.43740
 96  9 10  4  5  0.0080000  0  8  3 14 18 19 22 27 29 31
  -2235172.46600  26442741.52300  -1666405.83340  26442746.43440
  19282574.87200  25085279.85200  14990105.29940  25085284.96140
 -11336376.57600  22981226.82800  -8439357.90640  22981230.85940
  -8188781.04200  24396327.32000  -6294660.78840  24396331.97340
   6450955.39000  24880854.89800   5136891.23640  24880859.19940
   -512369.84700  27366848.04700   -327064.60540  27366854.96540
   8034598.58500  23595146.62500   6286584.40440  23595150.29340
   -507940.25800  26996732.36700   -308727.57540  26996737.26640
 96  9 10  4  5 30.0080000  0  8  3 14 18 19 22 27 29 31
  -2261576.73800  26437716.96900  -1686980.53840  26437722.46540
  19415769.02600  25110625.78100  15093892.95440  25110630.64440
 -11345151.84400  22979556.82000  -8446195.76640  22979560.72340
  -8210322.72800  24392228.03100  -6311446.48440  24392233.01240
   6566560.98500  24902854.18700   5226973.51540  24902858.72340
   -559568.88900  27357866.93700   -363843.01640  27357871.78940
   8103214.31400  23608203.96100   6340051.20640  23608207.60540
   -566141.98300  26985657.39100   -354079.56140  26985661.15240
 96  9 10  4  6  0.0080000  0  8  3 14 18 19 22 27 29 31
  -2287626.00700  26432760.53100  -1707278.64440  26432765.35940
  19549227.54400  25136021.91400  15197886.60140  25136026.56640
 -11353558.27800  22977957.12500  -8452746.22340  22977960.99240
  -8231621.15800  24388175.25800  -6328042.63540  24388180.01640
   6682546.63400  24924925.64800   5317351.94740  24924930.19540
   -606687.49200  27348900.30500   -400558.72340  27348905.74240
   8172187.08500  23621329.11700   6393796.22640  23621332.53940
   -624350.11100  26974580.64800   -399436.47240  26974586.39140
 96  9 10  4  6 30.0080000  0  8  3 14 18 19 22 27 29 31
  -2313354.49500  26427863.72700  -1727326.75640  26427868.48440
  19682921.17400  25161463.45300  15302063.45640  25161468.76240
 -11361616.02000  22976424.04700  -8459024.96840  22976427.97340
  -8252695.12200  24384164.68000  -6344463.87940  24384169.46140
   6798899.90400  24947066.87500   5408016.83840  24947071.18740
   -653719.95500  27339950.25800   -437207.29240  27339956.24640
   8241511.96300  23634521.21900   6447815.61640  23634524.74640
   -682570.12200  26963502.10900   -444802.67140  26963507.94540
 96  9 10  4  7  0.0080000  0  8  3 14 18 19 22 27 29 31
  -2338798.20300  26423021.96900  -1747152.96340  26423026.04740
  19816833.87200  25186945.98400  15406411.01640  25186950.88340
 -11369354.90400  22974951.22700  -8465055.25940  22974955.15240
  -8273556.11600  24380195.26600  -6360719.17640  24380199.93040
   6915616.39100  24969277.22700   5498964.76040  24969281.68040
   -700652.02700  27331018.96900   -473777.70440  27331025.32040
   8311185.89600  23647779.71900   6502106.99040  23647783.24640
   -740794.71800  26952422.39800   -490172.46440  26952425.38740
 96  9 10  4  7 30.0080000  0  8  3 14 18 19 22 27 29 31
  -2363983.03600  26418229.51600  -1766777.46440  26418234.87140
  19950955.63100  25212468.35900  15510921.48740  25212473.60940
 -11376796.22300  22973535.30500  -8470853.67640  22973539.19540
  -8294231.14400  24376260.78900  -6376829.55840  24376265.53540
   7032691.14600  24991555.93700   5590191.85340  24991560.35540
   -747485.56500  27322106.66400   -510271.23040  27322112.80540
   8381201.03700  23661102.98400   6556664.24840  23661106.54740
   -799022.64100  26941342.08600   -535544.83240  26941346.11740
 96  9 10  4  8  0.0080000  0  8  3 14 18 19 22 27 29 31
  -2388913.62200  26413485.41400  -1786203.86540  26413490.09040
  20085281.73300  25238029.75000  15615591.17040  25238035.05940
 -11383931.25900  22972177.48400  -8476413.43540  22972181.35240
  -8314724.71400  24372360.91400  -6392798.54240  24372365.87140
   7150101.56600  25013898.21100   5681680.48240  25013902.80540
   -794227.76100  27313212.34400   -546693.67840  27313219.26240
   8451569.84700  23674493.83600   6611497.08640  23674497.30540
   -857250.07000  26930260.98400   -580916.81740  26930264.35940
 96  9 10  4  8 30.0080000  0  8  3 14 18 19 22 27 29 31
  -2413577.18000  26408791.81200  -1805422.17840  26408796.76940
  20219827.17300  25263633.33600  15720431.77740  25263638.45740
 -11390750.98000  22970879.62500  -8481727.48840  22970883.57440
  -8335023.19700  24368498.25800  -6408615.52440  24368503.23840
   7267835.10700  25036301.96900   5773420.91540  25036306.86740
   -840873.38900  27304335.82000   -583040.80540  27304340.67240
   8522288.56200  23687951.19500   6666602.57840  23687954.72340
   -915461.55400  26919183.33600   -626276.40940  26919189.68740
 96  9 10  4  9  0.0080000  0  8  3 14 18 19 22 27 29 31
  -2437961.64600  26404151.82000  -1824423.02740  26404157.28140
  20354585.66000  25289276.64100  15825438.38940  25289281.46940
 -11397262.49000  22969640.68000  -8486801.38240  22969644.55940
  -8355142.12100  24364670.03100  -6424292.57640  24364674.88340
   7385877.94300  25058764.97700   5865402.34740  25058769.20740
   -887457.53600  27295471.16400   -619340.04340  27295476.36740
   8593330.16800  23701469.87500   6721959.67240  23701473.35540
   -973667.57900  26908108.14800   -671631.68940  26908115.65240
 96  9 10  4  9 30.0080000  0  8  3 14 18 19 22 27 29 31
  -2462064.39600  26399565.25800  -1843204.34040  26399570.19140
  20489540.91500  25314958.14800  15930598.33840  25314962.85940
 -11403464.21500  22968460.41400  -8491633.88040  22968464.32840
  -8375094.63600  24360872.85200  -6439839.96940  24360877.80940
   7504203.31200  25081281.75800   5957603.93540  25081286.41040
   -934008.35100  27286612.56200   -655613.27140  27286619.18440
   8664678.18600  23715047.02300   6777555.53440  23715050.58640
  -1031883.28600  26897029.40600   -716994.52940  26897036.18040
 96  9 10  4 10  0.0080000  0  8  3 14 18 19 22 27 29 31
  -2485831.65800  26395042.21100  -1861724.24540  26395046.79340
  20624722.14400  25340682.09400  16035934.35640  25340686.52340
 -11409314.29300  22967346.90600  -8496192.37240  22967350.72740
  -8394843.48300  24357114.97700  -6455228.66640  24357119.69940
   7622841.33800  25103857.74200   6050049.15840  25103862.35940
   -980490.35900  27277767.82000   -691832.90540  27277772.39140
   8736369.49500  23728689.37500   6833418.89040  23728693.16040
  -1090083.78500  26885954.35200   -762345.52240  26885960.29340
 96  9 10  4 10 30.0080000  0  8  3 14 18 19 22 27 29 31
  -2509257.37100  26390584.72700  -1879978.00040  26390590.14140
  20760116.64600  25366446.53100  16141436.56440  25366451.35940
 -11414839.03600  22966295.68700  -8500497.35640  22966299.56640
  -8414398.53200  24353393.50800  -6470466.33740  24353398.35940
   7741801.39600  25126494.77300   6142745.31240  25126499.43740
  -1026916.09600  27268932.07000   -728008.70940  27268936.95740
   8808390.44800  23742394.50000   6889539.11540  23742398.13340
  -1148287.17800  26874878.80500   -807698.76640  26874883.85540
 96  9 10  4 11  0.0080000  0  8  3 14 18 19 22 27 29 31
  -2532337.40500  26386192.61700  -1897962.39040  26386197.44540
  20895717.23700  25392250.67200  16247099.36440  25392256.08640
 -11420025.09200  22965309.04700  -8504538.42540  22965312.87940
  -8433747.44900  24349711.53100  -6485543.39740  24349716.14840
   7861095.71000  25149195.38300   6235701.91640  25149199.91840
  -1073277.80000  27260109.77300   -764134.57440  27260116.03140
   8880769.68900  23756167.85900   6945938.52440  23756171.31640
  -1206491.33300  26863802.28900   -853052.63040  26863806.48440
 96  9 10  4 11 30.0080000  0  8  3 14 18 19 22 27 29 31
  -2555074.64700  26381866.07000  -1915679.68340  26381870.88740
  21031521.43800  25418093.25000  16352920.80740  25418098.31240
 -11424844.46400  22964391.79700  -8508293.76940  22964395.58240
  -8452876.73800  24346071.53900  -6500449.31340  24346076.36740
   7980724.13300  25171960.48400   6328918.87540  25171965.33640
  -1119549.74900  27251304.55500   -800190.55540  27251310.16840
   8953547.04500  23770016.88300   7002648.15840  23770020.44540
  -1264683.36300  26852728.62500   -898397.03040  26852733.55940
 96  9 10  4 12  0.0080000  0  8  3 14 18 19 22 27 29 31
  -2577479.22400  26377602.05500  -1933137.74540  26377606.73040
  21167523.15300  25443973.82000  16458896.16340  25443979.34040
 -11429293.66200  22963545.02300  -8511760.66740  22963548.99640
  -8471786.17000  24342473.10200  -6515183.92040  24342478.09440
   8100677.23000  25194786.94500   6422388.82440  25194791.32840
  -1165738.36800  27242514.99200   -836181.56740  27242521.46140
   9026727.81200  23783942.82800   7059672.13340  23783946.50840
  -1322870.84900  26841656.37500   -943737.86740  26841661.43740
 96  9 10  4 12 30.0080000  0  8  3 14 18 19 22 27 29 31
  -2599579.33300  26373396.46900  -1950358.56440  26373402.07040
  21303709.94900  25469888.77300  16565015.73640  25469894.62140
 -11433368.77200  22962769.38300  -8514936.06540  22962773.32040
  -8490482.16800  24338915.30500  -6529752.20540  24338920.01640
   8220933.24400  25217670.76600   6516094.80140  25217675.51240
  -1211856.82200  27233739.47700   -872117.92940  27233744.89140
   9100289.30000  23797941.06200   7116992.77340  23797944.60240
  -1381050.06800  26830585.12500   -989072.29740  26830590.75040
 96  9 10  4 13  0.0080000  0  8  3 14 18 19 22 27 29 31
  -2621370.77400  26369249.76600  -1967338.85540  26369254.53540
  21440091.87800  25495841.50800  16671287.36140  25495846.86340
 -11437039.59200  22962070.91400  -8517796.43440  22962074.80540
  -8508957.40800  24335399.53900  -6544148.48140  24335403.95740
   8341479.23100  25240609.64800   6610026.75240  25240614.37140
  -1257886.09900  27224980.85900   -907984.80040  27224986.55540
   9174242.25800  23812013.74200   7174618.45240  23812017.23440
  -1439200.10100  26819519.45300  -1034383.96140  26819524.78540
 96  9 10  4 13 30.0080000  0  8  3 14 18 19 22 27 29 31
  -2642850.53900  26365162.11700  -1984076.27540  26365167.21540
  21576666.35100  25521830.50800  16777709.02440  25521835.53540
 -11440321.69500  22961446.62500  -8520353.90640  22961450.41040
  -8527235.56200  24331921.31200  -6558391.17240  24331925.90640
   8462298.74500  25263601.13300   6704171.82340  25263605.39840
  -1303838.15100  27216235.71900   -943791.50140  27216241.61340
   9248552.61000  23826154.69500   7232522.62640  23826158.24640
  -1497332.62400  26808457.44500  -1079681.99440  26808461.95740
 96  9 10  4 14  0.0080000  0  8  3 14 18 19 22 27 29 31
  -2664004.43300  26361136.62500  -2000559.79940  26361142.02740
  21713428.92600  25547856.60900  16884277.24140  25547862.34040
 -11443236.50700  22960891.91400  -8522625.17740  22960895.71140
  -8545324.67100  24328479.29700  -6572486.55940  24328484.01940
   8583401.10500  25286646.16400   6798537.29340  25286650.60540
  -1349726.41000  27207503.81200   -979548.49140  27207510.29340
   9323181.69900  23840355.89800   7290675.15840  23840359.42640
  -1555440.28000  26797399.20300  -1124960.64340  26797403.77340
 96  9 10  4 14 30.0080000  0  8  3 14 18 19 22 27 29 31
  -2684812.54600  26357177.20300  -2016773.86140  26357181.64440
  21850386.32600  25573918.57000  16990997.28640  25573924.27740
 -11445793.61500  22960405.17200  -8524617.71740  22960408.92240
  -8563225.38900  24325072.66400  -6586435.14740  24325077.62140
   8704803.92200  25309748.19500   6893136.90240  25309752.54340
  -1395547.27300  27198783.98400  -1015252.97040  27198789.26940
   9398124.80400  23854617.14100   7349072.38140  23854620.71540
  -1613515.65500  26786348.19500  -1170214.15540  26786353.01240
 96  9 10  4 15  0.0080000  0  8  3 14 18 19 22 27 29 31
  -2705275.47500  26353283.47700  -2032718.96340  26353288.08240
  21987526.31500  25600015.04700  17097859.60240  25600019.87540
 -11448016.65800  22959982.25000  -8526349.94940  22959986.10540
  -8580945.53400  24321700.52300  -6600243.03540  24321705.21140
   8826511.17600  25332908.42200   6987973.71540  25332912.85240
  -1441313.07200  27190074.77300  -1050914.52140  27190080.28140
   9473386.74600  23868939.15600   7407718.04940  23868942.69540
  -1671574.73400  26775300.42200  -1215454.93940  26775304.31240
 96  9 10  4 15 30.0080000  0  8  3 14 18 19 22 27 29 31
  -2725398.82400  26349453.78900  -2048399.43640  26349457.78540
  22124831.60300  25626143.50800  17204850.74540  25626149.01640
 -11449918.27300  22959620.48400  -8527831.71440  22959624.30540
  -8598490.66800  24318362.04700  -6613914.53940  24318366.75840
   8948532.92500  25356127.94500   7083055.60340  25356132.48040
  -1487039.56200  27181373.46100  -1086545.48840  27181380.34440
   9548963.48500  23883321.03900   7466609.02040  23883324.70740
  -1729624.62700  26764252.90600  -1260688.57940  26764259.03540
 96  9 10  4 16  0.0080000  0  8  3 14 18 19 22 27 29 31
  -2745169.35400  26345691.70300  -2063805.02240  26345695.96940
  22262309.97700  25652304.63300  17311976.73940  25652309.63740
 -11451485.70600  22959322.13300  -8529053.08140  22959325.87140
  -8615834.19800  24315061.60200  -6627428.95240  24315066.38340
   9070880.46100  25379410.25800   7178391.34440  25379414.64140
  -1532707.79800  27172682.76600  -1122131.04940  27172689.45740
   9624888.06900  23897768.85200   7525771.03640  23897772.43740
  -1787644.35400  26753212.90600  -1305898.70740  26753217.43040
 96  9 10  4 16 30.0080000  0  8  3 14 18 19 22 27 29 31
  -2764609.28800  26341992.18000  -2078952.98740  26341996.89140
  22399947.86200  25678496.39800  17419227.03640  25678501.16840
 -11452732.40900  22959084.83600  -8530024.53340  22959088.57440
  -8632994.28800  24311796.14100  -6640800.41840  24311800.82840
   9193523.08500  25402748.10200   7273957.02440  25402752.66040
  -1578324.38200  27164002.32800  -1157676.36640  27164007.51940
   9701170.17800  23912284.86700   7585211.63940  23912288.38340
  -1845655.48100  26742173.25000  -1351102.16040  26742177.72740
 96  9 10  4 17  0.0080000  0  8  3 14 18 19 22 27 29 31
  -2783692.03600  26338360.80500  -2093822.61040  26338366.32440
  22537753.88200  25704719.83600  17526608.34140  25704724.40640
 -11453618.73500  22958916.17200  -8530715.16240  22958919.85240
  -8649941.57300  24308571.18000  -6654006.06640  24308576.03140
   9316472.81400  25426145.06200   7369762.00240  25426149.56240
  -1623851.05900  27155339.30500  -1193151.61140  27155343.84040
   9777835.37700  23926873.74200   7644950.75940  23926877.38740
  -1903612.79500  26731144.93700  -1396263.65540  26731150.66840
 96  9 10  4 17 30.0080000  0  8  3 14 18 19 22 27 29 31
  -2802418.87100  26334797.49200  -2108414.91340  26334802.12140
  22675715.84900  25730973.38300  17634111.17740  25730977.96540
 -11454142.61700  22958816.56200  -8531123.37540  22958820.38340
  -8666683.42000  24305385.37500  -6667051.63540  24305390.30940
   9439708.43100  25449595.95300   7465789.74740  25449600.33640
  -1669289.33800  27146692.25800  -1228557.98340  27146698.77340
   9854873.01100  23941533.75000   7704980.08240  23941537.37140
  -1961511.01600  26720126.68700  -1441379.09040  26720131.38740
 96  9 10  4 18  0.0080000  0  8  3 14 18 19 22 27 29 31
  -2820808.51800  26331297.96100  -2122744.47640  26331303.23440
  22813825.86000  25757254.72700  17741729.36440  25757259.63740
 -11454312.15900  22958784.13300  -8531255.47540  22958787.91840
  -8683231.10500  24302236.21100  -6679945.91140  24302240.82840
   9563195.84300  25473094.82000   7562013.71840  25473099.49640
  -1714642.01700  27138061.72700  -1263897.66240  27138067.62140
   9932265.89400  23956260.96900   7765286.22640  23956264.35540
  -2019341.61500  26709121.69500  -1486441.84040  26709126.84040
 96  9 10  4 18 30.0080000  0  8  3 14 18 19 22 27 29 31
  -2838846.14300  26327865.36700  -2136799.72140  26327870.60540
  22952096.41100  25783566.60900  17849472.64540  25783571.70740
 -11454100.76000  22958824.35200  -8531090.73640  22958828.13740
  -8699566.32600  24299127.87500  -6692674.62240  24299132.69140
   9686962.91900  25496647.21900   7658455.59340  25496651.91840
  -1759889.01800  27129451.44500  -1299154.99340  27129458.09040
  10010029.24100  23971058.72700   7825881.04440  23971062.26640
  -2077066.10800  26698136.76600  -1531421.93240  26698141.13740
 96  9 10  4 19  0.0080000  0  8  3 14 18 19 22 27 29 31
  -2856536.26300  26324499.59400  -2150584.20240  26324504.58640
  23090514.94000  25809907.00000  17957331.24240  25809911.82840
 -11453507.58800  22958937.39100  -8530628.51440  22958941.26940
  -8715691.01300  24296059.28900  -6705239.27940  24296064.07040
   9811000.38200  25520250.46100   7755108.16840  25520254.76240
  -1805046.45500  27120858.50800  -1334342.52440  27120863.95740
  10088138.82500  23985922.68000   7886745.64940  23985926.19540
  -2134692.15700  26687170.85200  -1576325.27840  26687175.29340
 96  9 10  4 19 30.0080000  0  8  3 14 18 19 22 27 29 31
  -2873864.07100  26321201.61700  -2164086.35340  26321206.14140
  23229100.14700  25836278.18700  18065319.71240  25836283.60240
 -11452530.73200  22959122.93000  -8529867.31640  22959126.79740
  -8731602.16200  24293031.45300  -6717637.55040  24293036.05940
   9935314.56500  25543906.75000   7851976.35740  25543911.36740
  -1850115.29100  27112281.25000  -1369461.04840  27112288.05940
  10166600.65700  24000853.55500   7947884.73740  24000857.04740
  -2192224.85200  26676223.19500  -1621155.92040  26676227.89440
 96  9 10  4 20  0.0080000  0  8  3 14 18 19 22 27 29 31
  -2890812.20200  26317976.69500  -2177292.65440  26317981.24240
  23367865.11000  25862684.77300  18173448.25940  25862689.93040
 -11451167.58800  22959382.35200  -8528805.11640  22959386.14840
  -8747289.13600  24290046.23400  -6729861.13540  24290050.67640
  10059923.12300  25567618.58600   7949073.92940  25567623.50840
  -1895085.37900  27103724.60900  -1404502.62240  27103730.29340
  10245418.04500  24015851.89800   8009300.88540  24015855.43740
  -2249662.64300  26665292.86700  -1665912.57740  26665297.46140
 96  9 10  4 20 30.0080000  0  8  3 14 18 19 22 27 29 31
  -2907368.01200  26314826.19500  -2190193.25240  26314831.10540
  23506797.65600  25889122.89100  18281707.38740  25889128.07040
 -11449423.97100  22959714.20300  -8527446.44240  22959718.02340
  -8762750.52000  24287104.22700  -6741908.94340  24287108.69140
  10184815.47200  25591384.73400   8046392.65240  25591388.30940
  -1939968.10000  27095183.87500  -1439476.07740  27095189.48840
  10324576.57900  24030915.37500   8070982.85540  24030919.09040
  -2307034.82500  26654375.49200  -1710618.13640  26654379.96940
 96  9 10  4 21  0.0080000  0  8  3 14 18 19 22 27 29 31
  -2923538.28000  26311748.36700  -2202793.42040  26311752.80940
  23645888.06400  25915590.93000  18390089.51340  25915596.88340
 -11447302.44700  22960118.06200  -8525793.30040  22960121.90640
  -8778001.54100  24284201.85900  -6753792.83240  24284206.39440
  10309960.51200  25615199.24200   8143908.26440  25615203.87140
  -1984775.56300  27086656.67200  -1474390.93940  27086661.69940
  10404060.83400  24046040.43700   8132918.63540  24046043.97740
  -2364368.97800  26643465.18700  -1755294.06840  26643469.84040
 96  9 10  4 21 30.0080000  0  8  3 14 18 19 22 27 29 31
  -2939298.27900  26308749.81200  -2215073.91540  26308754.44140
  23785156.86700  25942092.67200  18498610.67440  25942097.82840
 -11444772.08000  22960599.50800  -8523821.57140  22960603.23440
  -8793013.50200  24281345.21900  -6765490.44140  24281349.78940
  10435392.49100  25639068.33600   8241647.46440  25639072.82440
  -2029466.54900  27078152.61700  -1509215.00940  27078158.57040
  10483912.29800  24061235.85200   8195140.55640  24061239.26240
  -2421619.37400  26632570.70300  -1799904.71640  26632575.55540
 96  9 10  4 22  0.0090000  0  8  3 14 18 19 22 27 29 31
  -2954675.99700  26305823.52800  -2227056.52640  26305828.11040
  23924589.97900  25968626.04400  18607259.83740  25968631.54040
 -11441840.99600  22961157.40300  -8521537.60340  22961161.21240
  -8807806.01200  24278530.41100  -6777017.04740  24278535.04040
  10561097.14900  25662989.25500   8339599.14440  25662992.88840
  -2074052.99300  27069667.34100  -1543957.62840  27069672.68540
  10564125.88900  24076499.84900   8257644.65340  24076503.28240
  -2478788.23400  26621691.55200  -1844451.81540  26621695.58340
 96  9 10  4 22 30.0090000  0  8  3 14 18 19 22 27 29 31
  -2969692.15300  26302966.19200  -2238757.39740  26302970.35240
  24064144.99400  25995182.52000  18716004.01440  25995187.57140
 -11438513.86700  22961790.49700  -8518945.02140  22961794.23540
  -8822413.40400  24275750.63800  -6788399.41140  24275755.25540
  10687029.61200  25686953.13000   8437728.33440  25686958.07540
  -2118561.30100  27061197.61400  -1578639.37840  27061201.89240
  10644685.06500  24091829.77800   8320418.04040  24091833.23540
  -2535886.23700  26610825.97400  -1888943.72940  26610830.25140
 96  9 10  4 23  0.0090000  0  8  3 14 18 19 22 27 29 31
  -2984353.34600  26300176.04400  -2250181.66140  26300180.80240
  24203823.64700  26021762.63000  18824844.51040  26021768.30240
 -11434793.77600  22962498.27800  -8516046.24040  22962502.04040
  -8836856.70600  24273002.10600  -6799653.90540  24273006.52440
  10813216.77900  25710965.77800   8536056.00240  25710969.93840
  -2163003.35900  27052741.24700  -1613269.46740  27052746.08740
  10725601.58100  24107227.65300   8383469.87140  24107230.99340
  -2592905.76200  26599975.59100  -1933374.49340  26599980.41940
 96  9 10  4 23 30.0090000  0  8  3 14 18 19 22 27 29 31
  -2998648.85300  26297455.52800
  24343624.12600  26048365.27000  18933779.96540  26048370.52040
 -11430692.36800  22963278.72400  -8512850.32940  22963282.52040
  -8851138.57500  24270284.19200  -6810782.60440  24270288.39940
  10939657.28300  25735026.58300   8634581.06040  25735031.00140
  -2207395.81700  27044293.50500  -1647860.93540  27044299.47040
  10806873.10400  24122693.23100   8446798.32340  24122696.54840
  -2649846.80300  26589140.21600  -1977744.06540  26589144.89240
 96  9 10  4 24  0.0090000  0  8  3 14 18 19 22 27 29 31
  -3012560.91200  26294808.51300
  24483551.11800  26074992.41900  19042813.98940  26074997.89240
 -11426205.51100  22964132.41900  -8509354.06740  22964136.28640
  -8865242.65100  24267600.18500  -6821772.77240  24267604.79040
  11066338.80700  25759133.32500   8733293.93840  25759137.88440
  -2251749.45700  27035853.34900  -1682422.15540  27035858.21240
  10888495.73000  24138225.52000   8510400.37040  24138228.88440
  -2706721.36700  26578317.44200  -2022061.87340  26578322.14240
 96  9 10  4 24 30.0090000  0  8  3 14 18 19 22 27 29 31
  -3026056.85300  26292240.41900     -8033.82250  26292245.64540
  24623604.74500  26101644.03600  19151946.68040  26101648.73540
 -11421322.65900  22965061.65300  -8505549.23940  22965065.36840
  -8879133.04600  24264957.19200  -6832596.43240  24264961.70440
  11193277.68400  25783289.34100   8832207.33340  25783293.67740
  -2296059.79300  27027421.20800  -1716949.64240  27027425.63840
  10970476.78100  24153825.81700   8574281.70840  24153829.29840
  -2763523.00500  26567508.50500  -2066322.85540  26567512.92340
 96  9 10  4 25  0.0090000  0  8  3 14 18 19 22 27 29 31
  -3039157.11600  26289747.38800    -18241.80340  26289751.67740
  24763781.03500  26128318.65300  19261174.97340  26128322.94240
 -11416065.82900  22966061.84100  -8501452.99940  22966065.67340
  -8892796.94300  24262356.71600  -6843243.60840  24262361.23940
  11320464.16400  25807491.50500   8931313.69240  25807495.67740
  -2340330.26200  27018996.56000  -1751446.06640  27019003.33340
  11052804.04000  24169492.17700   8638432.81540  24169495.66940
  -2820251.35000  26556713.02800  -2110526.71940  26556718.70040
 96  9 10  4 25 30.0090000  0  8  3 14 18 19 22 27 29 31
  -3051876.86100  26287326.76300    -28153.25340  26287331.43840
  24904044.52400  26155010.27800  19370471.21440  26155015.72740
 -11410456.45000  22967129.49700  -8497082.04040  22967133.24740
  -8906252.14000  24259796.20000  -6853728.14340  24259800.91140
  11447850.82500  25831732.52800   9030576.02840  25831737.22740
  -2384569.73700  27010578.25500  -1785918.30740  27010583.54040
  11135453.12200  24185219.98100   8702834.70540  24185223.48540
  -2876915.70200  26545930.34900  -2154680.70440  26545935.47040
 96  9 10  4 26  0.0090000  0  8  3 14 18 19 22 27 29 31
  -3064223.17800  26284977.00500    -37773.72840  26284981.01340
  25044387.83700  26181716.39500  19479829.62840  26181722.04440
 -11404484.08200  22968265.92700  -8492428.23740  22968269.78240
  -8919511.53900  24257273.01300  -6864060.11740  24257277.87640
  11575445.28900  25856013.21600   9130000.29540  25856017.49340
  -2428762.58300  27002168.59100  -1820354.21940  27002173.46640
  11218427.83500  24201009.42700   8767490.31940  24201013.09540
  -2933503.61200  26535161.84900  -2198775.16940  26535165.49340
 96  9 10  4 26 30.0090000  0  8  3 14 18 19 22 27 29 31
  -3076183.66500  26282700.87200    -47093.56040  26282705.75940
  25184838.33200  26208443.27800  19589271.59540  26208449.04440
 -11398127.74500  22969475.44200  -8487475.24140  22969479.27440
  -8932577.85600  24254786.68500  -6874241.63540  24254791.38440
  11703280.43300  25880339.33300   9229612.09240  25880343.45840
  -2472875.42400  26993774.23900  -1854727.80440  26993780.25140
  11301747.53600  24216864.58300   8832414.76140  24216868.06340
  -2989970.30100  26524417.32500  -2242775.12440  26524421.28640
 96  9 10  4 27  0.0090000  0  8  3 14 18 19 22 27 29 31
  -3087780.58900  26280494.07500    -56130.10140  26280498.92740
  25325385.37000  26235188.74700  19698788.73240  26235193.72740
 -11391400.09600  22970755.88800  -8482232.90440  22970759.59140
  -8945502.88100  24252327.33300  -6884313.05040  24252331.86840
  11831332.81900  25904706.67700   9329393.17740  25904711.10640
  -2516909.91200  26985394.32500  -1889040.34140  26985399.75140
  11385388.30300  24232781.05200   8897589.38340  24232784.48540
  -3046317.78600  26513693.81700  -2286682.23540  26513699.27840
 96  9 10  4 27 30.0090000  0  8  3 14 18 19 22 27 29 31
  -3098983.20800  26278362.31000    -64859.38540  26278366.92740
  25466040.43500  26261954.41900  19808390.10540  26261959.69240
 -11384270.61100  22972112.33300  -8476677.45840  22972116.18840
  -8958287.54900  24249894.51300  -6894275.10540  24249899.11840
  11959626.89100  25929120.47400   9429362.56940  25929124.75140
  -2560840.24200  26977034.61400  -1923271.71340  26977040.21640
  11469372.02300  24248762.66900   8963031.24140  24248765.93840
  -3102534.63400  26502996.05200  -2330487.52640  26503001.40740
 96  9 10  4 28  0.0090000  0  8  3 14 18 19 22 27 29 31
  -3109806.30100  26276302.98100    -73292.94140  26276307.72740
  25606804.94300  26288740.54400  19918076.75240  26288746.34540
 -11376738.07400  22973545.86400  -8470807.94040  22973549.61440
  -8970917.53700  24247490.99700  -6904116.62240  24247495.53240
  12088151.11300  25953577.59900   9529511.31140  25953581.51340
  -2604675.53700  26968693.00500  -1957429.00540  26968698.64240
  11553689.54700  24264807.45000   9028733.19940  24264810.89540
  -3158637.27600  26492320.45000  -2374203.84340  26492325.26740
 96  9 10  4 28 30.0090000  0  8  3 14 18 19 22 27 29 31
  -3120232.70500  26274319.20000    -81417.37940  26274323.41940
  25747688.67200  26315549.96600  20027856.25840  26315555.54440
 -11368789.78000  22975058.28600  -8464614.45640  22975062.04840
  -8983357.82300  24245123.62200  -6913810.33540  24245128.18140
  12216905.26500  25978078.43500   9629839.23240  25978082.72440
  -2648406.03500  26960371.95800  -1991504.68640  26960376.52840
  11638365.78800  24280920.97400   9094714.68340  24280924.45440
  -3214608.38900  26481669.66100  -2417817.65940  26481675.27440
 96  9 10  4 29  0.0090000  0  8  3 14 18 19 22 27 29 31
  -3130252.17100  26272412.02800    -89224.73340  26272416.14240
  25888671.94700  26342378.31000  20137713.37640  26342383.84140
 -11360420.69100  22976650.81000  -8458093.08140  22976654.68840
  -8995596.11200  24242794.94200  -6923346.64340  24242799.31340
  12345877.38700  26002621.58300   9730336.99540  26002625.63840
  -2692038.92800  26952068.43500  -2025504.26940  26952073.42740
  11723424.45600  24297107.06000   9160994.16540  24297110.47040
  -3270453.44200  26471042.68500  -2461333.24840  26471046.96240
 96  9 10  4 29 30.0090000  0  8  3 14 18 19 22 27 29 31
  -3139861.30600  26270583.66900    -96712.34940  26270588.13440
  26029744.04200  26369223.23900  20247639.68340  26369227.72740
 -11351633.00900  22978323.00500  -8451245.52540  22978326.89540
  -9007608.54300  24240508.75500  -6932706.95840  24240513.40740
  12475061.44500  26027204.44200   9830999.89540  26027208.45040
  -2735591.13600  26943780.36400  -2059440.96140  26943785.46240
  11808879.53700  24313368.50500   9227582.53940  24313372.22040
  -3326187.19600  26460436.77800  -2504762.11340  26460440.27040
 96  9 10  4 30  0.0090000  0  8  3 14 18 19 22 27 29 31
  -3149064.65400  26268832.18500   -103883.76140  26268836.95440
  26170886.93200  26396082.31700  20357621.16040  26396086.26740
 -11342447.99000  22980071.08300  -8444088.36340  22980074.88040
  -9019391.30700  24238266.63000  -6941888.30340  24238271.35240
  12604438.88100  26051823.97400   9931813.48040  26051828.43840
  -2779082.53400  26935504.61400  -2093330.32140  26935510.77840
  11894707.12900  24329701.20800   9294461.18140  24329704.72440
  -3381801.87000  26449853.34900  -2548098.21140  26449857.35640
 96  9 10  4 30 30.0090000  0  8  3 14 18 19 22 27 29 31
  -3157857.52800  26267159.09100   -110735.32340  26267163.05240
  26312088.89700  26422951.96600  20467648.67440  26422956.81740
 -11332878.18300  22981892.21600  -8436631.36240  22981895.94240
  -9030983.52700  24236060.58300  -6950921.17240  24236065.21240
  12734010.90900  26076480.88800  10032778.69140  26076485.27040
  -2822522.77200  26927238.32500  -2127179.79840  26927243.91540
  11980892.25400  24346101.51300   9361618.41940  24346105.02840
  -3437285.45500  26439294.73900  -2591332.13140  26439299.46240
 96  9 10  4 31  0.0090000  0  8  3 14 18 19 22 27 29 31
  -3166230.02600  26265565.73100   -117259.33140  26265570.47740
  26453363.54600  26449835.80200  20577732.82740  26449841.50940
 -11322921.09000  22983786.99700  -8428872.58340  22983790.71240
  -9042396.92200  24233888.87200  -6959814.69440  24233893.51340
  12863783.53100  26101176.03600  10133900.23240  26101180.82940
  -2865907.55900  26918981.84900  -2160986.07640  26918986.92340
  12067406.45600  24362564.76300   9429032.07840  24362568.30240
  -3492637.41700  26428761.84900  -2634463.49640  26428767.00540
 96  9 10  4 31 30.0090000  0  8  3 14 18 19 22 27 29 31
  -3174177.12100  26264053.29400   -123451.84940  26264057.70040
  26594735.01000  26476737.49700  20687892.39340  26476742.94640
 -11312575.51400  22985755.61400  -8420811.08940  22985759.37640
  -9053622.60300  24231752.43500  -6968561.95540  24231756.86440
  12993756.58800  26125908.66100  10235177.92240  26125913.73540
  -2909233.28500  26910737.05200  -2194746.30840  26910742.50140
  12154217.98900  24379084.27800   9496677.42840  24379087.98140
  -3547845.12400  26418256.06700  -2677482.44240  26418260.19240
 96  9 10  4 32  0.0090000  0  8  3 14 18 19 22 27 29 31
  -3181716.28000  26262618.72400   -129326.49440  26262622.97740
  26736209.05300  26503659.96600  20798131.91840  26503664.98140
 -11301841.80400  22987798.20000  -8412447.14940  22987802.05640
  -9064676.25400  24229649.13800  -6977175.17040  24229653.68540
  13123915.31200  26150676.77800  10336600.30240  26150681.39540
  -2952503.34500  26902503.63000  -2228463.19040  26902507.86040
  12241315.16000  24395658.52000   9564545.35240  24395662.10640
  -3602901.00400  26407779.20000  -2720383.10240  26407784.02840
 96  9 10  4 32 30.0090000  0  8  3 14 18 19 22 27 29 31
  -3188852.17200  26261260.84900   -134886.90640  26261265.27840
  26877794.24500  26530601.88800  20908458.04140  26530607.54840
 -11290707.81800  22989916.79400  -8403771.30840  22989920.54440
  -9075572.32100  24227575.59900  -6985665.59040  24227579.92340
  13254253.39800  26175479.84900  10438162.44540  26175484.41940
  -2995731.03200  26894276.88800  -2262147.04940  26894282.40740
  12328705.75200  24412288.34900   9632641.91340  24412291.70040
  -3657820.00200  26397328.59900  -2763177.08040  26397334.14240
 96  9 10  4 33  0.0090000  0  8  3 14 18 19 22 27 29 31
  -3195578.24300  26259980.96600   -140127.97240  26259985.48940
  27019499.12700  26557568.21600  21018877.42640  26557573.81740
 -11279164.82400  22992113.27000  -8394776.75840  22992116.97440
  -9086277.37500  24225538.40300  -6994007.16140  24225542.83340
  13384777.97400  26200318.06700  10539869.90640  26200322.64940
  -3038909.46300  26886060.50500  -2295792.51240  26886065.80240
  12416417.02800  24428979.22400   9700988.35940  24428982.75140
  -3712610.95400  26386902.79400  -2805871.30140  26386908.17340
 96  9 10  4 33 30.0090000  0  8  3 14 18 19 22 27 29 31
  -3201905.80800  26258776.76300   -145058.50640  26258781.14540
  27161291.34300  26584549.77000  21129364.86040  26584555.56040
 -11267220.23000  22994386.43500  -8385469.27040  22994390.22040
  -9096799.19900  24223536.13800  -7002205.95540  24223540.90740
  13515481.76800  26225189.61400  10641717.01740  26225193.66940
  -3082049.99700  26877850.70800  -2329408.41740  26877856.40340
  12504475.88300  24445736.34100   9769605.64140  24445739.85640
  -3767282.54400  26376498.62200  -2848472.51840  26376503.84940
 96  9 10  4 34  0.0090000  0  8  3 14 18 19 22 27 29 31
  -3207812.10700  26257652.98100   -149660.79440  26257657.50540
  27303155.82400  26611545.60600  21239908.60840  26611550.98540
 -11254855.13900  22996739.27800  -8375834.12640  22996743.08740
  -9107142.23000  24221567.88800  -7010265.44040  24221572.44640
  13646382.02200  26250099.22400  10743717.21040  26250104.82540
  -3125132.66500  26869652.97400  -2362979.28940  26869658.42340
  12592908.90200  24462564.63800   9838514.48240  24462567.93140
  -3821835.65800  26366116.93500  -2890981.40340  26366121.34140
 96  9 10  4 34 30.0090000  0  8  3 14 18 19 22 27 29 31
  -3213266.85300  26256614.79400   -153911.22240  26256619.18840
  27445078.46800  26638552.75500  21350497.68840  26638558.97740
 -11242065.88900  22999172.94200  -8365868.46940  22999176.70440
  -9117300.95400  24219634.92700  -7018181.30640  24219639.48540
  13777485.90800  26275047.34900  10845876.06340  26275051.86040
  -3168147.26600  26861467.06700  -2396497.08540  26861471.12240
  12681716.00100  24479463.98900   9907714.81540  24479467.42340
  -3876265.78900  26355760.17700  -2933394.45740  26355764.68840
 96  9 10  4 35  0.0090000  0  8  3 14 18 19 22 27 29 31
  -3218277.00500  26255661.20000   -157815.20540  26255665.38440
  27587023.22000  26665563.66900  21461103.98040  26665569.32940
 -11228858.42700  23001686.25500  -8355576.93240  23001690.02840
  -9127279.04400  24217735.98900  -7025956.41240  24217740.47740
  13908774.42600  26300030.74700  10948178.82440  26300035.15340
  -3211082.01900  26853297.34900  -2429952.66340  26853301.84940
  12770888.49400  24496433.00500   9977199.87340  24496436.42740
  -3930577.73500  26345424.57500  -2975715.40440  26345429.09940
 96  9 10  4 35 30.0090000  0  8  3 14 18 19 22 27 29 31
  -3222823.50800  26254796.13000   -161357.89540  26254800.51340
  27728991.52800  26692579.73100  21571728.63140  26692583.86840
 -11215204.71000  23004284.72400  -8344937.66040  23004288.54440
  -9137055.71400  24215875.73100  -7033574.57440  24215880.14940
  14040255.37000  26325050.80200  11050631.50340  26325054.75140
  -3253915.47100  26845145.99700  -2463329.31740  26845150.80240
  12860425.61700  24513471.33300  10046969.06340  24513474.74340
  -3984727.37000  26335120.27000  -3017909.91540  26335125.21640
 96  9 10  4 36  0.0090000  0  8  3 14 18 19 22 27 29 31
  -3226926.09700  26254015.05200   -164554.69840  26254019.39940
  27870978.64300  26719599.14500  21682367.92140  26719604.03240
 -11201114.55300  23006965.89500  -8333958.31040  23006969.63440
  -9146640.21700  24214051.99700  -7041042.99840  24214056.39240
  14171901.19800  26350102.17700  11153212.65940  26350106.31340
  -3296669.76900  26837010.58300  -2496644.29940  26837014.96640
  12950289.25400  24530571.88800  10116992.66940  24530575.20440
  -4038712.15700  26324846.96600  -3059975.91540  26324851.40740
 96  9 10  4 36 30.0090000  0  8  3 14 18 19 22 27 29 31
  -3230605.00300  26253315.44200   -167421.33840  26253320.65740
  28012991.27700  26746622.71600  21793027.10540  26746628.59940
 -11186601.21700  23009727.58300  -8322649.20540  23009731.35640
  -9156022.38900  24212266.38000  -7048353.75540  24212270.89240
  14303710.39700  26375184.87200  11255921.11640  26375189.51340
  -3339351.90600  26828888.07500  -2529903.04040  26828892.78640
  13040484.80200  24547735.40300  10187274.91440  24547738.84940
  -4092514.56600  26314608.98900  -3101899.84140  26314613.46640
 96  9 10  4 37  0.0090000  0  8  3 14 18 19 22 27 29 31
  -3233841.73000  26252699.31700   -169943.43640  26252703.71240
  28155068.62900  26773659.55200  21903736.70940  26773664.77840
 -11171630.11600  23012576.58300  -8310983.40540  23012580.36840
  -9165159.25700  24210527.67700  -7055473.37440  24210532.06040
  14435725.89000  26400306.23100  11358790.34040  26400310.67340
  -3381928.03200  26820786.33300  -2563079.18040  26820791.73540
  13131053.67100  24564970.16900  10257848.06240  24564973.52040
  -4146085.82500  26304414.92700  -3143643.63140  26304419.56740
 96  9 10  4 37 30.0090000  0  8  3 14 18 19 22 27 29 31
  -3236685.28900  26252158.26300   -172159.16440  26252162.71640
  28297182.74800  26800702.77000  22014475.01340  26800708.92340
 -11156268.83900  23015499.69200  -8299013.57240  23015503.43140
  -9174110.94800  24208824.23900  -7062448.69940  24208828.73940
  14567905.61600  26425459.70000  11461787.51940  26425464.27040
  -3424458.82100  26812692.70000  -2596219.98540  26812698.13840
  13221944.03100  24582265.85600  10328671.71440  24582269.26740
  -4199461.60400  26294257.60600  -3185235.12840  26294262.08340
 96  9 10  4 38  0.0090000  0  8  3 14 18 19 22 27 29 31
  -3239126.70800  26251693.59100   -174061.53740  26251698.60640
  28439339.94600  26827754.32500  22125246.83040  26827759.18840
 -11140528.81400  23018494.81000  -8286748.60940  23018498.58340
  -9182904.97000  24207150.73100  -7069301.16540  24207155.11440
  14700240.21600  26450641.84100  11564905.37540  26450646.20040
  -3466944.84800  26804608.28600  -2629325.92340  26804612.95040
  13313164.12600  24599624.62200  10399752.30640  24599628.25540
  -4252657.90500  26284134.23900  -3226686.74540  26284138.68140
 96  9 10  4 38 30.0090000  0  8  3 14 18 19 22 27 29 31
  -3241119.91400  26251314.52000   -175614.64840  26251318.76340
  28581557.21300  26854817.59100  22236065.46440  26854822.51340
 -11124397.53700  23021564.39500  -8274178.77340  23021568.16940
  -9191528.49600  24205509.77800  -7076020.77340  24205514.48940
  14832756.96500  26475858.62200  11668165.18440  26475863.47440
  -3509348.94100  26796538.31700  -2662368.00940  26796544.35240
  13404749.67400  24617052.70800  10471117.66440  24617056.17740
  -4305658.31900  26274048.91100  -3267985.73940  26274053.38840
 96  9 10  4 39  0.0090000  0  8  3 14 18 19 22 27 29 31
  -3242644.08100  26251024.63800   -176802.29340  26251028.71640
  28723829.30300  26881890.88000  22346926.80740  26881896.50540
 -11107862.09800  23024711.14500  -8261294.01040  23024714.93140
  -9199988.08800  24203899.90300  -7082612.64040  24203904.31040
  14965446.36100  26501108.84100  11771559.49240  26501113.58740
  -3551676.12700  26788483.52800  -2695350.16740  26788489.00140
  13496691.48100  24634548.63800  10542760.62540  24634552.23540
  -4358463.02400  26264000.25500  -3309132.23840  26264005.08340
 96  9 10  4 39 30.0090000  0  8  3 14 18 19 22 27 29 31
  -3243698.99000  26250823.44200   -177624.26440  26250827.08740
  28866135.62700  26908971.07500  22457814.86440  26908975.76340
 -11090931.77500  23027932.73900  -8248101.53840  23027936.53640
  -9208307.41300  24202316.73100  -7089095.20940  24202321.24340
  15098289.30500  26526388.25500  11875073.46940  26526392.56740
  -3593940.13100  26780441.20800  -2728283.09640  26780447.22040
  13588968.64900  24652108.33300  10614664.91240  24652111.93140
  -4411088.56700  26253986.16900  -3350139.12040  26253990.61040
 96  9 10  4 40  0.0090000  0  8  3 14 18 19 22 27 29 31
  -3244264.85700  26250715.93500   -178065.17740  26250720.29440
  29008476.15900  26936057.99700  22568729.55540  26936062.91940
 -11073575.51400  23031235.52000  -8234577.17340  23031239.24740
  -9216457.21700  24200765.95000  -7095445.69040  24200770.41540
  15231298.62800  26551698.84100  11978717.09940  26551703.51740
  -3636135.61400  26772411.77000  -2761162.65640  26772417.17340
  13681588.24800  24669733.27000  10686836.02940  24669736.88040
  -4463528.49300  26244008.13800  -3391001.36240  26244012.46240
 96  9 10  4 40 30.0090000  0  8  3 14 18 19 22 27 29 31
  -3244376.81200  26250694.59100   -178152.39040  26250698.91540
  29150822.80000  26963146.02800  22679648.99740  26963151.82940
 -11055805.55200  23034617.05200  -8220730.44440  23034620.80240
  -9224437.66900  24199247.36400  -7101664.20140  24199251.88840
  15364456.98600  26577038.21600  12082476.85240  26577042.47040
  -3678292.77000  26764389.59900  -2794012.32340  26764394.26340
  13774523.96400  24687418.36400  10759253.47140  24687421.86840
  -4515801.05500  26234060.60600  -3431733.20940  26234064.77840
 96  9 10  4 41  0.0090000  0  8  3 14 18 19 22 27 29 31
  -3244032.67900  26250759.88800   -177884.19340  26250764.16540
  29293190.83200  26990236.88800  22790585.12340  26990242.11440
 -11037580.14600  23038085.26300  -8206528.82140  23038088.96640
  -9232216.25300  24197766.84900  -7107725.41540  24197771.22040
  15497766.62500  26602406.02000  12186354.49740  26602410.80240
  -3720402.29900  26756376.70000  -2826824.87440  26756381.93840
  13867787.72400  24705165.90300  10831926.53140  24705169.46640
  -4567879.53400  26224150.10600  -3472313.80240  26224154.22040
 96  9 10  4 41 30.0090000  0  8  3 14 18 19 22 27 29 31
  -3243239.24400  26250910.81000   -177265.91440  26250915.02840
  29435585.44500  27017333.84900  22901541.97340  27017339.49740
 -11018898.12900  23041640.33300  -8191971.40240  23041644.04840
  -9239784.31900  24196326.78600  -7113622.58840  24196331.38040
  15631221.07400  26627801.48900  12290344.96640  26627806.22440
  -3762467.91000  26748371.12200  -2859603.22740  26748376.95840
  13961383.86600  24722976.51300  10904858.58640  24722979.94640
  -4619770.49200  26214275.48900  -3512748.30540  26214279.79040
 96  9 10  4 42  0.0090000  0  8  3 14 18 19 22 27 29 31
  -3242004.79800  26251145.52800   -176303.98540  26251150.12240
  29578011.67300  27044436.34100  23012523.42540  27044441.27440
 -10999756.05600  23045283.10600  -8177055.49840  23045286.76340
  -9247141.87500  24194926.75500  -7119355.72840  24194931.16140
  15764804.54400  26653221.52000  12394435.98240  26653225.63440
  -3804478.00100  26740376.88000  -2892338.30640  26740381.57940
  14055316.62000  24740851.38000  10978052.93540  24740855.18840
  -4671467.89000  26204437.60600  -3553031.95740  26204441.68540
 96  9 10  4 42 30.0090000  0  8  3 14 18 19 22 27 29 31
  -3240318.08100  26251466.64500   -174989.64040  26251470.99340
  29720465.28200  27071544.41900  23123526.20640  27071549.81040
 -10980137.99500  23049016.04400  -8161768.69440  23049019.84140
  -9254288.44500  24193566.73900  -7124924.46840  24193571.31040
  15898516.90100  26678666.03600  12498627.41240  26678670.94640
  -3846412.00300  26732397.26300  -2925014.09940  26732403.16940
  14149602.47100  24758793.39500  11051522.42540  24758797.04040
  -4722949.36900  26194641.02000  -3593147.37140  26194646.18840
 96  9 10  4 43  0.0090000  0  8  3 14 18 19 22 27 29 31
  -3238185.98300  26251872.63000   -173328.23440  26251877.11840
  29862921.15400  27098653.30200  23234530.76940  27098659.26740
 -10960069.19500  23052835.07500  -8146130.65940  23052838.74340
  -9261251.24600  24192241.88000  -7130350.00940  24192246.21640
  16032335.61800  26704131.34100  12602901.73240  26704135.31340
  -3888285.54000  26724428.08300  -2957642.76540  26724433.25140
  14244211.01200  24776796.85600  11125243.37040  24776800.29040
  -4774229.59100  26184882.78600  -3633105.94640  26184887.12240
 96  9 10  4 43 30.0090000  0  8  3 14 18 19 22 27 29 31
  -3235610.91600  26252362.73900   -171321.65740  26252367.21640
  30005369.57700  27125759.96600  23345529.54140  27125765.42740
 -10939569.18100  23056736.20000  -8130156.61640  23056739.95040
  -9268036.05200  24190950.84900  -7135636.84840  24190955.16140
  16166278.22900  26729619.87200  12707272.60840  26729623.79840
  -3930091.90800  26716473.41900  -2990219.09240  26716478.34140
  14339126.82300  24794858.78600  11199203.74640  24794862.32540
  -4825320.33500  26175160.52800  -3672916.91440  26175164.87640
 96  9 10  4 44  0.0090000  0  8  3 14 18 19 22 27 29 31
  -3232580.36500  26252939.22400   -168960.16440  26252943.32540
  30147794.08000  27152862.61400  23456509.66340  27152867.75940
 -10918637.56400  23060719.35600  -8113846.25940  23060722.97740
  -9274647.27100  24189692.67700  -7140788.43340  24189696.82540
  16300351.31900  26755133.02800  12811745.13240  26755137.66940
  -3971816.89800  26708533.32500  -3022732.03140  26708539.27840
  14434353.70100  24812979.83300  11273406.49840  24812983.36040
  -4876211.43900  26165476.63800  -3712572.28840  26165481.38440
 96  9 10  4 44 30.0090000  0  8  3 14 18 19 22 27 29 31
  -3229072.06600  26253606.74700   -166226.39440  26253611.57540
  30290213.00500  27179963.87200  23567485.43740  27179969.04040
 -10897261.24500  23064787.20800  -8097189.38040  23064790.87640
  -9281065.96400  24188471.18500  -7145789.99440  24188475.67340
  16434579.27000  26780675.48900  12916338.33740  26780680.35240
  -4013458.01600  26700609.58300  -3055179.60340  26700614.16540
  14529913.82700  24831164.29400  11347868.93440  24831167.54040
  -4926902.59100  26155829.93500  -3752071.86340  26155834.55240
 96  9 10  4 45  0.0090000  0  8  3 14 18 19 22 27 29 31
  -3225089.71200  26254364.73900   -163123.24840  26254368.51340
  30432640.78500  27207066.87200  23678468.11140  27207071.29040
 -10875463.65900  23068935.09900  -8080204.23740  23068938.81340
  -9287297.78400  24187285.41100  -7150645.93340  24187289.85240
  16568949.87000  26806245.25500  13021042.70140  26806249.83740
  -4055019.11300  26692700.40300  -3087564.79740  26692705.52440
  14625797.99200  24849410.54400  11422583.86940  24849413.93140
  -4977406.34600  26146219.00500  -3791425.40440  26146223.49340
 96  9 10  4 45 30.0090000  0  8  3 14 18 19 22 27 29 31
  -3220648.69700  26255209.55200   -159662.69740  26255212.97440
  30575073.78500  27234171.13000  23789454.85440  27234177.15340
 -10853249.61900  23073162.27000  -8062894.59040  23073165.88040
  -9293371.74200  24186129.73100  -7155378.87140  24186134.07940
  16703441.58300  26831838.32500  13125841.45440  26831842.90740
  -4096516.87000  26684803.65300  -3119900.66640  26684808.64540
  14722007.93300  24867718.77000  11497552.65040  24867722.54440
  -5027728.46800  26136643.54400  -3830637.41540  26136648.10240
 96  9 10  4 46  0.0090000  0  8  3 14 18 19 22 27 29 31
  -3215741.66000  26256143.69200   -155839.00140  26256148.09940
  30717524.90500  27261278.52000  23900455.70540  27261283.87640
 -10830605.15400  23077471.48900  -8045249.54340  23077475.22740
  -9299292.48500  24185002.66100  -7159992.41640  24185007.06740
  16838035.11800  26857451.22400  13230719.51340  26857455.89940
  -4137958.66900  26676917.39500  -3152192.92840  26676922.88040
  14818568.34400  24886093.53600  11572794.52940  24886096.99340
  -5077845.45600  26127106.14500  -3869689.61140  26127110.62240
 96  9 10  4 46 30.0090000  0  8  3 14 18 19 22 27 29 31
  -3210370.18800  26257165.84100   -151653.42140  26257169.98940
  30860013.09000  27288393.32500  24011485.44440  27288398.01340
 -10807522.19400  23081863.81700  -8027262.81340  23081867.54440
  -9305043.97700  24183908.41100  -7164474.08240  24183912.64240
  16972729.85200  26883082.59900  13335676.43640  26883087.11040
  -4179337.11700  26669043.16900  -3184435.81540  26669048.71240
  14915478.34300  24904534.63000  11648308.81240  24904538.14540
  -5127727.85800  26117613.93500  -3908558.98340  26117618.77440
 96  9 10  4 47  0.0090000  0  8  3 14 18 19 22 27 29 31
  -3204542.31500  26258274.87200   -147112.19540  26258278.86840
  31002514.69400  27315510.73100  24122525.65340  27315514.69240
 -10784001.77600  23086339.59100  -8008935.20640  23086343.30640
  -9310630.48100  24182845.24700  -7168827.18140  24182849.64240
  17107517.63400  26908731.38000  13440705.90440  26908736.61840
  -4220652.39300  26661181.22400  -3216629.48440  26661186.42740
  15012728.75900  24923041.02000  11724088.34640  24923044.58340
  -5177352.01400  26108170.89500  -3947227.13740  26108174.97440
 96  9 10  4 47 30.0100000  0  8  3 14 18 19 22 27 29 31
  -3198252.39400  26259471.71300   -142210.93840  26259475.42840
  31145018.60200  27342627.58000  24233567.65940  27342633.83840
 -10760027.34600  23090901.67400  -7990253.82840  23090905.38940
  -9316032.28100  24181817.04900  -7173036.36240  24181821.40840
  17242431.85500  26934404.77500  13545833.84740  26934409.17040
  -4261900.84900  26653332.01800  -3248771.09040  26653336.37740
  15110339.12500  24941615.68900  11800148.36940  24941619.26440
  -5226696.02600  26098781.12700  -3985677.00440  26098785.12340
 96  9 10  4 48  0.0100000  0  8  3 14 18 19 22 27 29 31
  -3191499.46800  26260756.39300   -136948.89140  26260760.81040
  31287489.91200  27369738.61100  24344584.26140  27369744.44740
 -10735614.66000  23095547.16600  -7971230.94940  23095550.99840
  -9321225.40900  24180828.90000  -7177082.93640  24180833.43540
  17377465.04600  26960101.14300  13651054.52240  26960105.58440
  -4303074.21300  26645496.44700  -3280854.17540  26645501.54540
  15208288.36900  24960254.77500  11876472.45040  24960258.25640
  -5275762.02400  26089444.18900  -4023910.20640  26089448.10340
 96  9 10  4 48 30.0100000  0  8  3 14 18 19 22 27 29 31
  -3184273.84600  26262131.22100   -131318.51440  26262135.22840
  31429926.79400  27396843.97800  24455574.00840  27396850.07240
 -10710763.03200  23100276.40000  -7951866.03840  23100280.08040
  -9326209.50500  24179880.30700  -7180966.63340  24179884.58440
  17512638.36700  26985823.65000  13756384.38740  26985827.72840
  -4344170.38900  26637676.59600  -3312877.12740  26637681.03740
  15306564.04300  24978956.02500  11953050.89340  24978959.57640
  -5324562.69500  26080157.97800  -4061936.68340  26080163.25240
 96  9 10  4 49  0.0100000  0  8  3 14 18 19 22 27 29 31
  -3176565.27300  26263598.51800   -125311.81640  26263602.36140
  31572320.66800  27423940.61900  24566530.25540  27423945.71740
 -10685473.87100  23105088.87700  -7932160.19040  23105092.52140
  -9330999.57100  24178968.94700  -7184699.13240  24178973.24840
  17647959.48900  27011574.28300  13861829.43040  27011580.11940
  -4385205.48700  26629867.72100  -3344852.47040  26629872.38540
  15405164.80600  24997719.02500  12029882.64940  24997722.40040
  -5373115.01600  26070918.33800  -4099769.63640  26070923.13140
 96  9 10  4 49 30.0100000  0  8  3 14 18 19 22 27 29 31
  -3168374.16600  26265156.95500   -118929.09440  26265161.66640
  31714670.28900  27451029.16600  24677452.06440  27451035.15440
 -10659753.76800  23109983.28300  -7912118.54540  23109986.93940
  -9335599.15500  24178093.65800  -7188283.21040  24178098.01840
  17783412.93500  27037350.76800  13967377.57640  27037355.58440
  -4426192.65000  26622068.23600  -3376790.47440  26622072.38540
  15504069.26700  25016540.06400  12106951.05040  25016543.52140
  -5421431.31900  26061723.84600  -4137418.66740  26061728.04140
 96  9 10  4 50  0.0100000  0  8  3 14 18 19 22 27 29 31
  -3159698.33900  26266807.91600   -112168.68840  26266811.99440
  31856992.34000  27478112.28300  24788352.36540  27478116.95940
 -10633598.97400  23114960.31400  -7891738.18140  23114963.91240
  -9340025.44800  24177251.36900  -7191732.25440  24177255.75240
  17918978.43800  27063146.78300  14073013.00640  27063150.94340
  -4467130.40200  26614277.95500  -3408689.97640  26614282.47840
  15603274.30500  25035418.09600  12184253.66940  25035421.78740
  -5469507.50000  26052575.27500  -4174880.59740  26052579.17840
 96  9 10  4 50 30.0100000  0  8  3 14 18 19 22 27 29 31
  -3150535.71100  26268551.27500   -105028.95640  26268555.31840
  31999291.77400  27505190.77500  24899235.01040  27505196.22540
 -10607005.24200  23120020.95500  -7871015.78840  23120024.64640
  -9344297.11300  24176438.47100  -7195060.80940  24176442.88940
  18054650.42700  27088964.94700  14178731.43940  27088968.47540
  -4508022.30300  26606495.98600  -3440553.75040  26606500.36940
  15702786.04900  25054354.62700  12261795.27140  25054358.08440
  -5517329.17200  26043475.15800  -4212144.21440  26043479.09640
 96  9 10  4 51  0.0100000  0  8  3 14 18 19 22 27 29 31
  -3140886.72500  26270387.74400    -97510.22740  26270392.05740
  32141556.90300  27532263.22800  25010090.95340  27532268.59640
 -10579980.40800  23125163.40800  -7849957.46740  23125167.12340
  -9348399.16900  24175657.86100  -7198257.19740  24175662.22140
  18190410.91200  27114799.75200  14284518.85040  27114803.53740
  -4548863.12400  26598724.90800  -3472377.69840  26598729.64340
  15802604.68400  25073349.45500  12339576.01540  25073352.88940
  -5564877.09800  26034427.08800  -4249194.50740  26034431.09640
 96  9 10  4 51 30.0100000  0  8  3 14 18 19 22 27 29 31
  -3130760.71100  26272314.61900    -89619.80540  26272317.87740
  32283792.77000  27559329.64300  25120924.08140  27559334.58840
 -10552524.68200  23130388.18200  -7828563.38340  23130391.94340
  -9352328.14700  24174910.11900  -7201318.71740  24174914.40840
  18326244.60700  27140647.60300  14390363.28640  27140653.39340
  -4589638.48100  26590965.21300  -3504150.67640  26590968.96340
  15902732.73800  25092402.97800  12417597.86640  25092406.70540
  -5612138.53200  26025433.58800  -4286021.58140  26025437.65440
 96  9 10  4 52  0.0100000  0  8  3 14 18 19 22 27 29 31
  -3120149.79000  26274333.51000    -81351.53540  26274338.25640
  32425995.60700  27586389.53300  25231731.48440  27586394.17440
 -10524624.85500  23135697.38500  -7806823.25240  23135701.18240
  -9356091.72700  24174194.05700  -7204251.36040  24174198.31040
  18462147.25800  27166508.68900  14496261.46740  27166514.56040
  -4630340.65200  26583219.84600  -3535866.58340  26583224.13540
  16003181.52300  25111518.04900  12495869.63140  25111521.79940
  -5659120.18800  26016493.56400  -4322630.63540  26016497.16240
 96  9 10  4 52 30.0100000  0  8  3 14 18 19 22 27 29 31
  -3109025.98500  26276450.51000    -72683.60840  26276454.89340
  32568163.73900  27613443.89300  25342511.83240  27613450.37340
 -10496258.75200  23141095.30700  -7784719.78740  23141099.11540
  -9359667.72000  24173513.56400  -7207037.83040  24173517.90040
  18598131.69800  27192385.97800  14602223.38940  27192390.65440
  -4670963.61900  26575488.92400  -3567520.81740  26575494.11540
  16103946.81100  25130692.93200  12574388.02640  25130696.56440
  -5705819.05200  26007606.83800  -4359019.32640  26007610.92840
 96  9 10  4 53  0.0100000  0  8  3 14 18 19 22 27 29 31
  -3097393.53500  26278663.66600    -63619.32740  26278667.96740
  32710303.29000  27640491.36900  25453269.92340  27640497.18240
 -10467408.98000  23146585.09600  -7762239.43740  23146588.86940
  -9363053.99100  24172869.13500  -7209676.46540  24172873.43540
  18734194.48800  27218278.24400  14708246.33540  27218282.40440
  -4711517.06100  26567772.68900  -3599120.83140  26567776.88540
  16205029.58900  25149928.44700  12653153.80640  25149932.05740
  -5752245.43800  25998772.07200  -4395195.70040  25998776.25640
 96  9 10  4 53 30.0100000  0  8  3 14 18 19 22 27 29 31
  -3085250.90600  26280974.60300    -54157.52540  26280979.02140
  32852418.25500  27667535.14300  25564008.83840  27667542.21340
 -10438056.83500  23152170.69700  -7739367.63340  23152174.48240
  -9366263.08600  24172258.32200  -7212177.03940  24172262.68240
  18870336.51300  27244184.49400  14814331.02140  27244188.98240
  -4752002.45100  26560067.99400  -3630667.85440  26560072.83440
  16306440.89000  25169226.34600  12732175.58440  25169229.77940
  -5798409.43600  25989987.32200  -4431167.63240  25989991.62340
 96  9 10  4 54  0.0100000  0  9  3 14 16 18 19 22 27 29 31
  -3072608.77200  26283380.54900    -44306.49140  26283384.76840
  32994480.67500  27694569.45500  25674706.85040  27694575.53740
    -37830.05210  27733469.54900
 -10408222.12000  23157848.01800  -7716119.79340  23157851.69740
  -9369291.27300  24171682.08800  -7214536.64840  24171686.33040
  19006560.21000  27270107.47100  14920479.33340  27270109.72140
  -4792436.80200  26552373.76000  -3662175.11240  26552378.38940
  16408170.87900  25188584.97800  12811445.68540  25188588.70540
  -5844329.24000  25981249.21300  -4466949.27040  25981253.57240
 96  9 10  4 54 30.0100000  0  9  3 14 16 18 19 22 27 29 31
  -3059474.72900  26285879.59600    -34072.13640  26285883.86140
  33136493.96700  27721593.15800  25785366.53840  27721598.77140
    -86854.99400  27724139.28300
 -10377910.54500  23163616.10300  -7692500.37540  23163619.77140
  -9372125.50800  24171142.83000  -7216745.11640  24171147.18940
  19142880.55400  27296048.45500  15026702.99840  27296051.33840
  -4832814.65300  26544690.21300  -3693638.33340  26544694.66640
  16510226.43200  25208005.52500  12890969.47540  25208009.04140
  -5889986.36900  25972560.58800  -4502526.22440  25972565.43940
 96  9 10  4 55  0.0100000  0  9  3 14 16 18 19 22 27 29 31
  -3045881.20400  26288466.43200    -23479.74440  26288470.58040
  33278448.43600  27748606.20500  25895980.42440  27748611.68940
   -135516.67600  27714879.64300     -8820.65850  27714884.63540
 -10347145.50600  23169470.37700  -7668527.61340  23169474.10340
  -9374775.17600  24170638.66600  -7218809.77740  24170643.00240
  19279278.98400  27322003.91600  15132987.50940  27322008.21740
  -4873136.68200  26537017.09600  -3725058.04840  26537022.34640
  16612618.30700  25227489.90800  12970755.33040  25227493.40040
  -5935389.75600  25963920.67400  -4537905.45640  25963925.46740
 96  9 10  4 55 30.0100000  0  9  3 14 16 18 19 22 27 29 31
  -3031837.77500  26291138.76800    -12536.78940  26291143.44340
  33420323.37700  27775604.54100  26006532.30940  27775610.37740
   -183820.20100  27705688.61100    -46459.73640  27705692.79540
 -10315957.96900  23175405.07200  -7644225.63040  23175408.84640
  -9377246.05500  24170168.27500  -7220735.11840  24170172.78740
  19415747.26000  27347973.47100  15239326.42740  27347978.06440
  -4913399.62000  26529355.51000  -3756431.72240  26529360.71340
  16715333.37700  25247035.86100  13050793.02940  25247039.40040
  -5980540.70600  25955328.34600  -4573087.98740  25955332.31840
 96  9 10  4 56  0.0100000  0  8  3 16 18 19 22 27 29 31
  -3017326.74800  26293900.13500     -1229.46640  26293904.67040
   -231764.27400  27696565.22100    -83818.74940  27696570.40040
 -10284338.65100  23181422.18900  -7619587.19640  23181425.98640
  -9379532.49000  24169733.22800  -7222516.74040  24169737.54140
  19552294.72600  27373956.97100  15345727.03540  27373961.40040
  -4953594.13900  26521706.43200  -3787752.07740  26521711.10740
  16818370.43300  25266643.33000  13131081.62840  25266646.68240
  -6025422.30400  25946788.33800  -4608060.65140  25946792.32240
 96  9 10  4 56 30.0100000  0  8  3 16 18 19 22 27 29 31
  -3002338.72300  26296752.22800     10449.55240  26296756.97540
   -279359.88400  27687508.15000   -120906.20840  27687513.92840
 -10252279.33300  23187522.83800  -7594605.90340  23187526.67040
  -9381663.57100  24169327.68900  -7224177.30440  24169331.96740
  19688892.25100  27399950.58000  15452166.65740  27399954.71740
  -4993729.92800  26514069.23600  -3819026.71040  26514073.74840
  16921713.38400  25286308.91600  13211608.57740  25286312.36140
  -6070041.03500  25938297.50200  -4642828.46040  25938301.96740
 96  9 10  4 57  0.0100000  0  8  3 16 18 19 22 27 29 31
  -2986860.67600  26299697.60300     22510.38540  26299701.24840
   -326608.30200  27678517.12700   -157723.13540  27678522.13140
 -10219770.31600  23193709.00200  -7569274.19440  23193712.81040
  -9383637.36900  24168952.35300  -7225715.31240  24168956.46740
  19825535.14900  27425953.04900  15558641.67640  27425958.54540
  -5033809.42400  26506442.23600  -3850257.42940  26506446.87740
  17025358.56200  25306031.82200  13292371.04040  25306035.70140
  -6114385.15000  25929859.04100  -4677382.30040  25929863.44740
 96  9 10  4 57 30.0100000  0  8  3 16 18 19 22 27 29 31
  -2970874.35300  26302739.22800     34967.29040  26302742.99040
   -373517.28300  27669590.43200   -194275.61040  27669594.70940
 -10186795.32400  23199983.98600  -7543579.38940  23199987.71340
  -9385459.35600  24168605.45500  -7227135.02240  24168609.61540
  19962228.09400  27451964.86100  15665155.63440  27451968.65840
  -5073841.57900  26498824.01000  -3881451.27640  26498827.97140
  17129293.05700  25325810.02500  13373358.93440  25325813.56440
  -6158441.68500  25921475.09600  -4711712.05440  25921479.58440
 96  9 10  4 58  0.0100000  0  8  3 16 18 19 22 27 29 31
  -2954361.02600  26305881.91600     47834.85740  26305886.04140
   -420062.76000  27660732.83000   -230544.81140  27660736.72140
 -10153323.77700  23206353.42400  -7517497.65740  23206357.19740
  -9387115.20400  24168290.18900  -7228425.27540  24168294.56040
  20098986.41700  27477988.98600  15771720.53040  27477994.04940
  -5113833.34800  26491213.82200  -3912613.66540  26491219.31840
  17233527.94400  25345645.40800  13454580.91540  25345648.72540
  -6202194.71700  25913148.87700  -4745805.29140  25913153.74040
 96  9 10  4 58 30.0100000  0  8  3 16 18 19 22 27 29 31
  -2937332.72800  26309122.08800     61103.67840  26309126.43540
   -466232.43700  27651947.85300   -266521.14440  27651951.97840
 -10119359.98900  23212816.65000  -7491032.36340  23212820.34240
  -9388596.62300  24168008.35300  -7229579.60840  24168012.73640
  20235819.30100  27504028.01000  15878343.59540  27504033.04940
  -5153796.90800  26483609.01800  -3943754.06140  26483613.67040
  17338071.28100  25365539.08800  13536043.24240  25365542.61540
  -6245632.26800  25904883.53300  -4779652.71640  25904888.29140
 96  9 10  4 59  0.0100000  0  8  3 16 18 19 22 27 29 31
  -2919792.88900  26312459.96300     74771.11840  26312464.29940
   -512029.78500  27643231.58000   -302207.37840  27643236.47840
 -10084905.11400  23219373.14300  -7464184.40240  23219376.79940
  -9389895.04300  24167761.22800  -7230591.34440  24167765.43540
  20372737.83600  27530081.86100  15985033.31140  27530087.36940
  -5193721.17900  26476011.61900  -3974863.82740  26476015.12340
  17442934.83700  25385494.15000  13617755.08640  25385497.44340
  -6288722.93200  25896683.65000  -4813229.82340  25896688.44340
 96  9 10  4 59 30.0100000  0  8  3 16 18 19 22 27 29 31
  -2901740.48200  26315895.08000     88837.95540  26315898.79540
   -557455.11000  27634588.19700   -337603.71940  27634594.49040
 -10049979.17300  23226019.26000  -7436969.37640  23226023.06840
  -9391028.21300  24167545.72800  -7231474.31840  24167549.85340
  20509734.15300  27556151.78300  16091783.73540  27556155.28740
  -5233607.49600  26468421.81400  -4005944.04840  26468426.93540
  17548113.17600  25405508.60300  13699712.22640  25405512.42440
  -6331478.67400  25888547.22100  -4846545.95240  25888551.38140
 96  9 10  5  0  0.0100000  0  8  3 16 18 19 22 27 29 31
  -2883146.59500  26319433.48600    103326.72640  26319438.09240
   -602475.51200  27626021.12700   -372684.50440  27626026.67040
 -10014564.81900  23232758.43900  -7409373.77040  23232762.27140
  -9391960.06800  24167368.33800  -7232200.42040  24167372.53340
  20646828.74700  27582239.18900  16198610.70840  27582243.22140
  -5273412.74900  26460846.44700  -4036961.09740  26460850.53740
  17653640.23700  25425589.97800  13781941.08640  25425593.71740
  -6373873.02800  25880479.88500  -4879580.48940  25880484.61940
 96  9 10  5  0 30.0100000  0  8  3 16 18 19 22 27 29 31
  -2864015.02500  26323074.16600    118234.47040  26323078.29140
   -647105.39500  27617527.76800   -407461.03440  27617534.17840
  -9978681.48800  23239586.93900  -7381412.73040  23239590.64340
  -9392700.58400  24167227.59600  -7232777.42740  24167231.93240
  20783993.86600  27608341.70500  16305492.59740  27608347.15440
  -5313118.54200  26453291.33000  -4067900.63240  26453296.01840
  17759497.88300  25445733.98600  13864427.55240  25445737.49040
  -6415915.45200  25872479.79900  -4912340.79940  25872484.06440
 96  9 10  5  1  0.0100000  0  8  3 16 18 19 22 27 29 31
  -2844337.14500  26326818.64300    133567.91440  26326823.03740
   -691359.86500  27609106.55700   -441945.03040  27609111.57240
  -9942339.73900  23246502.28300  -7353094.48240  23246506.10340
  -9393255.16100  24167121.71300  -7233209.54740  24167126.00240
  20921209.84900  27634453.56400  16412414.15340  27634459.03740
  -5352705.09900  26445758.01800  -4098747.26840  26445762.57640
  17865676.13100  25465939.22100  13947163.83440  25465942.81840
  -6457620.53500  25864543.29100  -4944838.23440  25864547.13540
 96  9 10  5  1 30.0100000  0  9  3 10 16 18 19 22 27 29 31
  -2824115.20700  26330666.85300    149325.28740  26330671.10740
    -15500.63910  27800584.24400
   -735231.42100  27600758.32200   -476130.63040  27600764.43940
  -9905532.35400  23253506.70500  -7324413.39940  23253510.43240
  -9393622.52700  24167051.87700  -7233495.79040  24167055.99040
  21058471.73400  27660572.68900  16519371.46840  27660576.60340
  -5392186.85700  26438244.95500  -4129512.23640  26438249.25640
  17972162.38900  25486202.72100  14030140.13240  25486206.40040
  -6499020.36700  25856664.83000  -4977097.81940  25856668.68540
 96  9 10  5  2  0.0100000  0  9  3 10 16 18 19 22 27 29 31
  -2803373.41800  26334613.94700    165487.73840  26334618.88140
    -57497.14300  27792591.19700
   -778729.10500  27592480.36100   -510024.88840  27592486.39640
  -9868266.15000  23260598.26000  -7295374.79740  23260601.93940
  -9393799.16100  24167018.26000  -7233633.41040  24167022.60740
  21195759.21700  27686697.86900  16626348.70940  27686702.20540
  -5431581.56300  26430748.43200  -4160209.36540  26430753.48240
  18078933.48000  25506520.65800  14113338.37440  25506524.54940
  -6540128.22700  25848842.40800  -5009129.88840  25848846.83840
 96  9 10  5  2 30.0100000  0  9  3 10 16 18 19 22 27 29 31
  -2782122.81900  26338657.62700    182046.67340  26338662.23240
    -99067.62200  27784682.79900
   -821859.33300  27584273.29900   -543632.90540  27584276.74440
  -9830552.49300  23267774.78300  -7265987.53040  23267778.46340
  -9393796.18500  24167018.65000  -7233631.07240  24167022.96340
  21333075.31400  27712828.71300  16733348.29640  27712832.67440
  -5470901.21900  26423265.81400  -4190848.02840  26423269.88140
  18185977.33000  25526890.18900  14196749.15240  25526894.23240
  -6580938.53500  25841076.49400  -5040930.10340  25841080.70140
 96  9 10  5  3  0.0100000  0  9  3 10 16 18 19 22 27 29 31
  -2760371.38700  26342796.80700    198995.86240  26342800.63940
   -140224.39900  27776850.65000    -26702.94050  27776854.91640
   -864618.09300  27576136.67400   -576951.38640  27576142.63940
  -9792375.20300  23275039.70500  -7236238.99340  23275043.39640
  -9393611.67700  24167053.87700  -7233487.29040  24167058.16640
  21470430.61700  27738965.92400  16840378.37540  27738971.27940
  -5510161.36700  26415794.59600  -4221440.31840  26415799.38940
  18293317.29100  25547316.72800  14280390.66640  25547319.88140
  -6621442.23900  25833369.11900  -5072491.40840  25833373.47840
 96  9 10  5  3 30.0100000  0  9  3 10 16 18 19 22 27 29 31
  -2738124.48000  26347030.08000    216331.13040  26347034.02940
   -180989.95700  27769091.86100    -58468.30640  27769097.52140
   -906992.99400  27568072.64300   -609970.75940  27568078.66640
  -9753724.76400  23282394.72100  -7206121.76740  23282398.52940
  -9393235.17300  24167125.36900  -7233193.89540  24167129.79940
  21607815.01400  27765108.80700  16947431.15540  27765111.27940
  -5549374.58500  26408332.70500  -4251996.02840  26408337.73240
  18400955.11700  25567799.38500  14364264.27940  25567803.14640
  -6661618.91300  25825723.49400  -5103797.88840  25825727.27940
 96  9 10  5  4  0.0100000  0  9  3 10 16 18 19 22 27 29 31
  -2715391.20200  26351355.99400    234045.40340  26351360.31840
   -221368.67600  27761408.28300    -89932.25040  27761414.23640
   -948990.54100  27560081.16600   -642696.10940  27560085.79540
  -9714611.43000  23289837.58000  -7175643.84240  23289841.33040
  -9392667.97600  24167233.39300  -7232751.90440  24167237.61140
  21745224.65300  27791258.35300  17054503.56240  27791262.24440
  -5588532.08200  26400880.93200  -4282508.32640  26400885.40840
  18508900.26100  25588340.44700  14448377.36040  25588344.18540
  -6701442.63300  25818145.40000  -5134829.33240  25818149.39640
 96  9 10  5  4 30.0100000  0  9  3 10 16 18 19 22 27 29 31
  -2692166.49300  26355775.53300    252142.60340  26355779.88140
   -261384.04200  27753794.37700   -121113.06640  27753799.93240
   -990610.03700  27552162.12700   -675126.88740  27552167.56440
  -9675012.41800  23297373.15000  -7144787.46740  23297376.83040
  -9391926.76800  24167374.44700  -7232174.32340  24167378.66640
  21882662.86100  27817412.04900  17161598.31740  27817415.49440
  -5627629.08200  26393441.18900  -4312973.48740  26393445.85340
  18617172.27600  25608944.26000  14532745.16240  25608948.03340
  -6740891.74200  25810638.14300  -5165568.86340  25810642.54940
 96  9 10  5  5  0.0100000  0  9  3 10 16 18 19 22 27 29 31
  -2668449.27400  26360288.61900    270623.57240  26360292.55740
   -301058.11800  27746244.77500   -152027.89340  27746249.25240
  -1031845.55500  27544313.68200   -707258.43940  27544319.07240
  -9634905.33000  23305005.15000  -7113535.19140  23305008.90040
  -9391014.30100  24167548.06400  -7231463.29340  24167552.28340
  22020116.92800  27843568.59600  17268705.31040  27843576.11140
  -5666673.93800  26386011.00200  -4343398.02240  26386015.32640
  18725766.36600  25629608.87700  14617363.91540  25629612.32240
  -6779968.87100  25803202.42400  -5196018.54040  25803206.42040
 96  9 10  5  5 30.0100000  0  9  3 10 16 18 19 22 27 29 31
  -2644221.06900  26364899.67400    289502.72840  26364903.68240
   -340367.78200  27738763.77500   -182658.78140  27738770.69340
  -1072691.35600  27536542.27500   -739086.30440  27536548.73240
  -9594297.15400  23312732.72100  -7081892.45640  23312736.44740
  -9389926.91700  24167755.10300  -7230615.95940  24167759.29940
  22157589.63000  27869728.77500  17375826.93140  27869733.26440
  -5705651.52100  26378594.14300  -4373770.12740  26378598.78340
  18834671.17600  25650332.54900  14702224.79640  25650336.07640
  -6818670.13000  25795837.32200  -5226175.35240  25795841.54140
 96  9 10  5  6  0.0100000  0 10  2  3 10 16 18 19 22 27 29 31
    -23310.28510  27961652.43900
  -2619471.24000  26369609.04900    308788.33040  26369612.93940
   -379306.47800  27731353.28300   -213000.61840  27731360.12740
  -1113149.10600  27528842.52500   -770611.80540  27528848.60740
  -9553199.45300  23320553.31400  -7049868.27340  23320557.02940
  -9388683.57600  24167991.59600  -7229647.10740  24167995.82640
  22295090.67000  27895893.66600  17482970.57040  27895898.36540
  -5744572.01500  26371187.67400  -4404097.75040  26371191.84640
  18943877.39400  25671114.05700  14787320.54240  25671117.59640
  -6857019.99200  25788539.86100  -5256058.34340  25788543.88140
 96  9 10  5  6 30.0100000  0 10  2  3 10 16 18 19 22 27 29 31
    -86788.34600  27949573.04100
  -2594179.51000  26374421.72100    328496.18040  26374425.40040
   -417871.93600  27724014.93200   -243051.62640  27724021.04940
  -1153202.99700  27521220.04100   -801822.58340  27521225.33840
  -9511615.72100  23328466.32200  -7017465.36540  23328470.00240
  -9387276.82000  24168259.35300  -7228550.91940  24168263.51440
  22432619.21800  27922064.90000  17590135.72440  27922068.31040
  -5783442.62800  26363791.07200  -4434386.51040  26363795.65440
  19053372.13800  25691950.39300  14872641.10440  25691954.23640
  -6895020.07400  25781308.64300  -5285668.78040  25781312.92040
 96  9 10  5  7  0.0100000  0 10  2  3 10 16 18 19 22 27 29 31
   -150123.12400  27937520.51800    -21371.51650  27937526.07240
  -2568343.64200  26379338.18900    348628.05640  26379342.66640
   -456046.85300  27716749.72800   -272798.30440  27716754.93240
  -1192859.19500  27513673.75200   -832723.51240  27513679.36540
  -9469577.57700  23336466.15000  -6984708.37240  23336469.88940
  -9385702.63400  24168558.88500  -7227324.26340  24168563.01040
  22570167.58700  27948239.43900  17697316.25340  27948245.35740
  -5822266.45300  26356402.74400  -4464638.80440  26356406.65840
  19163133.62300  25712837.13500  14958169.52040  25712840.65040
  -6932687.47400  25774140.84600  -5315019.97140  25774144.98240
 96  9 10  5  7 30.0100000  0 10  2  3 10 16 18 19 22 27 29 31
   -213305.54700  27925496.98600    -70604.55940  27925502.06040
  -2541962.54300  26384358.61100    369184.76740  26384362.44340
   -493809.76200  27709563.67400   -302223.93340  27709569.49840
  -1232105.81300  27506206.01800   -863305.27040  27506210.65840
  -9427102.18500  23344549.01800  -6951610.66540  23344552.73240
  -9383955.44400  24168891.22800  -7225962.80540  24168895.34240
  22707741.48200  27974419.81400  17804516.64940  27974424.90040
  -5861029.47400  26349026.55700  -4494843.72740  26349031.49040
  19273167.24500  25733776.03300  15043909.99140  25733780.25240
  -6970009.06500  25767038.91600  -5344101.71240  25767043.26440
 96  9 10  5  8  0.0100000  0 10  2  3 10 16 18 19 22 27 29 31
   -276341.51000  27913501.71300   -119723.45740  27913507.64340
  -2515039.15000  26389482.03300    390164.05140  26389486.22840
   -531135.64600  27702461.40800   -331309.04440  27702465.73240
  -1270911.01100  27498821.82200   -893543.09440  27498827.70540
  -9384171.93400  23352718.32200  -6918158.52440  23352721.99040
  -9382019.55900  24169259.59600  -7224454.30940  24169264.01440
  22845360.18800  28000607.57200  17911752.02040  28000611.46340
  -5899728.87600  26341662.22800  -4524999.08240  26341666.92840
  19383484.22500  25754768.32200  15129871.26340  25754771.90840
  -7006955.46100  25760008.28300  -5372891.09440  25760012.67840
 96  9 10  5  8 30.0100000  0  9  2  3 10 16 18 19 27 29 31
   -339225.56000  27901534.69700   -168723.96440  27901540.67440
  -2487575.38800  26394707.97800    411564.41540  26394711.99840
   -567994.55300  27695447.96300   -360030.23440  27695453.91640
  -1309255.41700  27491525.43900   -923421.79240  27491531.65040
  -9340757.23200  23360979.44700  -6884328.88440  23360983.13940
  -9379874.22100  24169667.95500  -7222782.60040  24169672.29140
  -5938341.17400  26334314.75200  -4555086.55540  26334319.66240
  19494105.02100  25775819.08800  15216069.27240  25775823.33040
  -7043500.45800  25753053.93900  -5401367.68840  25753058.25240
 96  9 10  5  9  0.0100000  0  9  2  3 10 16 18 19 27 29 31
   -401991.96500  27889590.73600   -217632.82540  27889596.71340
  -2459598.72900  26400032.03300    433364.41740  26400035.91240
   -604410.79300  27688518.11900   -388406.50940  27688523.04140
  -1347158.08100  27484313.10300   -952956.31540  27484317.06440
  -9296878.80900  23369329.61900  -6850137.90940  23369333.38140
  -9377547.50500  24170110.83000  -7220969.56040  24170115.09640
  -5976889.26600  26326979.15800  -4585123.99340  26326983.85740
  19605023.22100  25796925.90800  15302499.03340  25796928.92040
  -7079672.94100  25746170.38500  -5429554.01440  25746174.29940
 96  9 10  5  9 30.0100000  0  9  2  3 10 16 18 19 27 29 31
   -464624.22700  27877673.25200   -266437.15340  27877678.78340
  -2431098.70500  26405455.24400    455572.25440  26405459.05340
   -640389.53400  27681671.85300   -416441.88040  27681679.62740
  -1384610.88200  27477185.70500   -982140.28040  27477191.29540
  -9252518.24900  23377771.21300  -6815571.24240  23377774.97540
  -9375038.05000  24170588.25200  -7219014.12940  24170592.49440
  -6015378.99800  26319654.74400  -4615115.95940  26319659.65440
  19716257.02200  25818093.17400  15389174.70740  25818096.36140
  -7115462.62600  25739359.88500  -5457442.06540  25739363.71740
 96  9 10  5 10  0.0100000  0  9  2  3 10 16 18 19 27 29 31
   -527119.20900  27865780.79900   -315134.50540  27865785.68540
  -2402073.90500  26410978.39300    478189.01140  26410982.70540
   -675957.43600  27674904.70500   -444157.11640  27674909.70940
  -1421631.81300  27470140.28300  -1010987.68640  27470146.48240
  -9207672.49000  23386304.79900  -6780626.49740  23386308.52540
  -9372363.66400  24171097.31400  -7216930.17540  24171101.45140
  -6053830.46900  26312337.73600  -4645078.10740  26312342.00240
  19827802.40600  25839319.52500  15476093.18440  25839323.06440
  -7150892.74500  25732617.62700  -5485049.93140  25732621.47140
 96  9 10  5 10 30.0100000  0  9  2  3 10 16 18 19 27 29 31
   -589450.16900  27853918.65800   -363704.05040  27853923.87340
  -2372494.35300  26416607.13500    501238.00640  26416610.58040
   -711128.25900  27668211.51000   -471562.90740  27668215.77540
  -1458216.16300  27463178.37700  -1039494.97540  27463183.43940
  -9162317.37000  23394935.76000  -6745284.84440  23394939.56840
  -9369511.06400  24171640.01800  -7214707.35740  24171644.16640
  -6092203.28800  26305035.47100  -4674978.96940  26305040.26440
  19939683.30300  25860610.02500  15563273.08740  25860613.63540
  -7185951.59300  25725945.93200  -5512368.49640  25725950.01040
 96  9 10  5 11  0.0100000  0  9  2  3 10 16 18 19 27 29 31
   -651623.54300  27842088.12700   -412150.76840  27842095.20940
  -2342361.43100  26422341.15800    524718.22640  26422345.21340
   -745902.00500  27661594.02500   -498659.35040  27661599.36940
  -1494373.46300  27456297.62700  -1067669.47840  27456301.68240
  -9116458.21900  23403662.57200  -6709550.44440  23403666.35740
  -9366489.08200  24172214.95500  -7212352.55740  24172219.05740
  -6130485.71000  26297750.44700  -4704809.39340  26297755.11140
  20051886.04700  25881961.26000  15650703.78040  25881964.98640
  -7220621.85500  25719348.90800  -5539384.26640  25719353.09240
 96  9 10  5 11 30.0100000  0  9  2  3 10 16 18 19 27 29 31
   -713656.13900  27830283.30700   -460487.81340  27830287.36140
  -2311694.73700  26428176.71300    548614.37440  26428180.38140
   -780271.37800  27655051.61900   -525440.66340  27655058.33440
  -1530129.10500  27449493.26800  -1095530.97740  27449498.21340
  -9070100.81600  23412483.92400  -6673427.79640  23412487.63940
  -9363303.53800  24172821.12700  -7209870.30040  24172825.25240
  -6168667.80700  26290485.11900  -4734561.63840  26290489.99440
  20164375.55600  25903367.09600  15738357.94440  25903371.43240
  -7254894.01600  25712826.58800  -5566089.82640  25712830.71340
 96  9 10  5 12  0.0100000  0  9  2  3 10 16 18 19 27 29 31
   -775555.28300  27818504.52500   -508720.88440  27818509.48240
  -2280490.29000  26434115.01800    572929.54040  26434119.14340
   -814211.27800  27648594.43900   -551887.30840  27648599.46740
  -1565463.55600  27442769.49400  -1123064.27140  27442774.99040
  -9023238.10800  23421401.62700  -6636911.40440  23421405.45940
  -9359923.80200  24173464.55700  -7207236.72740  24173468.64640
  -6206726.75500  26283242.40800  -4764217.92940  26283246.97840
  20277141.34200  25924826.06400  15826227.37740  25924829.83840
  -7288747.78200  25706384.57200  -5592469.36740  25706387.95940
 96  9 10  5 12 30.0100000  0  9  2  3 10 16 18 19 27 29 31
   -837342.62000  27806746.68900   -556866.81940  27806753.58440
  -2248775.87000  26440150.04100    597642.09240  26440153.96740
   -847716.73300  27642220.15000   -577995.42140  27642227.73640
  -1600394.27900  27436122.53300  -1150283.00140  27436128.08840
  -8975892.40000  23430411.31400  -6600018.65240  23430415.15840
  -9356350.12900  24174144.33000  -7204452.03940  24174148.64340
  -6244682.48400  26276019.68200  -4793793.79240  26276024.46340
  20390160.02000  25946332.72800  15914293.87540  25946336.29140
  -7322179.27100  25700022.76800  -5618519.84840  25700026.68240
 96  9 10  5 13  0.0100000  0  9  2  3 10 16 18 19 27 29 31
   -899007.26600  27795012.24400   -604917.16440  27795018.27940
  -2216536.85700  26446284.72800    622763.41240  26446288.60740
   -880747.65700  27635933.93200
  -1634915.65200  27429553.17400  -1177182.72640  27429558.28340
  -8928057.17600  23439513.98600  -6562744.45340  23439517.79540
  -9352568.14900  24174863.93200  -7201505.03140  24174868.10340
  -6282553.99300  26268812.79900  -4823304.01740  26268816.61940
  20503440.26700  25967889.04100  16002564.19740  25967892.31040
  -7355170.12400  25693744.64300  -5644226.99040  25693748.99040
 96  9 10  5 13 30.0100000  0  9  2  3 10 16 18 19 27 29 31
   -960535.45500  27783303.87700   -652861.14640  27783309.67840
  -2183769.16900  26452520.13500    648296.68840  26452524.36540
   -913319.11100  27629733.88500
  -1669032.84300  27423060.82200  -1203767.50240  27423066.23640
  -8879740.46000  23448708.30700  -6525095.07240  23448712.10340
  -9348573.96400  24175624.04100  -7198392.66840  24175628.16640
  -6320372.58200  26261616.40000  -4852773.00940  26261620.94740
  20616992.82900  25989497.55700  16091046.70240  25989501.48240
  -7387743.26600  25687546.27500  -5669608.64640  25687550.57640
 96  9 10  5 14  0.0110000  0  9  2  3 10 16 18 19 27 29 31
  -1021896.22000  27771627.38200   -700674.72640  27771632.60840
  -2150456.41200  26458859.69400    674254.69340  26458863.94840
   -945433.66200  27623622.99100
  -1702728.41300  27416649.54600  -1230023.77140  27416654.79640
  -8830923.12300  23457998.03800  -6487055.59640  23458001.77640
  -9344371.33900  24176423.84300  -7195117.88740  24176428.01540
  -6358157.42200  26254425.81100  -4882215.70640  26254430.37040
  20730852.74000  26011164.40500  16179768.70840  26011167.92140
  -7419906.72200  25681425.75700  -5694671.05940  25681430.31540
 96  9 10  5 14 30.0110000  0  9  2  3 10 16 18 19 27 29 31
  -1083090.86200  27759981.95200   -748358.82640  27759986.93340
  -2116609.26500  26465300.19400    700629.12040  26465304.72940
   -977100.76600  27617596.95200     -4088.03250  27617601.41740
  -1736010.03300  27410316.44400  -1255957.45240  27410320.88640
  -8781607.83700  23467382.32700  -6448628.10340  23467386.15940
  -9339996.43900  24177256.41300  -7191708.86240  24177260.55040
  -6395915.46500  26247241.18600  -4911637.52740  26247245.14740
  20845025.98400  26032890.78000  16268734.86140  26032894.63640
  -7451663.51100  25675382.63200  -5719416.58540  25675386.81540
 96  9 10  5 15  0.0110000  0  9  2  3 10 16 18 19 27 29 31
  -1144125.67300  27748367.91300   -795918.37240  27748373.94840
  -2082227.54600  26471842.75700    727420.07140  26471847.17540
  -1008334.80700  27611654.00700    -28426.18940  27611659.36240
  -1768877.77700  27404061.71000  -1281568.68240  27404067.68640
  -8731803.33100  23476859.85100  -6409819.40340  23476863.67140
  -9335464.10300  24178118.87400  -7188177.16440  24178122.94040
  -6433634.98400  26240062.84300  -4941029.33040  26240067.21440
  20959506.93900  26054675.74900  16357940.80940  26054679.65140
  -7483029.88800  25669413.94400  -5743857.90040  25669418.25740
 96  9 10  5 15 30.0110000  0  9  2  3 10 16 18 19 27 29 31
  -1204993.01400  27736785.60100   -843347.44840  27736791.26140
  -2047316.27900  26478486.46800    754623.65740  26478490.75740
  -1039150.55200  27605790.51500    -52438.43040  27605795.91740
  -1801301.20100  27397892.12400  -1306833.64240  27397897.87840
  -8681505.54900  23486431.10800  -6370626.32740  23486434.90540
  -9330771.09600  24179011.83500  -7184520.26840  24179015.98340
  -6471301.78300  26232895.21000  -4970380.05040  26232899.46440
  21074298.83800  26076520.21000  16447389.02740  26076524.45240
  -7514008.38700  25663519.02200  -5767996.96740  25663523.30040
 96  9 10  5 16  0.0110000  0  9  2  3 10 16 18 19 27 29 31
  -1265692.23200  27725234.21000   -890645.49740  27725239.63640
  -2011865.82300  26485232.56900    782247.41940  26485236.78840
  -1069525.11700  27600008.93600    -76106.90940  27600015.11240
  -1833252.50200  27391811.06100  -1331730.75340  27391816.33540
  -8630706.08200  23496098.04600  -6331042.33340  23496101.77240
  -9325914.45200  24179936.23300  -7180735.86340  24179940.21840
  -6508888.52900  26225742.97600  -4999668.38240  26225746.85440
  21189393.98500  26098421.69400  16537073.55440  26098426.01840
  -7544569.82300  25657703.27200  -5791811.05740  25657707.24540
 96  9 10  5 16 30.0110000  0  9  2  3 10 16 18 19 27 29 31
  -1326234.21900  27713713.33500   -937821.06040  27713717.64740
  -1975874.23400  26492081.49900    810292.82640  26492085.56540
  -1099452.34400  27594314.04600    -99426.81240  27594319.85840
  -1864734.17300  27385819.37400  -1356261.91540  27385825.58540
  -8579410.20000  23505859.28000  -6291071.52140  23505863.07740
  -9320874.68200  24180895.14700  -7176808.75940  24180899.09740
  -6546381.43700  26218608.55400  -5028883.61640  26218612.73740
  21304767.69100  26120376.62400  16626975.14440  26120380.21040
  -7574705.40800  25651968.66300  -5815293.30940  25651972.94040
 96  9 10  5 17  0.0110000  0  9  2  3 10 16 18 19 27 29 31
  -1386601.43600  27702225.85800   -984860.41640  27702231.15540
  -1939338.26600  26499033.97600    838762.42940  26499038.11240
  -1128937.09000  27588703.05400   -122401.88040  27588708.35140
  -1895743.24700  27379919.58500  -1380424.77840  27379924.70640
  -8527622.74300  23515714.28800  -6250717.66140  23515718.13240
  -9315633.41600  24181892.35100  -7172724.64840  24181896.52240
  -6583790.82200  26211488.76500  -5058033.75340  26211493.14740
  21420398.28300  26142380.45200  16717076.90340  26142384.31940
  -7604420.30400  25646313.78800  -5838447.74240  25646317.65540
 96  9 10  5 17 30.0110000  0  9  2  3 10 16 18 19 27 29 31
  -1446804.88600  27690769.56100  -1031772.14640  27690775.89040
  -1902262.36200  26506089.22600    867652.74440  26506093.30440
  -1157983.90400  27583177.14000   -145035.73540  27583181.53440
  -1926284.87300  27374107.79600  -1404223.44040  27374112.44840
  -8475348.91200  23525661.56900  -6209984.81040  23525665.41340
  -9310210.39100  24182924.49100  -7168498.91140  24182928.68640
  -6621142.01400  26204381.62400  -5087138.55040  26204386.14740
  21536269.81500  26164429.73300  16807366.40740  26164433.61240
  -7633710.68700  25640740.21800  -5861271.39440  25640744.30840
 96  9 10  5 18  0.0110000  0  9  2  3 10 16 18 19 27 29 31
  -1506851.46500  27679342.46800  -1078561.66840  27679348.63240
  -1864637.81400  26513248.73300    896970.58940  26513252.75340
  -1186578.85200  27577734.09300   -167317.48140  27577738.54640
  -1956375.03700  27368380.76500  -1427670.29440  27368385.79240
  -8422581.64100  23535702.84300  -6168867.45940  23535706.54640
  -9304598.38000  24183992.34300  -7164125.90140  24183996.46840
  -6658424.00200  26197286.68600  -5116189.41340  26197290.87040
  21652371.53000  26186523.36600  16897835.25940  26186527.32740
  -7662566.69000  25635249.01500  -5883756.56840  25635253.06940
 96  9 10  5 18 30.0110000  0  9  2  3 10 16 18 19 27 29 31
  -1566733.77700  27667947.62400  -1125223.18440  27667953.10840
  -1826464.79900  26520512.60100    926715.81140  26520516.77240
  -1214724.19600  27572378.25700   -189248.89040  27572384.50340
  -1986016.12900  27362740.61600  -1450767.23740  27362746.49940
  -8369312.53000  23545839.69400  -6127359.06740  23545843.37440
  -9298779.00300  24185099.56900  -7159591.31540  24185103.74140
  -6695641.23500  26190204.67900  -5145189.84440  26190208.73340
  21768721.96700  26208664.30400  16988497.94140  26208668.61640
  -7690989.00300  25629840.45200  -5905903.80240  25629844.40140
 96  9 10  5 19  0.0110000  0  9  2  3 10 16 18 19 27 29 31
  -1626458.08700  27656582.71800  -1171761.56440  27656586.64340
  -1787745.16700  26527880.85100    956886.95940  26527884.74140
  -1242416.49600  27567109.03000   -210827.29940  27567115.42940
  -2015193.43400  27357189.24900  -1473502.76940  27357193.76140
  -8315553.63300  23556069.66300  -6085469.02240  23556073.42540
  -9292776.02500  24186241.97600  -7154913.66240  24186246.00740
  -6732790.45000  26183135.51500  -5174137.23940  26183139.99140
  21885339.97900  26230855.72600  17079369.11140  26230859.61640
  -7718967.94900  25624516.28800  -5927705.56040  25624520.23740
 96  9 10  5 19 30.0110000  0  9  2  3 10 16 18 19 27 29 31
  -1686061.13500  27645240.47600  -1218205.45340  27645246.01840
  -1748506.80000  26535347.76500    987462.32440  26535351.47940
  -1269663.31600  27561925.74100   -232058.54040  27561931.09740
  -2043938.13800  27351718.74100  -1495901.22940  27351724.95240
  -8261327.49600  23566388.46800  -6043214.89140  23566392.26540
  -9286616.32300  24187414.17100  -7150113.88640  24187418.24940
  -6769879.44700  26176077.51500  -5203037.73340  26176081.97940
  22002210.57500  26253095.99900  17170437.10640  26253100.56940
  -7746531.10800  25619271.52200  -5949183.32240  25619275.10840
 96  9 10  5 20  0.0110000  0  9  2  3 10 16 18 19 27 29 31
  -1745524.79200  27633924.77200  -1264540.77340  27633929.41340
  -1708733.23300  26542916.36600   1018454.73440  26542920.29240
  -1296445.67400  27556828.53000   -252927.89040  27556833.74540
  -2072231.01400  27346335.21800  -1517947.59640  27346341.04240
  -8206609.01100  23576801.12400  -6000577.11640  23576804.86240
  -9280259.33200  24188623.79600  -7145160.38140  24188627.99140
  -6806883.58700  26169035.89700  -5231872.10740  26169040.40940
  22119367.15600  26275389.61600  17261727.94740  26275392.79240
  -7773664.21200  25614107.88200  -5970325.98340  25614111.80840
 96  9 10  5 20 30.0110000  0  9  2  3 10 16 18 19 27 29 31
  -1804831.75700  27622639.17900  -1310753.96240  27622645.71840
  -1668420.78300  26550587.44400   1049867.04240  26550592.16740
  -1322755.78900  27551820.43600   -273429.28840  27551826.17940
  -2100056.17200  27341040.12400  -1539629.53140  27341045.77240
  -8151403.87100  23587306.27200  -5957560.12940  23587310.02240
  -9273706.60400  24189870.75700  -7140054.35040  24189874.83540
  -6843804.07400  26162010.29600  -5260641.29140  26162014.52640
  22236817.47000  26297739.72600  17353247.67240  26297743.87440
  -7800361.37100  25609027.84300  -5991128.94040  25609031.61640
 96  9 10  5 21  0.0110000  0  9  2  3 10 16 18 19 27 29 31
  -1863971.55600  27611385.39700  -1356836.89840  27611389.51140
  -1627562.68100  26558362.60800   1081704.52940  26558365.96040
  -1348581.48100  27546906.99900   -293553.16340  27546911.64040
  -2127405.16500  27335835.67100  -1560940.42240  27335841.08540
  -8095703.32700  23597905.76500  -5914157.11440  23597909.52640
  -9266961.93300  24191154.34300  -7134798.75640  24191158.43340
  -6880627.88000  26155002.79600  -5289335.14840  26155007.35440
  22354552.33800  26320144.15500  17444989.11940  26320147.65940
  -7826609.94000  25604032.84300  -6011582.34940  25604036.95640
 96  9 10  5 21 30.0110000  0  9  2  3 10 16 18 19 27 29 31
  -1922921.70800  27600167.37400  -1402772.06340  27600172.49540
  -1586143.67200  26566244.33500   1113979.09540  26566248.41340
  -1373918.84200  27542085.20200   -313296.54240  27542090.26540
  -2154273.71600  27330722.42100  -1581876.92240  27330727.91740
  -8039487.22200  23608603.36600  -5870352.35840  23608607.03440
  -9259996.69100  24192479.69400  -7129371.28840  24192483.80840
  -6917353.90000  26148014.07700  -5317952.80740  26148018.34340
  22472578.38400  26342603.53000  17536957.45840  26342606.97640
  -7852401.10100  25599124.73300  -6031679.33140  25599128.60140
 96  9 10  5 22  0.0110000  0  9  2  3 10 16 18 19 27 29 31
  -1981686.26700  27588985.00700  -1448562.63240  27588988.30040
  -1544174.11000  26574230.99900   1146682.66740  26574234.94840
  -1398796.46500  27537352.09300   -332681.68240  27537359.02240
  -2180668.36900  27325699.48300  -1602444.18540  27325705.41340
  -7982774.57900  23619395.35800  -5826160.69040  23619399.19040
  -9252833.10200  24193842.76500  -7123789.26140  24193846.93640
  -6954009.55300  26141038.71000  -5346515.62340  26141042.80040
  22590885.54800  26365117.03000  17629144.86040  26365120.97940
  -7877731.30600  25594304.72600  -6051417.13440  25594308.78040
 96  9 10  5 22 30.0110000  0  9  2  3 10 16 18 19 27 29 31
  -2040250.56800  27577840.04600  -1494197.13040  27577844.88640
  -1501646.38000  26582323.91300   1179821.16040  26582327.88640
  -1423208.72800  27532705.54600   -351704.19940  27532709.82340
  -2206588.81100  27320767.46800  -1622641.88640  27320772.08540
  -7925566.20100  23630281.77200  -5781582.74040  23630285.53440
  -9245480.23500  24195241.96800  -7118059.74440  24195246.09340
  -6990593.89200  26134076.92100  -5375022.87440  26134080.82340
  22709475.82100  26387683.37400  17721552.84140  26387687.45240
  -7902595.24800  25589572.95200  -6070791.61440  25589576.87840
 96  9 10  5 23  0.0110000  0  9  2  3 10 16 18 19 27 29 31
  -2098630.22200  27566731.05400  -1539687.73840  27566737.05440
  -1458566.05800  26590521.79600   1213390.26140  26590525.94440
  -1447165.86600  27528145.99100   -370372.13140  27528151.46440
  -2232049.38300  27315922.01500  -1642481.28140  27315927.42940
  -7867866.28900  23641261.74100  -5736621.77440  23641265.38640
  -9237954.71500  24196674.15500  -7112195.69740  24196678.24540
  -7027111.77100  26127128.09300  -5403478.34040  26127132.13640
  22828354.73300  26410305.92900  17814185.76540  26410309.44440
  -7926998.51200  25584929.57700  -6089807.11740  25584933.69040
 96  9 10  5 23 30.0110000  0  9  2  3 10 16 18 19 27 29 31
  -2156836.66100  27555655.39700  -1585043.38040  27555660.97640
  -1414936.81800  26598824.10100   1247387.08440  26598828.35440
  -1470686.71200  27523670.58500   -388700.03340  27523676.65540
  -2257073.11800  27311160.30400  -1661980.28140  27311164.58140
  -7809689.73300  23652332.51500  -5691289.39840  23652336.25340
  -9230271.47600  24198136.09300  -7106208.75040  24198140.30040
  -7063579.00200  26120188.21800  -5431894.33640  26120192.44840
  22947514.27400  26432980.85800  17907037.33640  26432984.69040
  -7950952.24400  25580371.13200  -6108472.33540  25580375.22240
 96  9 10  5 24  0.0110000  0  9  2  3 10 16 18 19 27 29 31
  -2214855.09600  27544614.05400  -1630252.52140  27544619.89040
  -1370748.85700  26607232.96800   1281819.27040  26607236.94040
  -1493747.70200  27519282.99900   -406669.59840  27519287.25340
  -2281637.47100  27306485.74900  -1681121.29740  27306490.95240
  -7751011.43300  23663498.42900  -5645566.05740  23663502.26140
  -9222418.25000  24199630.71800  -7100089.35040  24199634.78440
  -7099979.79500  26113261.31900  -5460258.57640  26113265.46840
  23066952.99300  26455709.49900  18000106.44740  26455713.00340
  -7974437.79600  25575901.85800  -6126772.75540  25575905.58540
 96  9 10  5 24 30.0110000  0  9  2  3 10 16 18 19 27 29 31
  -2272687.41300  27533609.29600  -1675316.63940  27533614.74540
  -1326002.58100  26615747.42100   1316686.50340  26615751.89740
  -1516337.95900  27514983.71800   -424272.39640  27514988.66340
  -2305734.10700  27301900.77200  -1699897.87640  27301905.88240
  -7691819.96900  23674762.16300  -5599442.84440  23674765.94840
  -9214392.24000  24201157.86600  -7093835.30940  24201161.99140
  -7136309.91300  26106348.10100  -5488567.74040  26106352.42540
  23186662.18700  26478489.18600  18093386.31840  26478493.35840
  -7997449.87000  25571522.85100  -6144704.21440  25571526.71840
 96  9 10  5 25  0.0110000  0  9  2  3 10 16 18 19 27 29 31
  -2330324.12900  27522641.00700  -1720228.34340  27522646.02240
  -1280696.36700  26624369.30400   1351990.05740  26624373.11240
  -1538447.68800  27510776.53800   -441500.74240  27510782.42140
  -2329345.70500  27297407.35800  -1718296.51540  27297412.31540
  -7632097.35700  23686127.11600  -5552905.74740  23686130.91340
  -9206184.02200  24202719.77200  -7087439.28840  24202723.92140
  -7172561.48400  26099449.59300  -5516815.70340  26099453.89340
  23306634.80900  26501319.64000  18186871.45740  26501323.39040
  -8019963.99700  25567238.56100  -6162247.67240  25567242.45240
 96  9 10  5 25 30.0110000  0  9  2  3 10 16 18 19 27 29 31
  -2387783.16500  27511707.01500  -1765001.56440  27511713.46040
  -1234858.69600  26633091.51500   1387707.74440  26633095.69840
  -1560095.64700  27506656.62400   -458369.26440  27506662.40140
  -2352479.73500  27293005.36600  -1736323.00540  27293010.40540
  -7571865.29800  23697588.96000  -5505971.68340  23697592.71040
  -9197805.98400  24204314.10800  -7080910.94140  24204318.24540
  -7208769.27400  26092559.46800  -5545029.54840  26092563.75740
  23426826.73200  26524191.28800  18280527.47540  26524194.60440
  -8042002.31000  25563044.58500  -6179420.36640  25563048.45240
 96  9 10  5 26  0.0110000  0  9  2  3 10 16 18 19 27 29 31
  -2445053.21400  27500809.09300  -1809627.56540  27500815.69040
  -1188482.94600  26641916.90500   1423844.69340  26641921.42940
  -1581261.05200  27502628.98300   -474861.74140  27502634.16340
  -2375111.69200  27288697.84300  -1753958.26340  27288703.14040
  -7511115.18700  23709149.12400  -5458633.94140  23709152.94440
  -9189235.77000  24205944.76500  -7074232.84740  24205948.98340
  -7244924.06000  26085679.28000  -5573202.09540  26085683.75740
  23547253.47100  26547107.58500  18374366.47640  26547111.64040
  -8063550.47900  25558944.60100  -6196211.12940  25558948.80840
 96  9 10  5 26 30.0110000  0  9  2  3 10 16 18 19 27 29 31
  -2502113.48700  27489950.60100  -1854090.08740  27489954.59740
  -1141556.10100  26650846.64700   1460411.07840  26650850.53840
  -1601917.16600  27498698.64700   -490957.40640  27498703.66340
  -2397231.31500  27284489.31900  -1771194.32240  27284494.01840
  -7449844.96400  23720808.49900  -5410890.91740  23720812.30840
  -9180456.47300  24207615.62400  -7067391.83140  24207619.70240
  -7280991.72400  26078815.98300  -5601306.74240  26078820.23740
  23667945.32300  26570074.42900  18468412.05740  26570078.27240
  -8084592.11400  25554940.24100  -6212607.18740  25554943.90940
 96  9 10  5 27  0.0110000  0  9  2  3 10 16 18 19 27 29 31
  -2558989.64300  27479127.41300  -1898409.15140  27479133.83540
  -1094114.75900  26659874.35100   1497378.36840  26659877.96040
  -1622082.47100  27494861.28800   -506670.60140  27494866.63240
  -2418861.91700  27280373.28000  -1788049.30940  27280378.07340
  -7388094.74500  23732559.11600  -5362773.86540  23732562.84340
  -9171480.24000  24209323.72600  -7060397.35340  24209327.78040
  -7316981.18500  26071967.48300  -5629350.46240  26071971.64340
  23788877.54200  26593087.39000  18562644.93240  26593090.87040
  -8105165.53200  25551025.23300  -6228638.40340  25551029.40540
 96  9 10  5 27 30.0110000  0  9  2  3 10 16 18 19 27 29 31
  -2615710.22400  27468334.17100  -1942606.97340  27468338.49540
  -1046170.07000  26668997.92100   1534737.87540  26669001.09740
  -1641766.49200  27491115.22600   -522008.78940  27491120.99140
  -2440023.53800  27276346.13200  -1804538.87940  27276351.22940
  -7325896.49500  23744395.08500  -5314307.70540  23744398.85840
  -9162313.23300  24211068.09300  -7053254.22640  24211072.26540
  -7352900.32800  26065132.26500  -5657339.40440  26065136.87040
  23910038.88700  26616143.54600  18657056.36540  26616147.31940
  -8125292.53200  25547195.13200  -6244321.76140  25547199.16340
 96  9 10  5 28  0.0110000  0  9  2  3 10 16 18 19 27 29 31
  -2672283.26000  27457568.52200  -1986689.81740  27457574.20640
   -997725.84800  26678216.42900   1572486.62340  26678220.02640
  -1660967.34100  27487461.67900   -536970.47240  27487466.26140
  -2460733.25900  27272404.43600  -1820676.29840  27272408.74940
  -7263257.93200  23756314.86600  -5265498.44040  23756318.62840
  -9152952.05000  24212849.77200  -7045959.79140  24212853.75740
  -7388740.23100  26058312.18600  -5685266.59340  26058316.75740
  24031426.29800  26639243.09300  18751643.92440  26639246.97240
  -8144971.69200  25543450.55400  -6259656.15440  25543454.59740
 96  9 10  5 28 30.0110000  0  9  2  3 10 16 18 19 27 29 31
  -2728703.75200  27446831.62400  -2030653.82940  27446835.70240
   -948767.09500  26687532.80400   1610636.32340  26687536.82340
  -1679666.42700  27483903.34300   -551541.17740  27483908.88640
  -2480973.07700  27268553.03800  -1836447.54940  27268557.99540
  -7200154.01700  23768323.10100  -5216326.56340  23768326.87440
  -9143387.47400  24214669.47600  -7038506.86540  24214673.55440
  -7424470.91900  26051512.74900  -5713108.67240  26051517.08540
  24153046.88900  26662386.68600  18846413.18240  26662390.39040
  -8164172.15900  25539796.62400  -6274617.53440  25539800.71440
 96  9 10  5 29  0.0110000  0  9  2  3 10 16 18 19 27 29 31
  -2784986.60500  27436121.12400  -2074510.57140  27436125.92940
   -899287.15100  26696949.10800   1649192.12940  26696952.82340
  -1697895.82900  27480434.19400   -565745.88440  27480439.06940
  -2500753.96200  27264788.87400  -1851861.20240  27264794.20640
  -7136591.58700  23780418.76500  -5166797.40340  23780422.65540
  -9133631.97900  24216525.92100  -7030905.17740  24216530.06940
  -7460121.28600  26044728.78800  -5740888.15240  26044733.20640
  24274877.38700  26685570.03000  18941346.01740  26685573.69840
  -8182900.73300  25536232.56900  -6289211.21340  25536236.50740
 96  9 10  5 29 30.0110000  0  9  2  3 10 16 18 19 27 29 31
  -2841104.33100  27425442.74100  -2118238.64040  27425448.00340
   -849247.93800  26706470.62400   1688183.73440  26706474.51540
  -1715651.02400  27477055.97600   -579581.07940  27477061.81140
  -2520063.49100  27261114.71000  -1866907.56240  27261119.83140
  -7072543.81600  23792606.52200  -5116890.05240  23792610.37840
  -9123682.81400  24218419.20200  -7023152.57440  24218423.25740
  -7495690.85400  26037960.03000  -5768604.68740  26037964.37840
  24396935.05100  26708796.68600  19036455.86640  26708800.09740
  -8201129.99400  25532763.87400  -6303415.81240  25532767.70640
 96  9 10  5 30  0.0110000  0  9  2  3 10 16 18 19 27 29 31
  -2897024.64000  27414801.05400  -2161812.85740  27414806.86640
   -798643.36700  26716100.18600   1727615.87340  26716104.62840
  -1732932.90700  27473766.52200   -593047.44740  27473772.25340
  -2538883.31900  27257533.78800  -1881572.35140  27257538.30040
  -7007980.54600  23804892.47600  -5066581.01240  23804896.35440
  -9113545.20300  24220348.39700  -7015253.13040  24220352.53440
  -7531159.22000  26031210.51500  -5796242.35240  26031214.34740
  24519247.01300  26732072.04600  19131763.87840  26732076.27640
  -8218850.38400  25529391.37400  -6317223.88940  25529395.25340
 96  9 10  5 30 30.0110000  0  9  2  3 10 16 18 19 27 29 31
  -2952741.75500  27404198.92100  -2205228.76240  27404203.76140
   -747477.77700  26725837.06100   1767485.18440  26725840.69440
  -1749759.60700  27470564.91300   -606159.12540  27470569.76540
  -2557209.59100  27254045.89700  -1895852.52640  27254051.13640
  -6942897.33100  23817277.49900  -5015866.82440  23817281.33140
  -9103244.90400  24222308.55400  -7007226.92040  24222312.69040
  -7566534.55000  26024478.92900  -5823807.53240  26024483.22940
  24641814.51900  26755396.21800  19227270.96940  26755399.96840
  -8236077.23800  25526113.31900  -6330647.39240  25526117.08140
 96  9 10  5 31  0.0110000  0  9  2  3 10 16 18 19 27 29 31
  -3008238.98100  27393638.17100  -2248473.33840  27393643.01140
   -695755.54500  26735679.60100   1807788.23340  26735683.29240
  -1766137.05400  27467448.40500   -618920.77140  27467454.33540
  -2575035.40900  27250653.86600  -1909742.76340  27250658.82340
  -6877306.96900  23829759.08500  -4964757.45540  23829762.88240
  -9092787.97500  24224298.32700  -6999078.65840  24224302.41740
  -7601831.02700  26017762.13200  -5851311.26740  26017766.29240
  24764642.66500  26778769.42900  19322981.19740  26778773.62440
  -8252828.73800  25522925.76500  -6343700.49240  25522929.43340
 96  9 10  5 31 30.0110000  0  9  2  3 10 16 18 19 27 29 31
  -3063515.46600  27383119.47600  -2291545.88640  27383124.04640
   -643493.88600  26745624.54600   1848511.60040  26745628.87040
  -1782047.20900  27464420.96800   -631318.26540  27464424.74140
  -2592349.57200  27247358.99100  -1923234.31140  27247364.85140
  -6811203.96700  23842337.87400  -4913248.62540  23842341.75340
  -9082176.48800  24226317.61600  -6990809.96240  24226321.65940
  -7637039.42900  26011062.31900  -5878746.35940  26011066.26840
  24887733.65700  26802192.81900  19418896.22640  26802195.64340
  -8269096.69300  25519829.82700  -6356376.80340  25519833.84740
 96  9 10  5 32  0.0110000  0  9  2  3 10 16 18 19 27 29 31
  -3118574.67900  27372641.88200  -2334449.15440  27372648.19840
   -590695.48700  26755671.81100   1889653.22240  26755676.37040
  -1797467.29600  27461486.37400   -643333.88740  27461491.44840
  -2609144.52400  27244163.43600  -1936321.23040  27244167.87840
  -6744596.71300  23855012.99100  -4861346.86940  23855016.88240
  -9071396.68100  24228369.03800  -6982410.10140  24228373.16340
  -7672156.68900  26004379.81100  -5906110.44340  26004383.96040
  25011085.02200  26825666.01500  19515014.15240  26825669.97640
  -8284866.54200  25516829.23300  -6368664.98540  25516833.05440
 96  9 10  5 32 30.0110000  0  9  2  3 10 16 18 19 27 29 31
  -3173435.09800  27362202.24900  -2377197.51140  27362207.10140
   -537368.98000  26765819.64700   1931206.35740  26765823.56140
  -1812382.59000  27458647.91300   -654956.15840  27458653.70240
  -2625424.72500  27241065.21800  -1949007.10840  27241069.70640
  -6677524.75300  23867776.24900  -4809083.01140  23867780.09340
  -9060443.28300  24230453.17900  -6973874.98340  24230457.24540
  -7707222.23600  25997706.62400  -5933434.22040  25997710.70240
  25134661.24300  26849181.76500  19611307.27740  26849185.63240
  -8300136.71100  25513923.19400  -6380563.79140  25513927.26140
 96  9 10  5 33  0.0110000  0  9  2  3 10 16 18 19 27 29 31
  -3228108.22800  27351797.78000  -2419799.92740  27351802.80840
   -483523.55800  26776065.83500   1973163.84140  26776069.28040
  -1826786.62900  27455906.28800   -666180.09940  27455910.94040
  -2641197.30900  27238063.78800  -1961297.43440  27238068.44040
  -6610008.47000  23880624.24100  -4756472.92340  23880628.07340
  -9049313.12800  24232571.15500  -6965202.13240  24232575.18640
  -7742252.97900  25991040.73300  -5960730.89140  25991045.50340
  25258448.41900  26872737.49100  19707764.79940  26872741.46440
  -8314894.82300  25511114.75700  -6392063.60340  25511118.39040
 96  9 10  5 33 30.0110000  0  9  2  3 10 16 18 19 27 29 31
  -3282599.86200  27341428.92100  -2462260.92540  27341433.26840
   -429152.20000  26786412.61600   2015531.13740  26786416.22640
  -1840671.44800  27453264.95200   -676999.42440  27453271.33940
  -2656479.60600  27235155.85100  -1973205.67140  27235161.20640
  -6542040.44700  23893557.97600  -4703510.83040  23893561.76140
  -9037997.35000  24234724.81100  -6956384.63940  24234728.87840
  -7777254.02900  25984379.96800  -5988004.42640  25984384.15140
  25382448.59200  26896334.08500  19804388.28840  26896337.85840
  -8329125.70700  25508406.60100  -6403152.58540  25508410.39740
 96  9 10  5 34  0.0110000  0  9  2  3 10 16 18 19 27 29 31
  -3336904.10300  27331094.93600  -2504575.90040  27331099.97640
   -374244.69400  26796860.91300   2058316.21940  26796864.79240
  -1854033.89200  27450721.21800   -687411.65740  27450725.47240
  -2671274.64800  27232340.14700  -1984734.26140  27232345.24540
  -6473614.41700  23906579.09300  -4650191.84840  23906582.86640
  -9026487.16500  24236914.96000  -6947415.65740  24236918.97940
  -7812232.56100  25977724.03800  -6015260.40940  25977728.06940
  25506673.49400  26919973.00700  19901186.89140  26919977.35440
  -8342827.66600  25505799.10100  -6413829.41240  25505803.03840
 96  9 10  5 34 30.0110000  0  9  2  3 10 16 18 19 27 29 31
  -3391030.92500  27320794.82700  -2546752.62640  27320799.90140
   -318812.21500  26807409.16300   2101510.37040  26807413.78040
  -1866900.07800  27448273.96800   -697437.26140  27448278.90140
  -2685590.68400  27229616.20200  -1995889.59940  27229620.29240
  -6404715.63000  23919690.11600  -4596504.48340  23919693.90140
  -9014798.39200  24239139.06100  -6938307.51440  24239143.12840
  -7847184.09300  25971073.19400  -6042495.35340  25971077.48340
  25631122.26600  26943655.37400  19998159.92640  26943659.52240
  -8356023.45200  25503288.22600  -6424111.82240  25503292.08140
 96  9 10  5 35  0.0110000  0  9  2  3 10 16 18 19 27 29 31
  -3444976.22800  27310529.22600  -2588787.91440  27310533.91340
   -262836.19900  26818061.24900   2145128.04440  26818065.23340
  -1879286.79100  27445917.01500   -707089.24740  27445922.86240
  -2699430.68100  27226982.35800  -2006673.99940  27226987.69040
  -6335308.90200  23932897.85800  -4542421.32440  23932901.58540
  -9002925.03200  24241398.68600  -6929055.53940  24241402.69440
  -7882082.46900  25964432.20200  -6069688.87140  25964435.95240
  25755812.02500  26967382.67100  20095320.73940  26967385.89340
  -8368710.65300  25500873.79600  -6433997.93440  25500877.49940
 96  9 10  5 35 30.0110000  0  9  2  3 10 16 18 19 27 29 31
  -3498749.67000  27300296.72600  -2630689.27540  27300302.31540
   -206326.94700  26828814.75700   2189161.24740  26828819.49140
  -1891220.83200  27443645.44400   -716388.47440  27443650.58940
  -2712807.22800  27224436.97600  -2017097.26740  27224441.83940
  -6265403.69000  23946200.42900  -4487949.73340  23946204.13240
  -8990882.29700  24243690.21800  -6919671.58840  24243694.26140
  -7916927.62500  25957801.24100  -6096840.92240  25957805.41340
  25880715.84300  26991151.21800  20192648.37440  26991154.19440
  -8380922.22600  25498550.11600  -6443513.41740  25498553.77240
 96  9 10  5 36  0.0110000  0  9  2  3 10 16 18 19 27 29 31
  -3552345.93300  27290097.64000  -2672452.58740  27290102.76140
   -149290.88800  26839668.02200   2233604.94740  26839672.41740
  -1902697.71900  27441461.45200   -725331.45040  27441467.38240
  -2725689.52900  27221985.96800  -2027135.39440  27221990.56140
  -6194997.30300  23959598.28800  -4433087.61340  23959602.10840
  -8978662.76000  24246015.56900  -6910149.86540  24246019.62440
  -7951701.46200  25951183.85100  -6123937.40540  25951188.16340
  26005820.63600  27014957.90500  20290132.62340  27014962.06540
  -8392662.75500  25496316.00700  -6452661.86440  25496319.76840
 96  9 10  5 36 30.0110000  0  9  2  3 10 16 18 19 27 29 31
  -3605740.18400  27279937.20200  -2714058.48540  27279942.25340
    -91707.47500  26850626.01500   2278475.13440  26850630.23340
  -1913694.50600  27439369.00700   -733900.37340  27439375.56940
  -2738050.38200  27219633.50700  -2036767.22440  27219638.33540
  -6124075.14100  23973094.22600  -4377823.59840  23973098.06940
  -8966242.23800  24248379.00700  -6900471.53340  24248383.02640
  -7986371.49900  25944586.31900  -6150953.00040  25944590.36240
  26131136.83300  27038805.05400  20387781.58040  27038808.49940
  -8403908.42100  25494176.19400  -6461424.69640  25494179.99140
 96  9 10  5 37  0.0110000  0  9  2  3 10 16 18 19 27 29 31
  -3658930.48100  27269815.37400  -2755505.45340  27269820.26140
    -33586.42700  26861685.90500   2323764.28840  26861689.53840
  -1924200.55700  27437368.77200   -742086.89840  27437374.23340
  -2749899.07200  27217378.64700  -2045999.97040  27217383.66340
  -6052661.72100  23986683.74100  -4322176.78140  23986687.59740
  -8953623.44600  24250780.49100  -6890638.70540  24250784.51140
  -8020949.14200  25938006.28000  -6177896.60140  25938010.48740
  26256648.36400  27062688.67900  20485582.74440  27062693.06140
  -8414653.32500  25492131.17900  -6469797.33440  25492134.54240
 96  9 10  5 37 30.0110000  0  9  2  3 10 16 18 19 27 29 31
  -3711912.92500  27259733.52200  -2796790.46940  27259738.55040
     25047.72400  26872843.96800   2369453.23440  26872847.28440
  -1934197.50600  27435466.79600   -749876.73540  27435471.80040
  -2761233.15800  27215221.39000  -2054831.71240  27215226.31140
  -5980768.37100  24000364.60800  -4266155.99740  24000368.47640
  -8940805.55900  24253219.73300  -6880650.73940  24253223.77640
  -8055434.88900  25931444.08500  -6204768.60440  25931448.25740
  26382361.89100  27086611.34300  20583541.30740  27086615.47940
  -8424895.80300  25490181.89000  -6477778.45940  25490185.80440
 96  9 10  5 38  0.0110000  0  9  2  3 10 16 18 19 27 29 31
  -3764701.70300  27249687.36600  -2837924.57440  27249692.69840
     84192.06700  26884098.51500   2415539.74340  26884102.51140
  -1943666.57100  27433665.65500   -757255.16340  27433671.21040
  -2772065.23300  27213160.31100  -2063272.27840  27213165.36240
  -5908396.35500  24014136.71000  -4209762.22440  24014140.50740
  -8927786.02800  24255697.08500  -6870505.64340  24255701.02240
  -8089827.32700  25924899.42100  -6231567.87740  25924903.32340
  26508297.89600  27110575.85800  20681673.23740  27110579.60840
  -8434605.96100  25488334.02200  -6485344.80140  25488337.53840
 96  9 10  5 38 30.0110000  0  9  2  3 10 16 18 19 27 29 31
  -3817291.24300  27239679.89700  -2878903.41040  27239685.40540
    143857.67500  26895452.40500   2462032.44040  26895456.13240
  -1952603.68700  27431964.31100   -764219.15340  27431969.59740
  -2782412.19700  27211191.97600  -2071334.82140  27211197.12040
  -5835542.89000  24028000.06100  -4152993.29940  24028003.88240
  -8914571.45100  24258211.77200  -6860208.56440  24258215.80440
  -8124130.77300  25918371.59300  -6258297.80740  25918375.88240
  26634474.96900  27134586.59300  20779993.03340  27134591.03440
  -8443773.80700  25486589.78000  -6492488.55640  25486593.61240
 96  9 10  5 39  0.0110000  0  9  2  3 10 16 18 19 27 29 31
  -3869668.14700  27229713.08500  -2919716.54840  27229717.77240
    204043.92400  26906905.84300   2508930.82940  26906911.09340
  -1961008.25500  27430364.96000   -770768.14840  27430371.04240
  -2792265.29700  27209316.59300  -2079012.55340  27209321.45640
  -5762211.31600  24041954.56900  -4095851.82040  24041958.39040
  -8901163.42900  24260763.48300  -6849760.74840  24260767.50340
  -8158340.97200  25911861.42100  -6284955.07840  25911865.30040
  26760909.57400  27158646.74900  20878513.46340  27158650.62840
  -8452383.96700  25484951.28000  -6499197.75440  25484955.30040
 96  9 10  5 39 30.0110000  0  9  2  3 10 16 18 19 27 29 31
  -3921843.36900  27219784.82700  -2960372.58740  27219789.83140
    264750.11300  26918457.55400   2556234.36140  26918461.69040
  -1968889.69800  27428865.74900   -776909.50240  27428871.73740
  -2801620.16300  27207536.55400  -2086302.05140  27207542.46040
  -5688403.78200  24055999.81900  -4038339.46740  24056003.73340
  -8887566.16600  24263350.66300  -6839165.47540  24263354.62440
  -8192458.27100  25905369.10800  -6311539.96640  25905373.08140
  26887598.42100  27182754.88200  20977232.04340  27182759.65140
  -8460429.22500  25483420.48300  -6505466.77140  25483424.56140
 96  9 10  5 40  0.0110000  0  9  2  3 10 16 18 19 27 29 31
  -3973819.66300  27209893.88200  -3000873.56440  27209898.96840
    325984.37700  26930109.85800   2603949.38340  26930113.74940
  -1976262.75800  27427462.84300   -782654.79940  27427467.16740
  -2810471.60300  27205851.96800  -2093199.24240  27205856.14040
  -5614135.82300  24070132.54600  -3980468.33540  24070136.43640
  -8873800.86700  24265970.24900  -6828439.26640  24265974.18640
  -8226497.10500  25898892.20200  -6338063.70240  25898895.89340
  27014512.66200  27206905.32700  21076126.22840  27206908.51540
  -8467913.29500  25481996.11600  -6511298.49640  25481999.96040
 96  9 10  5 40 30.0120000  0  9  2  3 10 16 18 19 27 29 31
  -4025586.33800  27200043.14400  -3041211.20440  27200048.93440
    387732.62200  26941860.38700   2652064.91240  26941864.21940
  -1983155.69900  27426150.43400   -788026.02240  27426161.20740
  -2818809.23600  27204265.46500  -2099696.11440  27204269.32040
  -5539420.13500  24084350.51900  -3922248.32540  24084354.37540
  -8859877.83200  24268619.66800  -6817590.14340  24268623.74640
  -8260472.94600  25892426.75400  -6364538.35140  25892430.64440
  27141630.39800  27231095.75400  21175178.97640  27231098.78940
  -8474867.65500  25480673.05900  -6516717.46740  25480677.11340
 96  9 10  5 41  0.0120000  0  9  2  3 10 16 18 19 27 29 31
  -4077128.49300  27190234.80900  -3081373.92240  27190240.41040
    450002.98800  26953709.91000   2700587.28540  26953713.18040
  -1989551.32100  27424934.34800
  -2826608.87400  27202781.17600  -2105773.75040  27202786.62540
  -5464251.83300  24098654.50400  -3863675.61940  24098658.39440
  -8845779.39500  24271302.51200  -6806604.34240  24271306.54340
  -8294364.44700  25885977.01900  -6390947.27840  25885981.32040
  27268935.45700  27255320.82400  21274377.72640  27255324.22340
  -8481282.71300  25479452.01900  -6521716.20340  25479455.55940
 96  9 10  5 41 30.0120000  0  9  2  3 10 16 18 19 27 29 31
  -4128471.19800  27180464.59800  -3121381.20540  27180469.30940
    512793.92200  26965659.00400   2749515.29240  26965663.66840
  -1995444.80100  27423812.14400
  -2833875.80200  27201398.26200  -2111436.26440  27201403.71140
  -5388625.30700  24113045.71500  -3804745.85740  24113049.53540
  -8831506.70600  24274018.27700  -6795482.76140  24274022.39140
  -8328187.93100  25879540.69900  -6417303.21240  25879544.94140
  27396407.79500  27279578.34000  21373706.80240  27279582.10140
  -8487183.70400  25478328.93400  -6526314.35840  25478332.68440
 96  9 10  5 42  0.0120000  0  9  2  3 10 16 18 19 27 29 31
  -4179589.04800  27170737.62900  -3161213.28140  27170742.84440
    576114.84100  26977708.27700   2798856.28840  26977711.61740
  -2000819.69000  27422789.00400     -3172.87950  27422786.68440
  -2840604.33000  27200117.79300  -2116679.27240  27200122.58640
  -5312523.01400  24127527.64400  -3745445.37040  24127531.40640
  -8817041.61300  24276771.15200  -6784211.25940  24276775.17240
  -8361935.22700  25873118.85500  -6443599.77740  25873123.01640
  27524057.65700  27303869.12100  21473174.21940  27303872.93040
  -8492571.88600  25477303.78500  -6530512.91940  25477307.50040
 96  9 10  5 42 30.0120000  0  9  2  3 10 16 18 19 27 29 31
  -4230508.67700  27161047.44100  -3200890.92540  27161052.43440
    639935.25200  26989853.11300   2848586.47540  26989857.28540
  -2005695.41100  27421861.69100     -6967.33940  27421865.71140
  -2846831.21900  27198932.72300  -2121531.38140  27198937.59840
  -5235957.06600  24142097.67600  -3685783.58840  24142101.41440
  -8802391.56400  24279558.76900  -6772795.62940  24279562.78940
  -8395622.84900  25866708.30900  -6469849.85140  25866712.57440
  27651880.91600  27328193.32400  21572776.72940  27328196.82840
  -8497468.19200  25476372.01900  -6534328.21240  25476375.73440
 96  9 10  5 43  0.0120000  0  9  2  3 10 16 18 19 27 29 31
  -4281232.21000  27151395.29300  -3240415.71940  27151400.37940
    704266.75300  27002094.51900   2898714.92840  27002098.52740
  -2010057.71800  27421031.90200
  -2852568.21100  27197841.16800  -2126001.74340  27197845.99640
  -5158906.18500  24156759.78500  -3625743.94140  24156763.58240
  -8787546.83900  24282383.54300  -6761228.30840  24282387.50440
  -8429249.60400  25860309.12100  -6496052.50040  25860313.02340
  27779882.48100  27352551.21500  21672518.20240  27352554.13340
  -8501840.27900  25475539.98800  -6537735.00240  25475543.93740
 96  9 10  5 43 30.0120000  0  9  2  3 10 16 18 19 27 29 31
  -4331749.04800  27141781.94100  -3279779.47640  27141787.30940
    769107.11200  27014433.53500   2949239.89540  27014437.30940
  -2013911.95200  27420298.36300
  -2857823.12200  27196840.95700  -2130096.47840  27196846.18440
  -5081361.84900  24171516.09800  -3565319.78740  24171519.90640
  -8772509.26100  24285245.23800  -6749510.70740  24285249.35140
  -8462814.43700  25853922.36300  -6522206.89540  25853926.18440
  27908068.42500  27376943.77700  21772403.32340  27376947.69140
  -8505666.62900  25474811.67600  -6540716.57840  25474815.50840
 96  9 10  5 44  0.0120000  0  9  2  3 10 16 18 19 27 29 31
  -4382052.89700  27132209.46500  -3318977.26740  27132215.04340
    834443.75700  27026866.69100   3000151.57040  27026870.43040
  -2017283.40600  27419656.27700
  -2862605.97100  27195931.29300  -2133823.37540  27195936.05140
  -5003330.46100  24186364.81600  -3504516.11140  24186368.66040
  -8757289.53000  24288141.42600  -6737651.16940  24288145.51640
  -8496314.40100  25847547.23000  -6548310.74940  25847551.35540
  28036431.80900  27401370.71500  21872426.72640  27401374.86340
  -8508935.90100  25474189.68400  -6543264.04740  25474193.77340
 96  9 10  5 44 30.0120000  0  9  2  3 10 16 18 19 27 29 31
  -4432140.16000  27122678.21500  -3358006.28140  27122683.53540
    900293.36300  27039397.23000   3051462.96440  27039401.60140
  -2020162.23400  27419108.34000     -1609.00450  27419112.82840
  -2866900.81800  27195113.76900  -2137169.99540  27195118.77340
  -4924802.06700  24201308.34800  -3443325.16540  24201312.09840
  -8741881.87300  24291073.52700  -6725645.20240  24291077.54740
  -8529745.01700  25841185.70700  -6574360.55940  25841189.85540
  28164985.55900  27425833.55900  21972598.47440  27425837.62540
  -8511621.89500  25473678.66000  -6545357.01040  25473682.49240
 96  9 10  5 45  0.0120000  0  9  2  3 10 16 18 19 27 29 31
  -4482018.11900  27113187.19100  -3396872.20040  27113191.86740
    966653.61600  27052025.72300   3103172.25940  27052029.88340
  -2022552.29500  27418653.30900     -3471.40440  27418658.75840
  -2870699.26600  27194390.98000  -2140129.81540  27194396.26640
  -4845789.55300  24216343.90200  -3381756.97240  24216347.81640
  -8726298.63900  24294038.91800  -6713502.41740  24294043.04340
  -8563117.70800  25834835.38700  -6600365.22240  25834839.57040
  28293703.01200  27450327.25400  22072897.75240  27450331.39140
  -8513731.07600  25473277.18400  -6547000.52240  25473281.07440
 96  9 10  5 45 30.0120000  0  9  2  3 10 16 18 19 27 29 31
  -4531662.82300  27103739.37900  -3435556.36040  27103743.91440
   1033546.16400  27064754.60500   3155296.33640  27064758.30940
  -2024419.71800  27418298.41800     -4926.52040  27418303.25840
  -2873956.43700  27193770.65200  -2142667.85740  27193777.07440
  -4766283.26300  24231473.43400  -3319804.02240  24231477.35940
  -8710513.49300  24297042.48800  -6701202.30040  24297046.51940
  -8596403.01800  25828500.79300  -6626301.80840  25828504.81240
  28422624.56500  27474860.54300  22173356.08340  27474864.92640
  -8515255.89100  25472987.05100  -6548188.67240  25472990.78940
 96  9 10  5 46  0.0120000  0  9  2  3 10 16 18 19 27 29 31
  -4581087.42800  27094334.38700  -3474069.03140  27094339.30940
   1100971.99700  27077584.80900   3207835.95440  27077589.32040
  -2025768.40300  27418042.04300     -5977.43940  27418047.97340
  -2876667.71900  27193254.85500  -2144780.55340  27193259.16840
  -4686302.36200  24246693.33200  -3257481.25040  24246697.10540
  -8694529.26800  24300084.44100  -6688747.05540  24300088.50840
  -8629609.68800  25822181.90200  -6652177.11240  25822185.92240
  28551748.62600  27499431.97300  22273972.21340  27499436.71940
  -8516212.84600  25472804.86300  -6548934.33940  25472808.70740
 96  9 10  5 46 30.0120000  0  9  2  3 10 16 18 19 27 29 31
  -4630312.16800  27084967.26900  -3512425.94840  27084973.04740
   1168923.46300  27090515.62100   3260785.15740  27090519.80540
  -2026604.02800  27417882.59800     -6628.56240  27417887.80140
  -2878846.68600  27192840.21500  -2146478.44540  27192845.73440
  -4605878.58000  24261997.50400  -3194813.37040  24262001.27740
  -8678358.33000  24303161.69900  -6676146.32440  24303165.68440
  -8662750.29900  25815875.74600  -6678000.94040  25815879.68440
  28681060.65900  27524039.23000  22374734.83840  27524043.12140
  -8516627.67500  25472726.09800  -6549257.57140  25472729.64840
 96  9 10  5 47  0.0120000  0  9  2  3 10 16 18 19 27 29 31
  -4679346.72000  27075636.18400  -3550634.66340  27075640.87140
   1237384.53100  27103543.43400   3314131.44840  27103547.92240
  -2026935.57400  27417819.38700     -6886.89340  27417825.23440
  -2880502.91800  27192525.01900  -2147769.01640  27192530.34040
  -4525024.79700  24277383.44100  -3131810.43140  24277387.20340
  -8662001.83100  24306274.11300  -6663400.98840  24306278.15640
  -8695813.25600  25809583.75400  -6703764.25640  25809587.70340
  28810553.19300  27548680.59800  22475638.07040  27548684.27740
  -8516510.14700  25472748.40200  -6549165.98040  25472752.30540
 96  9 10  5 47 30.0120000  0  9  2  3 10 16 18 19 27 29 31
  -4728177.64100  27066344.12900  -3588684.70940  27066349.56640
   1306373.91800  27116671.56600   3367889.41740  27116675.36340
  -2026756.04800  27417853.68400     -6747.01040  27417859.08640
  -2881635.65000  27192309.78500  -2148651.64140  27192314.87140
  -4443735.15200  24292852.48800  -3068467.85940  24292856.33240
  -8645451.93600  24309423.48000  -6650504.96440  24309427.46540
  -8728782.25600  25803310.32400  -6729454.36540  25803314.49640
  28940245.97200  27573361.08200  22576697.36340  27573365.21940
  -8515856.53400  25472872.59800  -6548656.65340  25472876.35940
 96  9 10  5 48  0.0120000  0  9  2  3 10 16 18 19 27 29 31
  -4776810.65800  27057089.62900  -3626580.55340  27057094.65640
   1375895.31700  27129901.53500   3422061.94340  27129905.70740
  -2026072.65700  27417983.62100     -6214.49240  27417988.96540
  -2882248.79000  27192192.66000  -2149129.39740  27192197.10140
  -4362003.99000  24308405.34800  -3004781.24940  24308409.06240
  -8628714.03200  24312608.54300  -6637462.43440  24312612.51640
  -8761653.93600  25797054.83200  -6755068.63340  25797058.69940
  29070128.31900  27598077.01900  22677904.35540  27598081.78940
  -8514661.29300  25473099.82400  -6547725.28540  25473103.48040
 96  9 10  5 48 30.0120000  0  9  2  3 10 16 18 19 27 29 31
  -4825244.60000  27047872.90200  -3664321.24840  27047877.71940
   1445932.61900  27143228.80900   3476636.48140  27143233.13340
  -2024873.94400  27418211.41000     -5280.42740  27418216.74240
  -2882347.65000  27192174.16000  -2149206.44040  27192179.79740
  -4279815.17700  24324045.32400  -2940738.03040  24324049.13340
  -8611786.52800  24315829.66000  -6624272.16840  24315833.71540
  -8794429.41100  25790817.66800  -6780607.95140  25790821.43040
  29200200.12000  27622828.48000  22779259.00340  27622832.51240
  -8512920.74600  25473431.16800  -6546369.00440  25473434.83640
 96  9 10  5 49  0.0120000  0  9  2  3 10 16 18 19 27 29 31
  -4873480.48700  27038693.85500  -3701907.62540  27038699.80940
   1516468.62500  27156651.17600   3531599.61040  27156655.66440
  -2023167.42200  27418536.25400     -3950.65240  27418541.16440
  -2881945.22600  27192250.84000  -2148892.84240  27192255.93740
  -4197160.11900  24339773.89400  -2876331.49840  24339777.83240
  -8594688.86700  24319083.36300  -6610949.30840  24319087.33640
  -8827139.12200  25784593.49600  -6806096.00840  25784597.41040
  29330451.95200  27647614.23800  22880753.90240  27647618.97340
  -8510644.00000  25473864.69100  -6544594.90540  25473868.59440
 96  9 10  5 49 30.0120000  0  9  2  3 10 16 18 19 27 29 31
  -4921490.11900  27029557.85500  -3739317.70440  27029562.90640
   1587518.80500  27170171.87100   3586963.40040  27170175.56240
  -2020928.75400  27418962.46500     -2206.23440  27418967.16440
  -2881015.05000  27192427.73800  -2148168.03440  27192432.77740
  -4114017.73600  24355595.51200  -2811545.23640  24355599.51940
  -8577407.35400  24322372.00400  -6597483.19040  24322375.94140
  -8859776.01800  25778382.55900  -6831527.33440  25778386.57840
  29460898.38100  27672437.55900  22982400.46340  27672441.90640
  -8507815.38500  25474403.01900  -6542390.78040  25474406.85140
